     2              OBSERVATION DATA    GPS                 RINEX VERSION / TYPE
teqc 2000Jul20 Karen Wendt 20030414 22:25:12UTC             PGM / RUN BY / DATE
                                                            COMMENT
L2: 1 -> 1; 150 -> 5; 250 -> 9                              COMMENT
L2: 1 -> 1; 150 -> 5; 250 -> 9                              COMMENT
L2: 1 -> 1; 150 -> 5; 250 -> 9                              COMMENT
L2: 1 -> 1; 150 -> 5; 250 -> 9                              COMMENT
L2: 1 -> 1; 150 -> 5; 250 -> 9                              COMMENT
L2: 1 -> 1; 150 -> 5; 250 -> 9                              COMMENT
L2: 1 -> 1; 150 -> 5; 250 -> 9                              COMMENT
L2: 1 -> 1; 150 -> 5; 250 -> 9                              COMMENT
L2: 1 -> 1; 150 -> 5; 250 -> 9                              COMMENT
L2: 1 -> 1; 150 -> 5; 250 -> 9                              COMMENT
L2: 1 -> 1; 150 -> 5; 250 -> 9                              COMMENT
L2: 1 -> 1; 150 -> 5; 250 -> 9                              COMMENT
L2: 1 -> 1; 150 -> 5; 250 -> 9                              COMMENT
L2: 1 -> 1; 150 -> 5; 250 -> 9                              COMMENT
Original Marker Name: gill GilB_1986_USGS                   COMMENT
Campaign Name: USGS 2003                                    COMMENT
4-Character Station Name: GILL                              COMMENT
6-Character Antenna Code: DMRCHT                            COMMENT
Vertical Measurement Point: BCR                             COMMENT
Vertical Offset to Rinex Ref. Point: 0.0348                 COMMENT
Radial Measurement Point: ECF                               COMMENT
Radial Offset to Rinex Ref. Point: 0.1897                   COMMENT
Antenna Height from Field Measurement: 0.6280 m             COMMENT
Additional Antenna Identification Info.:                    COMMENT
Turborogue and Ashtech Choke Ring                           COMMENT
Original XYZ: -2623348.9751 -4455289.4863 3723528.6937      COMMENT
New XYZ position is based on association with SCEC monument COMMENT
E1F1N4G6+0011. Position of that monument is believed to be  COMMENT
valid to within 1 m horizontally; vertical accuracy         COMMENT
should be no worse than 3-times this value.                 COMMENT
                                                            COMMENT
Revised Rinex header created by UCSD GPS archive for        COMMENT
GSAC on 17-Jul-2003 (2003:198) 21:04:22 GMT                 COMMENT
For assistance contact dagnew@ucsd.edu                      COMMENT
or anderson@python.ucsd.edu                                 COMMENT
                                                            COMMENT
GILLB 1986                                                  MARKER NAME
JMS US GEOLOGICAL SURVEY                                    OBSERVER / AGENCY
ZE120023202 RECEIVER UNKNOWN ZC00                           REC # / TYPE / VERS
CR620022601 DORNE-MARGOL. TYPE T                            ANT # / TYPE
 -2623363.4300 -4455260.0376  3723516.0321                  APPROX POSITION XYZ
        0.5639        0.0000        0.0000                  ANTENNA: DELTA H/E/N
     1     1     0                                          WAVELENGTH FACT L1/2
     5    C1    L1    L2    P1    P2                        # / TYPES OF OBSERV
    30                                                      INTERVAL
  2003     4     6     0     0    0.000000                  TIME OF FIRST OBS
  2003     4     6    23    59   30.000000                  TIME OF LAST OBS
                                                            END OF HEADER
 03  4  6  0  0  0.0000000  0  8G14G 3G17G31G15G23G18G 9
  21938946.643   -16456280.44443 -12761977.40142  21938949.334    21938951.569
  21834453.121   -12646489.66343  -9812084.57842  21834455.143    21834455.975
  21698886.239   -16598052.32743 -12749269.68642  21698887.510    21698889.106
  23491771.016    -3883642.42243  -2751918.65642  23491773.567    23491776.572
  20233778.778   -25325043.71444 -19722171.91242  20233780.359    20233779.850
  21390954.597   -21889447.43243 -16675465.05942  21390956.193    21390956.136
  20756862.615   -27322950.61744 -21269781.69442  20756864.622    20756862.737
  23873249.342    -1777065.23143  -1376311.58242  23873251.872    23873256.094
 03  4  6  0  0 30.0000000  0  8G14G 3G17G31G15G23G18G 9
  21921633.339   -16547261.56843 -12832871.53942  21921636.095    21921637.899
  21828413.891   -12678226.54843  -9836814.56242  21828415.876    21828416.671
  21708925.112   -16545297.99343 -12708162.45942  21708926.422    21708927.950
  23477230.444    -3960054.64743  -2811460.53942  23477232.570    23477235.445
  20234277.056   -25322424.75944 -19720131.14842  20234278.675    20234278.181
  21399165.028   -21846301.13543 -16641844.56542  21399166.646    21399166.606
  20763524.701   -27287940.79644 -21242501.29742  20763526.759    20763524.924
  23864479.985    -1823148.67643  -1412220.57542  23864482.299    23864486.817
 03  4  6  0  1  0.0000000  0  8G14G 3G17G31G15G23G18G 9
  21904383.278   -16637910.27643 -12903506.64542  21904386.056    21904387.722
  21822475.680   -12709431.91043  -9861130.36442  21822477.722    21822478.513
  21719020.093   -16492248.79343 -12666825.46342  21719021.375    21719022.854
  23462764.461    -4036073.25343  -2870695.70542  23462766.428    23462769.704
  20234840.641   -25319462.69544 -19717823.02542  20234842.263    20234841.923
  21407400.786   -21803022.02443 -16608120.57942  21407402.429    21407402.297
  20770229.825   -27252705.04844 -21215044.84742  20770231.881    20770230.045
  23855787.652    -1868826.57643  -1447813.52542  23855790.064    23855794.390
 03  4  6  0  1 30.0000000  0  8G14G 3G17G31G15G23G18G 9
  21887201.119   -16728201.58043 -12973863.26642  21887203.953    21887205.669
  21816642.942   -12740082.14843  -9885013.59442  21816645.056    21816645.948
  21729175.435   -16438881.71843 -12625240.76942  21729176.661    21729178.199
  23448378.373    -4111673.25843  -2929604.70342  23448380.236    23448383.245
  20235474.111   -25316133.79844 -19715229.05442  20235475.664    20235475.412
  21415665.884   -21759588.63843 -16574276.37442  21415667.546    21415667.338
  20776982.122   -27217221.84244 -21187395.57742  20776984.159    20776982.243
  23847177.100    -1914073.67743  -1483070.83342  23847179.737    23847183.820
 03  4  6  0  2  0.0000000  0  8G14G 3G17G31G15G23G18G 9
  21870085.810   -16818142.57343 -13043946.92642  21870088.516    21870090.282
  21810914.248   -12770186.10443  -9908471.15542  21810916.312    21810917.180
  21739389.674   -16385205.57543 -12583415.22742  21739390.857    21739392.426
  23434070.399    -4186861.86743  -2988193.11242  23434072.394    23434075.275
  20236175.728   -25312446.67544 -19712355.94742  20236177.288    20236177.077
  21423958.252   -21716011.85343 -16540320.43442  21423959.960    21423959.638
  20783779.317   -27181502.02944 -21159561.94342  20783781.369    20783779.514
  23838647.732    -1958897.04143  -1517997.92642  23838650.322    23838653.957
 03  4  6  0  2 30.0000000  0  8G14G 3G17G31G15G23G18G 9
  21853038.182   -16907727.64243 -13113753.24942  21853040.928    21853042.578
  21805290.464   -12799739.26143  -9931499.55242  21805292.464    21805293.171
  21749663.524   -16331217.15743 -12541346.34842  21749664.678    21749666.184
  23419841.859    -4261633.28943  -3046456.45342  23419843.866    23419846.733
  20236946.411   -25308396.90844 -19709200.25842  20236947.945    20236947.658
  21432278.292   -21672289.44943 -16506251.01242  21432280.040    21432279.700
  20790621.944   -27145543.56344 -21131542.34342  20790623.982    20790622.152
  23830199.711    -2003290.34843  -1552589.98542  23830202.381    23830205.904
 03  4  6  0  3  0.0000000  0  8G14G 3G17G31G15G23G18G 9
  21836057.236   -16996962.49743 -13183286.68542  21836059.937    21836061.500
  21799770.198   -12828748.80143  -9954104.35142  21799772.198    21799772.748
  21759995.019   -16276924.95943 -12499040.76242  21759996.257    21759997.783
  23405691.800    -4335993.54443  -3104399.41542  23405693.657    23405696.225
  20237784.574   -25303992.10944 -19705767.92342  20237786.102    20237785.795
  21440624.382   -21628430.93443 -16472075.53542  21440626.082    21440625.611
  20797508.189   -27109355.97144 -21103344.20442  20797510.245    20797508.410
  23821832.414    -2047259.37543  -1586851.43142  23821834.872    23821838.796
 03  4  6  0  3 30.0000000  0  8G14G 3G17G31G15G23G18G 9
  21819144.134   -17085840.71243 -13252542.23142  21819146.832    21819148.294
  21794354.181   -12857209.54643  -9976281.50142  21794356.215    21794356.889
  21770385.073   -16222324.44543 -12456494.93542  21770386.381    21770387.983
  23391621.160    -4409936.07943  -3162016.88742  23391623.104    23391625.248
  20238691.295   -25299227.04244 -19702054.86142  20238692.843    20238692.538
  21448996.789   -21584433.51443 -16437791.82042  21448998.523    21448998.010
  20804438.653   -27072936.38944 -21074965.29742  20804440.712    20804438.797
  23813547.556    -2090797.37543  -1620776.98842  23813549.937    23813553.452
 03  4  6  0  4  0.0000000  0  8G14G 3G17G31G15G23G18G 9
  21802296.913   -17174372.93243 -13321528.16242  21802299.602    21802300.928
  21789040.374   -12885133.71143  -9998040.52342  21789042.360    21789043.106
  21780831.485   -16167428.34043 -12413718.77142  21780832.751    21780834.295
  23377627.622    -4483471.64143  -3219317.24942  23377629.634    23377631.886
  20239664.299   -25294113.88744 -19698070.56042  20239665.884    20239665.500
  21457392.972   -21540311.33343 -16403410.88542  21457394.674    21457394.234
  20811410.424   -27036299.12844 -21046416.76742  20811412.507    20811410.641
  23805342.483    -2133914.81743  -1654374.82242  23805345.116    23805348.246
 03  4  6  0  4 30.0000000  0  8G14G 3G17G31G15G23G18G 9
  21785523.852   -17262514.87143 -13390209.98642  21785526.591    21785527.776
  21783836.878   -12912478.61843 -10019348.19742  21783838.846    21783839.555
  21791342.140   -16112194.61143 -12370679.53242  21791343.479    21791344.883
  23363719.887    -4556555.95643  -3276265.95242  23363721.930    23363724.259
  20240711.617   -25288609.72244 -19693781.58042  20240713.202    20240712.919
  21465820.668   -21496023.57143 -16368900.92542  21465822.356    21465821.923
  20818431.485   -26999403.35844 -21017666.80942  20818433.557    20818431.676
  23797226.167    -2176566.85043  -1687609.99942  23797228.775    23797231.643
 03  4  6  0  5  0.0000000  0  8G14G 3G17G31G15G23G18G 9
  21768821.515   -17350285.04643 -13458602.13542  21768824.204    21768825.377
  21778739.697   -12939264.03943 -10040219.91342  21778741.651    21778742.374
  21801913.151   -16056643.98443 -12327393.37342  21801914.374    21801915.923
  23349894.552    -4629207.47243  -3332877.38442  23349896.579    23349899.092
  20241829.658   -25282734.32644 -19689203.32042  20241831.163    20241830.992
  21474275.663   -21451592.27543 -16334279.13442  21474277.294    21474276.902
  20825497.570   -26962271.11844 -20988732.58942  20825499.653    20825497.711
  23789194.476    -2218771.97743  -1720497.04842  23789196.903    23789200.197
 03  4  6  0  5 30.0000000  0  8G14G 3G17G31G15G23G18G 9
  21752184.779   -17437710.77643 -13526725.88042  21752187.429    21752188.556
  21773743.312   -12965518.97543 -10060678.25442  21773745.270    21773746.109
  21812538.700   -16000806.13843 -12283883.38842  21812540.026    21812541.722
  23336146.566    -4701453.66643  -3389172.98742  23336148.569    23336151.079
  20243012.891   -25276516.41444 -19684358.16442  20243014.430    20243014.219
  21482752.038   -21407048.42043 -16299569.62242  21482753.708    21482753.384
  20832602.594   -26924933.40144 -20959638.24842  20832604.713    20832602.766
  23781242.798    -2260557.35043  -1753056.95342  23781245.181    23781248.533
 03  4  6  0  6  0.0000000  0  8G14G 3G17G31G15G23G18G 9
  21735621.955   -17524748.18843 -13594547.04442  21735624.559    21735625.714
  21768856.021   -12991200.91343 -10080690.10642  21768857.944    21768858.904
  21823226.833   -15944639.70043 -12240117.36742  21823228.076    21823230.089
  23322483.969    -4773250.74743  -3445118.63742  23322485.926    23322488.623
  20244269.325   -25269913.46044 -19679212.98842  20244270.970    20244270.657
  21491257.589   -21362351.64243 -16264740.95442  21491259.265    21491258.923
  20839754.427   -26887349.85144 -20930352.35042  20839756.552    20839754.658
  23773379.442    -2301878.55343  -1785255.15442  23773381.922    23773385.093
 03  4  6  0  6 30.0000000  0  8G14G 3G17G31G15G23G18G 9
  21719127.381   -17611426.80843 -13662088.62442  21719129.960    21719131.144
  21764072.287   -13016340.91943 -10100279.67542  21764074.170    21764074.953
  21833971.474   -15888175.67143 -12196119.44942  21833972.696    21833974.876
  23308901.076    -4844628.16143  -3500737.26442  23308902.931    23308905.802
  20245593.196   -25262956.43244 -19673791.90342  20245594.856    20245594.495
  21499785.841   -21317534.80443 -16229818.73942  21499787.543    21499787.296
  20846946.825   -26849553.58244 -20900900.70942  20846948.901    20846947.053
  23765598.919    -2342765.04643  -1817114.62842  23765601.298    23765604.405
 03  4  6  0  7  0.0000000  0  8G14G 3G17G31G15G23G18G 9
  21702704.793   -17697727.32043 -13729335.58242  21702707.347    21702708.503
  21759394.871   -13040921.03143 -10119432.96642  21759396.853    21759397.508
  21844776.336   -15831396.66443 -12151876.12342  21844777.452    21844779.343
  23295401.912    -4915566.54643  -3556013.80242  23295403.759    23295406.348
  20246987.932   -25255627.17944 -19668080.77242  20246989.567    20246989.183
  21508340.064   -21272581.87643 -16194790.47542  21508341.776    21508341.533
  20854182.734   -26811528.58844 -20871270.83842  20854184.806    20854182.868
  23757905.047    -2383197.10643  -1848619.99842  23757907.515    23757910.150
 03  4  6  0  7 30.0000000  0  8G14G 3G17G31G15G23G18G 9
  21686354.076   -17783650.47843 -13796288.49042  21686356.688    21686357.610
  21754823.455   -13064943.76943 -10138151.93942  21754825.451    21754826.154
  21855640.345   -15774306.44943 -12107390.30842  21855641.471    21855643.292
  23281985.860    -4986066.90543  -3610949.02042  23281987.871    23281990.359
  20248452.940   -25247928.17044 -19662081.52042  20248454.616    20248454.181
  21516919.325   -21227497.46243 -16159659.75642  21516921.031    21516920.726
  20861461.340   -26773279.45744 -20841466.32242  20861463.367    20861461.464
  23750297.225    -2423175.78443  -1879772.08542  23750299.743    23750302.373
 03  4  6  0  8  0.0000000  0  8G14G 3G17G31G15G23G18G 9
  21670075.824   -17869192.66143 -13862944.54742  21670078.470    21670079.303
  21750358.355   -13088406.92943 -10156434.87542  21750360.447    21750361.285
  21866563.510   -15716903.78343 -12062660.99842  21866564.724    21866566.804
  23268653.960    -5056125.72843  -3665540.16842  23268655.980    23268658.485
  20249988.861   -25239857.04144 -19655792.31542  20249990.533    20249990.073
  21525523.649   -21182281.27943 -16124426.36142  21525525.359    21525524.979
  20868782.477   -26734806.31744 -20811487.24342  20868784.525    20868782.721
  23742776.533    -2462697.22143  -1910567.89742  23742779.033    23742781.880
 03  4  6  0  8 30.0000000  0  8G14G 3G17G31G15G23G18G 9
  21653866.389   -17954372.67543 -13929318.37842  21653869.092    21653869.860
  21745996.164   -13111330.66543 -10174297.49742  21745998.162    21745998.933
  21877542.611   -15659208.96743 -12017704.04042  21877543.775    21877545.965
  23255402.408    -5125761.69443  -3719801.79642  23255404.468    23255407.139
  20251591.700   -25231433.93944 -19649228.84142  20251593.368    20251592.878
  21534148.877   -21136955.47143 -16089107.54642  21534150.570    21534150.146
  20876142.082   -26696131.08044 -20781350.68542  20876144.098    20876142.400
  23735339.233    -2501779.87743  -1941021.77842  23735341.628    23735344.694
 03  4  6  0  9  0.0000000  0  8G14G 3G17G31G15G23G18G 9
  21637729.285   -18039173.14343 -13995396.46042  21637732.038    21637732.627
  21741739.553   -13133699.22743 -10191727.49442  21741741.559    21741742.307
  21888580.157   -15601206.64643 -11972507.47042  21888581.355    21888583.624
  23242234.862    -5194957.34243  -3773720.35342  23242236.971    23242239.508
  20253264.562   -25222642.89644 -19642378.64742  20253266.210    20253265.744
  21542797.678   -21091505.90843 -16053692.29842  21542799.343    21542798.856
  20883542.835   -26657239.54644 -20751045.58542  20883544.855    20883543.190
  23727988.584    -2540405.94743  -1971119.87642  23727991.088    23727994.246
 03  4  6  0  9 30.0000000  0  8G14G 3G17G31G15G23G18G 9
  21621664.829   -18123591.31043 -14061176.65642  21621667.597    21621668.340
  21737588.649   -13155511.66443 -10208724.16142  21737590.648    21737591.462
  21899676.161   -15542896.92843 -11927071.37242  21899677.416    21899679.686
  23229151.315    -5263710.11743  -3827293.79342  23229153.610    23229156.170
  20255007.688   -25213482.42744 -19635240.59942  20255009.348    20255008.918
  21551469.952   -21045933.32943 -16018181.20042  21551471.626    21551470.954
  20890984.715   -26618132.67644 -20720572.70442  20890986.664    20890984.882
  23720725.650    -2578572.61443  -2000859.99042  23720728.100    23720731.280
 03  4  6  0 10  0.0000000  0  8G14G 3G17G31G15G23G18G 9
  21605674.985   -18207617.99443 -14126651.79742  21605677.724    21605678.491
  21733545.221   -13176760.14343 -10225281.36642  21733547.181    21733548.093
  21910832.230   -15484272.55343 -11881390.10142  21910833.473    21910835.500
  23216154.393    -5332010.78743  -3880514.99142  23216156.584    23216158.795
  20256822.642   -25203944.78444 -19627808.64742  20256824.295    20256823.924
  21560166.579   -21000231.92343 -15982569.73242  21560168.270    21560167.672
  20898468.523   -26578804.62544 -20689927.46342  20898470.520    20898468.712
  23713551.908    -2616270.62243  -2030234.91442  23713554.375    23713557.417
 03  4  6  0 10 30.0000000  0  8G14G 3G17G31G15G23G18G 9
  21589762.727   -18291236.31643 -14191808.72242  21589765.509    21589766.308
  21729612.068   -13197429.32843 -10241387.18942  21729614.025    21729614.888
  21922050.560   -15425318.78243 -11835452.15242  21922051.949    21922053.889
  23203246.367    -5399842.58243  -3933370.83242  23203248.620    23203250.773
  20258712.418   -25194014.30544 -19620070.60342  20258714.084    20258713.591
  21568890.303   -20954388.16243 -15946847.32542  21568891.977    21568891.544
  20905997.045   -26539242.07744 -20659099.49342  20905999.005    20905997.219
  23706470.597    -2653482.82543  -2059231.31142  23706473.073    23706475.999
 03  4  6  0 11  0.0000000  0  8G14G 3G17G31G15G23G18G 9
  21573926.072   -18374457.43243 -14256656.15542  21573928.748    21573929.598
  21725786.603   -13217532.21443 -10257051.74042  21725788.561    21725789.268
  21933329.154   -15366048.82543 -11789267.81742  21933330.461    21933332.575
  23190425.602    -5467216.68543  -3985870.02642  23190427.725    23190429.836
  20260674.489   -25183703.52744 -19612036.21842  20260676.166    20260675.552
  21577638.311   -20908416.48543 -15911025.23142  21577640.008    21577639.633
  20913567.353   -26499459.43243 -20628100.02742  20913569.331    20913567.683
  23699479.482    -2690220.08143  -2087857.60442  23699482.010    23699485.189
 03  4  6  0 11 30.0000000  0  8G14G 3G17G31G15G23G18G 9
  21558163.318   -18457290.58243 -14321201.27542  21558165.973    21558166.612
  21722066.772   -13237079.56943 -10272283.42242  21722068.700    21722069.285
  21944666.056   -15306474.28043 -11742846.13842  21944667.263    21944669.336
  23177689.956    -5534142.47943  -4038019.92442  23177691.993    23177693.835
  20262706.822   -25173022.99644 -19603713.70442  20262708.512    20262708.006
  21586408.453   -20862329.54543 -15875113.32542  21586410.105    21586409.703
  20921177.278   -26459469.46544 -20596939.00242  20921179.221    20921177.532
  23692576.781    -2726491.75643  -2116121.15942  23692579.319    23692582.936
 03  4  6  0 12  0.0000000  0  8G14G 3G17G31G15G23G18G 9
  21542476.063   -18539727.18543 -14385437.39742  21542478.749    21542479.141
  21718453.906   -13256064.22143 -10287076.60642  21718455.842    21718456.624
  21956062.022   -15246588.71343 -11696182.11142  21956063.251    21956065.227
  23165041.366    -5600611.35943  -4089813.78242  23165043.310    23165045.129
  20264810.943   -25161965.63544 -19595097.55342  20264812.564    20264812.150
  21595201.473   -20816121.99743 -15839107.45042  21595203.123    21595202.735
  20928827.599   -26419266.87244 -20565612.30142  20928829.564    20928827.814
  23685764.731    -2762289.18643  -2144015.19242  23685766.950    23685770.745
 03  4  6  0 12 30.0000000  0  8G14G 3G17G31G15G23G18G 9
  21526860.575   -18621786.54243 -14449379.58042  21526863.240    21526863.604
  21714944.416   -13274507.13643 -10301447.64442  21714946.312    21714947.135
  21967512.868   -15186413.30943 -11649292.21742  21967514.238    21967516.245
  23152475.938    -5666642.52243  -4141266.51242  23152477.877    23152479.887
  20266982.933   -25150551.78744 -19586203.62542  20266984.533    20266984.040
  21604013.160   -20769816.13943 -15803024.96942  21604014.781    21604014.462
  20936514.021   -26378874.24044 -20534137.51742  20936515.985    20936514.315
  23679039.598    -2797631.06043  -2171554.20742  23679041.855    23679045.183
 03  4  6  0 13  0.0000000  0  8G14G 3G17G31G15G23G18G 9
  21511324.982   -18703425.99343 -14512994.56942  21511327.577    21511328.043
  21711545.769   -13292367.64343 -10315364.88042  21711547.675    21711548.376
  21979026.827   -15125907.95143 -11602145.23742  21979028.169    21979030.089
  23140001.587    -5732193.55143  -4192345.11942  23140003.616    23140005.894
  20269230.707   -25138740.13244 -19576999.73342  20269232.295    20269231.679
  21612850.896   -20723372.80743 -15766835.36142  21612852.534    21612852.393
  20944244.080   -26338252.37744 -20502484.11742  20944246.057    20944244.370
  23672409.125    -2832474.72943  -2198705.00242  23672411.411    23672414.405
 03  4  6  0 13 30.0000000  0  8G14G 3G17G31G15G23G18G 9
  21495862.799   -18784679.43443 -14576308.75242  21495865.353    21495865.891
  21708251.076   -13309681.13343 -10328855.86442  21708253.009    21708253.678
  21990596.395   -15065108.62143 -11554769.17342  21990597.856    21990599.852
  23127612.343    -5797298.20043  -4243075.91142  23127614.310    23127616.925
  20271547.342   -25126565.86944 -19567513.28742  20271548.934    20271548.380
  21621707.952   -20676828.99043 -15730567.45142  21621709.552    21621709.463
  20952010.779   -26297438.40144 -20470681.00842  20952012.761    20952010.934
  23665867.051    -2866854.05343  -2225493.99642  23665869.251    23665872.064
 03  4  6  0 14  0.0000000  0  8G14G 3G17G31G15G23G18G 9
  21480478.380   -18865523.93243 -14639304.28442  21480481.000    21480481.419
  21705064.505   -13326426.16743 -10341903.88742  21705066.485    21705067.114
  22002226.152   -15003994.40543 -11507147.76342  22002227.507    22002229.429
  23115312.331    -5861933.76843  -4293441.13742  23115314.280    23115317.151
  20273937.106   -25114007.59144 -19557727.59442  20273938.707    20273938.182
  21630587.774   -20630165.07443 -15694205.94842  21630589.402    21630589.282
  20959817.724   -26256412.81844 -20438713.01242  20959819.722    20959817.752
  23659417.557    -2900745.92743  -2251903.17742  23659419.764    23659422.395
 03  4  6  0 14 30.0000000  0  8G14G 3G17G31G15G23G18G 9
  21465172.606   -18945955.95643 -14701978.41142  21465175.166    21465175.470
  21701986.525   -13342600.80643 -10354507.44542  21701988.541    21701989.168
  22013916.066   -14942563.59643 -11459279.65542  22013917.421    22013919.261
  23103102.911    -5926096.61643  -4343438.07642  23103104.856    23103107.064
  20276400.455   -25101062.87944 -19547640.79142  20276402.033    20276401.496
  21639490.556   -20583380.66143 -15657750.55642  21639492.185    21639492.087
  20967664.914   -26215175.21344 -20406579.81042  20967666.933    20967665.081
  23653061.535    -2934146.70543  -2277929.67942  23653063.876    23653066.365
 03  4  6  0 15  0.0000000  0  8G14G 3G17G31G15G23G18G 9
  21449943.141   -19025987.07343 -14764340.14042  21449945.659    21449945.908
  21699014.602   -13358218.42543 -10366676.96542  21699016.652    21699017.204
  22025663.569   -14880830.26943 -11411175.82742  22025664.941    22025666.740
  23090980.906    -5989798.34243  -4393075.67842  23090982.973    23090984.610
  20278934.660   -25087744.76844 -19537263.02642  20278936.261    20278935.840
  21648413.476   -20536490.43943 -15621212.72042  21648415.081    21648414.964
  20975549.662   -26173740.52144 -20374293.02242  20975551.751    20975549.909
  23646796.730    -2967067.89043  -2303582.45742  23646799.109    23646801.547
 03  4  6  0 15 30.0000000  0  8G14G 3G17G31G15G23G18G 9
  21434789.125   -19105621.38843 -14826392.68542  21434791.645    21434791.924
  21696147.413   -13373285.15043 -10378417.21942  21696149.455    21696150.064
  22037467.511   -14818801.00243 -11362841.38242  22037468.815    22037470.590
  23078945.886    -6053043.43743  -4442357.45842  23078947.970    23078949.293
  20281539.056   -25074058.93244 -19526598.72042  20281540.568    20281540.142
  21657355.094   -20489501.91743 -15584598.28442  21657356.749    21657356.528
  20983470.528   -26132116.22844 -20341858.50842  20983472.584    20983470.716
  23640622.409    -2999513.52943  -2328864.73442  23640624.685    23640627.438
 03  4  6  0 16  0.0000000  0  8G14G 3G17G31G15G23G18G 9
  21419716.665   -19184826.91043 -14888111.10542  21419719.245    21419719.533
  21693390.889   -13387770.51343 -10389704.46142  21693392.915    21693393.565
  22049333.221   -14756445.49643 -11314252.71842  22049334.598    22049336.642
  23067003.421    -6115799.71143  -4491258.30242  23067005.559    23067007.146
  20284219.251   -25059974.32444 -19515623.69042  20284220.791    20284220.327
  21666320.887   -20442385.92743 -15547884.52642  21666322.541    21666322.443
  20991432.977   -26090273.19444 -20309253.54242  20991435.053    20991433.136
  23634544.672    -3031451.38043  -2353751.28042  23634547.035    23634549.644
 03  4  6  0 16 30.0000000  0  8G14G 3G17G31G15G23G18G 9
  21404725.056   -19263607.87943 -14949498.71242  21404727.660    21404727.834
  21690743.763   -13401680.30043 -10400543.19342  21690745.790    21690746.537
  22061260.053   -14693770.21143 -11265414.88142  22061261.326    22061263.464
  23055153.335    -6178071.30143  -4539781.46242  23055155.536    23055157.252
  20286974.294   -25045496.41844 -19504342.18342  20286975.811    20286975.363
  21675309.689   -20395149.76143 -15511077.11842  21675311.323    21675311.241
  20999435.619   -26048218.89844 -20276483.96342  20999437.656    20999435.845
  23628563.174    -3062885.35543  -2378245.14642  23628565.490    23628567.538
 03  4  6  0 17  0.0000000  0  8G14G 3G17G31G15G23G18G 9
  21389814.958   -19341960.45843 -15010552.51342  21389817.540    21389817.628
  21688206.681   -13415012.56643 -10410931.89842  21688208.693    21688209.434
  22073248.200   -14630773.67843 -11216326.75742  22073249.392    22073251.152
  23043396.149    -6239854.50243  -4587924.03042  23043398.349    23043399.990
  20289804.661   -25030622.54344 -19492752.13142  20289806.213    20289805.712
  21684321.470   -20347792.76343 -15474175.55342  21684323.097    21684322.999
  21007478.486   -26005953.09844 -20243549.56042  21007480.558    21007478.804
  23622678.029    -3093811.68043  -2402343.48042  23622680.442    23622682.306
 03  4  6  0 17 30.0000000  0  8G14G 3G17G31G15G23G18G 9
  21374985.397   -19419888.97643 -15071275.86142  21374988.017    21374988.100
  21685778.524   -13427773.04443 -10420875.08342  21685780.520    21685781.116
  22085295.866   -14567461.84643 -11166992.93042  22085297.128    22085299.009
  23031731.250    -6301153.70443  -4635689.49842  23031733.389    23031735.074
  20292709.446   -25015358.13444 -19480857.77042  20292710.975    20292710.288
  21693354.768   -20300322.25443 -15437185.52442  21693356.414    21693356.410
  21015560.304   -25963482.81144 -20210455.82042  21015562.378    21015560.579
  23616888.731    -3124234.43343  -2426049.43442  23616891.174    23616893.192
 03  4  6  0 18  0.0000000  0  8G14G 3G17G31G15G23G18G 9
  21360232.130   -19497417.60243 -15131687.60742  21360234.708    21360234.654
  21683454.105   -13439988.03443 -10430393.20442  21683456.141    21683456.663
  22097398.646   -14503861.04743 -11117433.91642  22097399.858    22097401.929
  23020153.733    -6361993.24943  -4683096.76642  23020155.803    23020157.665
  20295683.629   -24999728.82844 -19468679.08042  20295685.168    20295684.405
  21702404.586   -20252765.46343 -15400128.28142  21702406.241    21702406.053
  21023675.848   -25920835.50344 -20177224.13542  21023677.888    21023676.115
  23611190.268    -3154177.99243  -2449381.98042  23611192.689    23611195.244
 03  4  6  0 18 30.0000000  0  8G14G 3G17G31G15G23G18G 9
  21345561.490   -19574511.62943 -15191760.71942  21345564.103    21345563.980
  21681239.559   -13451624.46143 -10439460.50542  21681241.606    21681242.176
  22109562.734   -14439939.01543 -11067624.59042  22109563.880    22109566.027
  23008670.256    -6422338.60443  -4730118.99542  23008672.303    23008674.070
  20298733.480   -24983701.27144 -19456190.05042  20298735.090    20298734.352
  21711476.707   -20205090.82143 -15362979.20242  21711478.375    21711478.069
  21031831.020   -25877979.74244 -20143830.01642  21031833.067    21031831.254
  23605589.645    -3183607.86543  -2472314.22842  23605592.022    23605594.965
 03  4  6  0 19  0.0000000  0  8G14G 3G17G31G15G23G18G 9
  21330969.336   -19651193.62043 -15251512.76442  21330971.924    21330971.767
  21679130.738   -13462706.45343 -10448095.78642  21679132.697    21679133.154
  22121783.097   -14375720.27543 -11017584.07242  22121784.251    22121786.519
  22997276.764    -6482212.12243  -4776773.52942  22997278.918    22997280.439
  20301854.688   -24967299.02144 -19443409.05742  20301856.346    20301855.653
  21720566.503   -20157323.78643 -15325758.12242  21720568.189    21720567.844
  21040020.997   -25834941.23544 -20110293.51242  21040023.004    21040021.222
  23600082.854    -3212546.26843  -2494863.49242  23600085.158    23600087.965
 03  4  6  0 19 30.0000000  0  8G14G 3G17G31G15G23G18G 9
  21316456.626   -19727457.56743 -15310939.06442  21316459.231    21316459.084
  21677128.114   -13473230.13843 -10456296.00242  21677130.114    21677130.616
  22134060.927   -14311200.86843 -10967309.26042  22134062.005    22134064.312
  22985973.993    -6541608.06743  -4823055.93442  22985976.224    22985977.495
  20305048.165   -24950517.53244 -19430332.55242  20305049.754    20305049.121
  21729674.533   -20109461.40343 -15288462.75542  21729676.170    21729675.723
  21048246.301   -25791716.96444 -20076612.24942  21048248.310    21048246.592
  23594670.733    -3240987.08943  -2517025.03242  23594673.103    23594675.608
 03  4  6  0 20  0.0000000  0  8G14G 3G17G31G15G23G18G 9
  21302028.428   -19803277.88143 -15370019.67442  21302030.985    21302030.839
  21675236.303   -13483171.32743 -10464042.32742  21675238.293    21675238.861
  22146400.384   -14246357.19943 -10916781.78842  22146401.619    22146403.679
  22974767.015    -6600500.64243  -4868946.15142  22974769.154    22974770.470
  20308318.265   -24933332.43144 -19416941.53942  20308319.903    20308319.286
  21738804.950   -20061480.75743 -15251075.22842  21738806.634    21738805.993
  21056511.340   -25748284.32844 -20042768.62142  21056513.335    21056511.512
  23589358.091    -3268904.56843  -2538778.80442  23589360.430    23589363.063
 03  4  6  0 20 30.0000000  0  8G14G 3G17G31G15G23G18G 9
  21287681.359   -19878671.77943 -15428768.01342  21287683.906    21287683.780
  21673451.704   -13492549.21643 -10471349.73742  21673453.701    21673454.141
  22158797.452   -14181209.08743 -10866017.07942  22158798.837    22158800.981
  22963652.543    -6658907.36143  -4914457.75942  22963654.706    22963656.144
  20311661.745   -24915762.43444 -19403250.63042  20311663.348    20311662.741
  21747954.020   -20013402.12343 -15213611.34942  21747955.674    21747955.054
  21064812.147   -25704663.72244 -20008778.52342  21064814.126    21064812.210
  23584141.801    -3296315.99843  -2560138.20942  23584144.122    23584146.846
 03  4  6  0 21  0.0000000  0  8G14G 3G17G31G15G23G18G 9
  21273416.608   -19953633.11443 -15487179.30542  21273419.141    21273419.024
  21671775.347   -13501359.40043 -10478214.79042  21671777.257    21671777.521
  22171253.763   -14115751.93043 -10815011.56842  22171254.897    22171257.199
  22952631.720    -6716822.07643  -4959585.99842  22952633.897    22952635.218
  20315079.436   -24897802.39344 -19389255.77742  20315080.998    20315080.410
  21757122.254   -19965222.24643 -15176068.57342  21757123.974    21757123.351
  21073149.189   -25660851.97944 -19974639.49042  21073151.188    21073149.344
  23579023.259    -3323215.14543  -2581098.45242  23579025.420    23579028.106
 03  4  6  0 21 30.0000000  0  8G14G 3G17G31G15G23G18G 9
  21259235.444   -20028154.64843 -15545247.89942  21259238.017    21259237.807
  21670207.875   -13509596.71643 -10484633.43542  21670209.800    21670210.036
  22183769.620   -14049981.05543 -10763761.56842  22183770.795    22183773.036
  22941705.500    -6774237.74343  -5004325.36842  22941707.748    22941709.148
  20318572.516   -24879446.11644 -19374952.16542  20318574.089    20318573.438
  21766310.659   -19916936.80743 -15138443.55742  21766312.361    21766311.702
  21081523.476   -25616844.82244 -19940348.19442  21081525.444    21081523.570
  23574002.995    -3349594.87543  -2601653.97342  23574005.248    23574008.101
 03  4  6  0 22  0.0000000  0  8G14G 3G17G31G15G23G18G 9
  21245137.288   -20102240.51443 -15602977.00542  21245139.823    21245139.393
  21668748.245   -13517266.90743 -10490610.17842  21668750.244    21668750.465
  22196343.910   -13983902.69343 -10712271.99042  22196345.159    22196347.309
  22930873.810    -6831158.30043  -5048678.95442  22930875.981    22930877.442
  20322139.867   -24860699.16944 -19360344.14842  20322141.445    20322140.854
  21775517.800   -19868552.80143 -15100741.71542  21775519.552    21775518.874
  21089933.556   -25572649.28944 -19905910.10542  21089935.595    21089933.741
  23569081.024    -3375459.26343  -2621807.89142  23569083.310    23569085.867
 03  4  6  0 22 30.0000000  0  8G14G 3G17G31G15G23G18G 9
  21231121.625   -20175892.73044 -15660368.21142  21231124.202    21231123.701
  21667395.804   -13524373.71943 -10496147.92342  21667397.827    21667398.056
  22208976.154   -13917520.40843 -10660545.58542  22208977.546    22208979.564
  22920135.832    -6887585.99143  -5092648.48742  22920137.940    22920139.362
  20325781.078   -24841564.72644 -19345434.17942  20325782.598    20325782.003
  21784742.836   -19820074.91643 -15062966.73342  21784744.578    21784743.971
  21098378.434   -25528270.65844 -19871329.34042  21098380.522    21098378.694
  23564257.099    -3400809.98643  -2641561.54342  23564259.403    23564261.392
 03  4  6  0 23  0.0000000  0  8G14G 3G17G31G15G23G18G 9
  21217190.518   -20249100.88643 -15717413.39042  21217193.094    21217192.676
  21666152.300   -13530908.55743 -10501239.99142  21666154.272    21666154.431
  22221667.751   -13850826.08243 -10608576.03442  22221669.120    22221671.198
  22909493.887    -6943510.36243  -5136225.84542  22909495.869    22909497.248
  20329497.639   -24822033.65344 -19330215.14242  20329499.208    20329498.680
  21793987.128   -19771495.65243 -15025112.74542  21793988.894    21793988.373
  21106859.727   -25483701.24344 -19836599.90742  21106861.796    21106859.923
  23559532.497    -3425636.79743  -2660906.95142  23559535.089    23559536.845
 03  4  6  0 23 30.0000000  0  8G14G 3G17G31G15G23G18G 9
  21203345.390   -20321857.50344 -15774106.72342  21203347.928    21203347.378
  21665018.462   -13536866.06643 -10505882.19542  21665020.473    21665020.775
  22234419.611   -13783814.34543 -10556359.16642  22234420.967    22234423.107
  22898948.896    -6998924.19443  -5179405.35442  22898950.930    22898952.379
  20333290.919   -24802099.68544 -19314682.17342  20333292.513    20333291.970
  21803251.601   -19722810.41543 -14987176.19442  21803253.325    21803252.843
  21115378.094   -25438936.46543 -19801718.24542  21115380.190    21115378.410
  23554908.758    -3449932.18043  -2679838.30442  23554911.230    23554913.505
 03  4  6  0 24  0.0000000  0  8G14G 3G17G31G15G23G18G 9
  21189583.839   -20394174.08443 -15830457.17942  21189586.402    21189585.873
  21663992.065   -13542259.58543 -10510084.92542  21663994.046    21663994.336
  22247229.309   -13716498.74343 -10503905.48642  22247230.590    22247232.763
  22888499.030    -7053838.92543  -5222195.98942  22888501.064    22888502.309
  20337158.534   -24781775.56144 -19298845.19342  20337160.086    20337159.435
  21812533.458   -19674033.41243 -14949168.12842  21812535.173    21812534.764
  21123930.945   -25393991.01144 -19766695.81542  21123932.981    21123931.325
  23550384.364    -3473707.95543  -2698364.72642  23550386.807    23550388.938
 03  4  6  0 24 30.0000000  0  8G14G 3G17G31G15G23G18G 9
  21175906.048   -20466050.67443 -15886464.77042  21175908.646    21175908.020
  21663072.651   -13547090.89843 -10513849.57442  21663074.670    21663074.866
  22260096.528   -13648881.42443 -10451216.73642  22260097.711    22260099.987
  22878144.026    -7108254.76843  -5264597.84742  22878146.068    22878147.306
  20341100.095   -24761062.32944 -19282705.01342  20341101.698    20341101.053
  21821832.348   -19625167.26143 -14911090.60142  21821834.049    21821833.699
  21132517.671   -25348867.48744 -19731534.62242  21132519.683    21132518.022
  23545958.844    -3496963.85743  -2716486.09042  23545961.109    23545963.442
 03  4  6  0 25  0.0000000  0  8G14G 3G17G31G15G23G18G 9
  21162313.316   -20537480.39544 -15942124.15842  21162315.956    21162315.193
  21662261.326   -13551354.87843 -10517172.14542  21662263.267    21662263.483
  22273022.082   -13580957.56943 -10398289.10342  22273023.309    22273025.660
  22867885.306    -7162164.70643  -5306605.50242  22867887.332    22867888.541
  20345116.886   -24739954.05144 -19266257.00142  20345118.467    20345117.816
  21831149.050   -19576207.94843 -14872940.48242  21831150.685    21831150.349
  21141138.973   -25303562.10043 -19696231.71542  21141141.008    21141139.251
  23541633.497    -3519693.07143  -2734197.01142  23541635.743    23541638.105
 03  4  6  0 25 30.0000000  0  8G14G 3G17G31G15G23G18G 9
  21148809.263   -20608444.45243 -15997420.68442  21148811.870    21148811.018
  21661561.084   -13555034.84843 -10520039.63742  21661563.010    21661563.276
  22286009.308   -13512710.36443 -10345109.53742  22286010.397    22286012.570
  22857726.186    -7215550.22443  -5348204.50842  22857728.246    22857729.417
  20349212.166   -24718433.27944 -19249487.56242  20349213.771    20349213.048
  21840486.637   -19527139.25443 -14834705.13242  21840488.239    21840487.725
  21149798.010   -25258058.68844 -19660774.51242  21149800.032    21149798.099
  23537412.240    -3541876.64943  -2751482.85442  23537414.361    23537416.621
 03  4  6  0 26  0.0000000  0  8G14G 3G17G31G15G23G18G 9
  21135386.068   -20678983.10243 -16052385.73742  21135388.606    21135387.903
  21660963.790   -13558172.91643 -10522484.84642  21660965.739    21660966.263
  22299049.725   -13444182.12643 -10291710.96542  22299050.821    22299053.111
  22847659.304    -7268451.66043  -5389426.29342  22847661.380    22847662.450
  20353378.013   -24696541.64944 -19232429.13442  20353379.614    20353378.910
  21849836.709   -19478004.32343 -14796418.17842  21849838.269    21849837.836
  21158486.433   -25212400.57043 -19625196.75542  21158488.442    21158486.449
  23533286.899    -3563555.27643  -2768375.18142  23533289.139    23533291.084
 03  4  6  0 26 30.0000000  0  8G14G 3G17G31G15G23G18G 9
  21122052.028   -20749053.15543 -16106985.64842  21122054.544    21122053.970
  21660477.743   -13560727.67343 -10524475.54842  21660479.625    21660480.151
  22312151.426   -13375331.56043 -10238061.21642  22312152.558    22312155.073
  22837692.646    -7320825.79443  -5430237.17842  22837694.803    22837695.766
  20357622.433   -24674236.95444 -19215048.84242  20357624.027    20357623.342
  21859207.089   -19428762.53743 -14758047.95242  21859208.684    21859208.276
  21167211.946   -25166547.31843 -19589466.94942  21167213.973    21167212.084
  23529265.881    -3584685.64243  -2784840.28942  23529268.132    23529269.913
 03  4  6  0 27  0.0000000  0  8G14G 3G17G31G15G23G18G 9
  21108804.223   -20818670.36644 -16161232.69242  21108806.749    21108806.123
  21660099.212   -13562716.64343 -10526025.37142  21660101.106    21660101.635
  22325311.258   -13306176.43943 -10184174.16642  22325312.342    22325314.972
  22827823.542    -7372688.50543  -5470649.60142  22827825.572    22827826.431
  20361942.306   -24651535.93844 -19197359.73342  20361943.932    20361943.213
  21868594.367   -19379432.07243 -14719608.64242  21868595.932    21868595.564
  21175971.191   -25120517.41443 -19553599.50142  21175973.137    21175971.264
  23525345.998    -3605283.29643  -2800890.34942  23525348.153    23525350.384
 03  4  6  0 27 30.0000000  0  8G14G 3G17G31G15G23G18G 9
  21095644.866   -20887822.68843 -16215117.49142  21095647.368    21095646.660
  21659830.251   -13564130.14543 -10527126.78142  21659832.134    21659832.481
  22338531.075   -13236706.87643 -10130042.09442  22338532.252    22338534.664
  22818053.896    -7424027.92043  -5510654.21742  22818055.978    22818056.894
  20366339.549   -24628428.31444 -19179353.77442  20366341.209    20366340.489
  21878000.411   -19330003.79643 -14681093.11042  21878001.914    21878001.513
  21184765.739   -25074301.51044 -19517587.10842  21184767.703    21184765.868
  23521529.995    -3625336.48243  -2816516.09542  23521532.250    23521534.596
 03  4  6  0 28  0.0000000  0  8G14G 3G17G31G15G23G18G 9
  21082569.086   -20956535.67143 -16268659.93842  21082571.574    21082570.897
  21659665.511   -13564995.63643 -10527801.16342  21659667.440    21659667.643
  22351805.222   -13166950.44743 -10075686.49542  22351806.540    22351808.850
  22808378.928    -7474869.53343  -5550270.94542  22808381.038    22808381.742
  20370809.101   -24604940.41844 -19161051.50442  20370810.773    20370810.019
  21887419.518   -19280505.57843 -14642523.07142  21887421.127    21887420.797
  21193590.374   -25027927.98244 -19481451.89142  21193592.341    21193590.539
  23517812.971    -3644870.69243  -2831737.44542  23517815.289    23517817.383
 03  4  6  0 28 30.0000000  0  8G14G 3G17G31G15G23G18G 9
  21069585.132   -21024766.24643 -16321826.48842  21069587.648    21069586.961
  21659612.853   -13565271.85043 -10528016.36742  21659614.808    21659615.076
  22365141.547   -13096866.21843 -10021075.43042  22365142.961    22365145.340
  22798806.921    -7525170.58143  -5589466.47542  22798809.056    22798809.706
  20375359.007   -24581030.25744 -19142420.19242  20375360.662    20375359.964
  21896859.725   -19230897.02043 -14603867.06242  21896861.301    21896861.010
  21202452.599   -24981356.69744 -19445162.58142  21202454.573    21202452.784
  23514202.481    -3663842.85443  -2846520.85242  23514204.861    23514206.865
 03  4  6  0 29  0.0000000  0  8G14G 3G17G31G15G23G18G 9
  21056688.761   -21092536.87544 -16374634.63542  21056691.249    21056690.510
  21659667.945   -13564982.84043 -10527791.13442  21659669.879    21659670.031
  22378536.330   -13026478.13643  -9966227.64742  22378537.488    22378539.656
  22789333.348    -7574953.37443  -5628258.11742  22789335.567    22789336.552
  20379984.871   -24556721.33544 -19123478.15942  20379986.491    20379985.717
  21906316.219   -19181202.99243 -14565144.44742  21906317.756    21906317.569
  21211347.751   -24934612.51943 -19408738.54642  21211349.716    21211347.923
  23510694.744    -3682275.53943  -2860883.85842  23510697.037    23510699.136
 03  4  6  0 29 30.0000000  0  8G14G 3G17G31G15G23G18G 9
  21043878.019   -21159857.48044 -16427092.11442  21043880.560    21043879.704
  21659828.133   -13564140.73743 -10527134.92142  21659830.065    21659830.217
  22391986.200   -12955798.71343  -9911152.82642  22391987.446    22391989.572
  22779956.394    -7624228.16643  -5666653.89342  22779958.585    22779959.885
  20384684.436   -24532024.72144 -19104234.03142  20384686.046    20384685.281
  21915786.617   -19131435.93943 -14526364.93042  21915788.161    21915787.931
  21220273.369   -24887708.08144 -19372189.62742  21220275.367    21220273.481
  23507287.874    -3700178.87043  -2874834.40442  23507290.208    23507292.177
 03  4  6  0 30  0.0000000  0  8G14G 3G17G31G15G23G18G 9
  21031155.822   -21226712.22343 -16479186.59842  21031158.371    21031157.527
  21660096.176   -13562731.75043 -10526036.96742  21660098.112    21660098.301
  22405494.087   -12884814.07843  -9855840.17842  22405495.432    22405497.374
  22770679.335    -7672979.09143  -5704641.50642  22770681.441    22770682.897
  20389460.719   -24506925.80644 -19084676.43042  20389462.266    20389461.331
  21925273.441   -19081582.48443 -14487518.09642  21925274.987    21925274.659
  21229231.968   -24840630.18644 -19335505.55142  21229233.994    21229232.043
  23503984.794    -3717537.21743  -2888360.25942  23503987.047    23503988.822
 03  4  6  0 30 30.0000000  0  8G14G 3G17G31G15G23G18G 9
  21018522.629   -21293099.16544 -16530916.56342  21018525.077    21018524.407
  21660472.167   -13560755.74543 -10524497.19142  21660474.100    21660474.246
  22419060.187   -12813524.08443  -9800289.60642  22419061.492    22419063.474
  22761502.303    -7721204.21043  -5742219.39842  22761504.431    22761505.727
  20394313.503   -24481423.62144 -19064804.58342  20394315.133    20394314.147
  21934776.521   -19031643.16043 -14448604.34442  21934778.100    21934777.711
  21238223.548   -24793379.21644 -19298686.60642  21238225.561    21238223.573
  23500785.433    -3734348.35743  -2901459.72542  23500787.896    23500789.444
 03  4  6  0 31  0.0000000  0  8G14G 3G17G31G15G23G18G 9
  21005979.369   -21359014.29044 -16582278.87242  21005981.825    21005981.095
  21660956.411   -13558210.78743 -10522514.07542  21660958.387    21660958.464
  22432684.714   -12741926.81443  -9744499.60542  22432685.938    22432688.054
  22752426.186    -7768899.83043  -5779384.74442  22752428.264    22752429.498
  20399243.674   -24455515.33444 -19044616.28942  20399245.257    20399244.353
  21944296.263   -18981616.43743 -14409622.50242  21944297.819    21944297.354
  21247248.283   -24745954.08544 -19261731.96042  21247250.292    21247248.240
  23497690.951    -3750608.69843  -2914130.02842  23497693.360    23497695.011
 03  4  6  0 31 30.0000000  0  8G14G 3G17G31G15G23G18G 9
  20993525.018   -21424461.74844 -16633276.76242  20993527.495    20993526.650
  21661547.679   -13555102.98443 -10520092.38942  21661549.630    21661549.856
  22446366.663   -12670028.42643  -9688474.96242  22446367.852    22446369.881
  22743449.946    -7816070.17843  -5816140.75842  22743452.077    22743453.315
  20404250.195   -24429206.30544 -19024115.73642  20404251.779    20404250.798
  21953831.384   -18931508.86643 -14370577.64142  21953832.958    21953832.532
  21256304.845   -24698361.58144 -19224646.89542  21256306.808    21256304.871
  23494700.583    -3766322.57143  -2926374.50342  23494703.003    23494705.039
 03  4  6  0 32  0.0000000  0  8G14G 3G17G31G15G23G18G 9
  20981162.361   -21489427.45444 -16683899.26042  20981164.856    20981163.874
  21662248.573   -13551420.02843 -10517222.52642  21662250.441    21662250.732
  22460108.233   -12597816.22843  -9632205.80242  22460109.507    22460111.641
  22734576.249    -7862701.06843  -5852476.43042  22734578.385    22734579.630
  20409335.304   -24402483.30044 -19003292.61442  20409336.920    20409336.008
  21963384.185   -18881308.37743 -14331460.37942  21963385.775    21963385.447
  21265395.432   -24650589.86243 -19187422.16642  21265397.434    21265395.661
  23491817.039    -3781475.50543  -2938181.90842  23491819.469    23491821.691
 03  4  6  0 32 30.0000000  0  8G14G 3G17G31G15G23G18G 9
  20968888.302   -21553927.68544 -16734159.06442  20968890.797    20968889.711
  21663055.452   -13547180.40443 -10513918.90442  21663057.270    21663057.455
  22473906.111   -12525308.85943  -9575706.62342  22473907.388    22473909.484
  22725802.083    -7908809.06243  -5888404.67642  22725804.153    22725805.573
  20414495.949   -24375363.89444 -18982160.60442  20414497.561    20414496.676
  21972950.979   -18831034.11243 -14292285.60242  21972952.560    21972952.382
  21274516.574   -24602658.19344 -19150072.79642  21274518.546    21274516.696
  23489037.151    -3796084.36843  -2949565.33342  23489039.699    23489041.338
 03  4  6  0 33  0.0000000  0  8G14G 3G17G31G15G23G18G 9
  20956700.843   -21617972.71644 -16784064.16842  20956703.344    20956702.196
  21663965.742   -13542396.41243 -10510191.08342  21663967.674    21663967.655
  22487757.679   -12452518.63243  -9518987.04542  22487758.892    22487761.128
  22717125.612    -7954404.36143  -5923933.38942  22717127.633    22717128.726
  20419729.838   -24347859.33444 -18960728.46442  20419731.485    20419730.649
  21982529.597   -18780698.34843 -14253062.92342  21982531.128    21982530.967
  21283665.761   -24554578.99444 -19112608.46942  21283667.782    21283665.861
  23486358.446    -3810159.27443  -2960532.71042  23486361.014    23486362.720
 03  4  6  0 33 30.0000000  0  8G14G 3G17G31G15G23G18G 9
  20944607.694   -21681521.95343 -16833582.94242  20944610.213    20944609.020
  21664986.980   -13537029.65443 -10506009.16042  21664988.894    21664988.913
  22501670.333   -12379406.83243  -9462016.88642  22501671.608    22501674.006
  22708554.334    -7999446.73843  -5959031.29342  22708556.345    22708557.081
  20425044.558   -24319930.07944 -18938965.39442  20425046.162    20425045.351
  21992127.162   -18730262.98343 -14213762.62642  21992128.715    21992128.471
  21292850.290   -24506314.13644 -19074999.47542  21292852.282    21292850.351
  23483789.240    -3823659.66043  -2971052.42342  23483791.614    23483793.498
 03  4  6  0 34  0.0000000  0  8G14G 3G17G31G15G23G18G 9
  20932610.280   -21744568.49943 -16882710.01842  20932612.711    20932611.596
  21666120.034   -13531075.14943 -10501369.27342  21666121.912    21666122.050
  22515645.271   -12305968.44243  -9404792.22442  22515646.472    22515649.047
  22700089.462    -8043929.33043  -5993692.98142  22700091.472    22700092.051
  20430441.301   -24291570.30444 -18916866.85642  20430442.867    20430442.027
  22001744.551   -18679723.31743 -14174381.05642  22001746.153    22001745.820
  21302070.846   -24457859.59244 -19037242.67242  21302072.834    21302070.912
  23481330.815    -3836578.98543  -2981119.31642  23481333.151    23481334.727
 03  4  6  0 34 30.0000000  0  8G14G 3G17G31G15G23G18G 9
  20920700.704   -21807153.46544 -16931477.41442  20920703.117    20920702.001
  21667356.814   -13524575.77743 -10496304.81842  21667358.685    21667358.922
  22529674.369   -12232246.49443  -9347346.63242  22529675.472    22529677.865
  22691723.321    -8087893.31243  -6027950.53642  22691725.271    22691725.962
  20435911.815   -24262822.15544 -18894465.68842  20435913.435    20435912.648
  22011373.633   -18629122.48443 -14134951.82642  22011375.175    22011374.807
  21311319.350   -24409258.55244 -18999371.72342  21311321.338    21311319.363
  23478975.026    -3848958.38043  -2990765.48442  23478977.439    23478978.838
 03  4  6  0 35  0.0000000  0  8G14G 3G17G31G15G23G18G 9
  20908881.396   -21869263.90643 -16979875.04842  20908883.878    20908882.736
  21668699.358   -13517520.78043 -10490807.40242  21668701.240    21668701.505
  22543759.402   -12158229.67243  -9289671.28542  22543760.566    22543762.774
  22683458.432    -8131325.77343  -6061793.93142  22683460.377    22683461.174
  20441458.547   -24233673.75944 -18871752.64642  20441460.158    20441459.501
  22021016.383   -18578449.92643 -14095466.71142  22021017.955    22021017.425
  21320597.612   -24360500.73543 -18961378.60842  21320599.638    21320597.600
  23476724.423    -3860785.32443  -2999981.18542  23476726.784    23476728.209
 03  4  6  0 35 30.0000000  0  8G14G 3G17G31G15G23G18G 9
  20897150.782   -21930908.12644 -17027909.38342  20897153.306    20897152.112
  21670145.597   -13509920.41643 -10484885.02342  21670147.480    21670147.804
  22557898.306   -12083928.69543  -9231774.49042  22557899.686    22557901.955
  22675292.977    -8174235.34043  -6095229.87042  22675294.988    22675295.670
  20447079.800   -24204134.43744 -18848734.98342  20447081.397    20447080.675
  22030670.670   -18527716.18943 -14055933.92042  22030672.259    22030671.638
  21329903.730   -24311596.63043 -18923271.49642  21329905.785    21329903.733
  23474577.487    -3872068.13343  -3008772.90942  23474579.865    23474581.235
 03  4  6  0 36  0.0000000  0  8G14G 3G17G31G15G23G18G 9
  20885513.257   -21992063.55844 -17075562.85642  20885515.763    20885514.481
  21671699.474   -13501754.14643 -10478521.66242  21671701.420    21671701.782
  22572095.421   -12009322.54343  -9173639.89442  22572096.832    22572099.286
  22667231.245    -8216599.38043  -6128240.70442  22667233.251    22667234.125
  20452779.439   -24174182.62944 -18825395.89742  20452781.065    20452780.290
  22040340.548   -18476900.78943 -14016337.50642  22040342.090    22040341.581
  21339241.412   -24262526.14543 -18885034.73442  21339243.504    21339241.597
  23472538.188    -3882784.36443  -3017123.13642  23472540.596    23472542.109
 03  4  6  0 36 30.0000000  0  8G14G 3G17G31G15G23G18G 9
  20873969.475   -22052726.26644 -17122832.39642  20873971.979    20873970.753
  21673361.541   -13493020.04143 -10471715.85042  21673363.483    21673363.801
  22586350.961   -11934409.23343  -9115265.96642  22586352.296    22586354.866
  22659274.120    -8258414.19643  -6160823.56842  22659276.092    22659276.891
  20458558.047   -24143815.47544 -18801733.16642  20458559.709    20458558.934
  22050026.091   -18426002.03643 -13976676.13142  22050027.697    22050027.411
  21348611.244   -24213287.35344 -18846666.82642  21348613.325    21348611.465
  23470607.449    -3892930.19143  -3025028.91342  23470609.893    23470611.094
 03  4  6  0 37  0.0000000  0  8G14G 3G17G31G15G23G18G 9
  20862518.197   -22112902.61644 -17169722.96142  20862520.675    20862519.534
  21675129.936   -13483726.71543 -10464474.28642  21675131.872    21675132.278
  22600663.321   -11859196.65043  -9056658.84842  22600664.615    22600667.230
  22651420.251    -8299686.15443  -6192983.45342  22651422.252    22651422.832
  20464414.418   -24113040.11444 -18777752.35742  20464416.060    20464415.181
  22059726.127   -18375028.32343 -13936956.34642  22059727.685    22059727.426
  21358011.413   -24163889.04843 -18808174.62742  21358013.526    21358011.664
  23468783.903    -3902512.23543  -3032495.32342  23468786.487    23468787.553
 03  4  6  0 37 30.0000000  0  8G14G 3G17G31G15G23G18G 9
  20851160.199   -22172588.77444 -17216231.55442  20851162.611    20851161.459
  21677005.182   -13473872.29143 -10456795.49142  21677007.104    21677007.425
  22615033.097   -11783683.40743  -8997817.42842  22615034.246    22615036.929
  22643670.375    -8340411.73443  -6224717.55242  22643672.374    22643672.930
  20470348.941   -24081854.09044 -18753451.56142  20470350.577    20470349.673
  22069440.726   -18323977.91043 -13897176.80442  22069442.289    22069441.959
  21367442.192   -24114329.95143 -18769557.14042  21367444.275    21367442.450
  23467068.106    -3911526.84643  -3039519.59142  23467070.832    23467072.235
 03  4  6  0 38  0.0000000  0  8G14G 3G17G31G15G23G18G 9
  20839895.935   -22231782.62144 -17262356.52642  20839898.339    20839897.039
  21678987.280   -13463456.62243 -10448679.38942  21678989.145    21678989.341
  22629460.304   -11707869.08343  -8938741.41242  22629461.404    22629464.106
  22636024.888    -8380588.89143  -6256024.35442  22636026.891    22636027.330
  20476361.850   -24050256.22644 -18728829.84742  20476363.510    20476362.524
  22079169.864   -18272850.83043 -13857337.50642  22079171.506    22079171.064
  21376903.512   -24064610.06943 -18730814.36642  21376905.608    21376903.826
  23465460.863    -3919972.01143  -3046100.17442  23465463.405    23465464.995
 03  4  6  0 38 30.0000000  0  8G14G 3G17G31G15G23G18G 9
  20828726.966   -22290475.38444 -17308091.04942  20828729.417    20828728.129
  21681077.407   -13452473.23743 -10440120.89442  21681079.262    21681079.365
  22643945.932   -11631746.84943  -8879425.45342  22643947.144    22643949.859
  22628485.226    -8420209.15543  -6286897.19342  22628487.197    22628487.756
  20482454.570   -24018238.77644 -18703881.19342  20482456.216    20482455.228
  22088914.817   -18221640.27543 -13817433.17742  22088916.473    22088916.132
  21386396.746   -24014722.82243 -18691941.19042  21386398.802    21386397.108
  23463963.821    -3927839.42243  -3052230.51042  23463966.318    23463967.673
 03  4  6  0 39  0.0000000  0  8G14G 3G17G31G15G23G18G 9
  20817650.219   -22348683.68344 -17353448.07242  20817652.720    20817651.476
  21683272.055   -13440940.64943 -10431134.45342  21683273.934    21683274.049
  22658486.639   -11555335.06243  -8819883.87542  22658487.853    22658490.757
  22621048.626    -8459289.08143  -6317348.99642  22621050.570    22621051.089
  20488623.811   -23985819.27444 -18678619.24442  20488625.434    20488624.486
  22098672.172   -18170364.85343 -13777478.29742  22098673.840    22098673.526
  21395918.236   -23964687.12243 -18652952.33242  21395920.308    21395918.516
  23462573.540    -3935145.75643  -3057923.65442  23462576.147    23462577.021
 03  4  6  0 39 30.0000000  0  8G14G 3G17G31G15G23G18G 9
  20806664.161   -22406415.25044 -17398433.61742  20806666.691    20806665.387
  21685569.211   -13428868.75343 -10421727.77542  21685571.179    21685571.288
  22673080.683   -11478643.57643  -8760124.36042  22673081.747    22673084.692
  22613713.318    -8497836.64343  -6347385.95942  22613715.338    22613715.726
  20494867.791   -23953006.45644 -18653050.81142  20494869.416    20494868.665
  22108440.090   -18119034.24143 -13737480.42742  22108441.690    22108441.332
  21405466.020   -23914512.79443 -18613855.46442  21405468.106    21405466.323
  23461288.318    -3941898.97443  -3063185.80642  23461290.982    23461292.063
 03  4  6  0 40  0.0000000  0  8G14G 3G17G31G15G23G18G 9
  20795776.205   -22463631.36244 -17443017.50242  20795778.714    20795777.297
  21687975.817   -13416221.00243 -10411872.38942  21687977.857    21687977.989
  22687734.909   -11401635.32143  -8700118.01842  22687736.007    22687738.655
  22606486.559    -8535813.34643  -6376978.15442  22606488.507    22606488.759
  20501193.996   -23919762.60844 -18627146.52242  20501195.569    20501194.784
  22118225.448   -18067611.81043 -13697410.98442  22118227.045    22118226.716
  21415047.274   -23864163.32343 -18574622.11842  21415049.316    21415047.490
  23460115.583    -3948060.58743  -3067986.97542  23460118.181    23460119.493
 03  4  6  0 40 30.0000000  0  8G14G 3G17G31G15G23G18G 9
  20784979.485   -22520368.11944 -17487227.87742  20784981.953    20784980.567
  21690484.984   -13403035.32543 -10401597.83142  21690486.978    21690487.088
  22702442.056   -11324348.09543  -8639894.28142  22702443.275    22702445.877
  22599361.468    -8573255.15043  -6406153.51342  22599363.429    22599363.699
  20507595.118   -23886124.49544 -18600935.01442  20507596.725    20507595.862
  22128021.159   -18016135.35743 -13657299.47142  22128022.769    22128022.437
  21424654.535   -23813676.91643 -18535282.06942  21424656.573    21424654.661
  23459048.754    -3953666.60743  -3072355.20842  23459051.390    23459052.665
 03  4  6  0 41  0.0000000  0  8G14G 3G17G31G15G23G18G 9
  20774277.845   -22576605.11044 -17531048.81342  20774280.277    20774278.986
  21693099.953   -13389293.46643 -10390889.86442  21693101.903    21693102.083
  22717206.353   -11246762.78843  -8579438.29542  22717207.421    22717210.028
  22592341.795    -8610141.80143  -6434896.27042  22592343.834    22592344.254
  20514074.903   -23852072.68244 -18574401.13342  20514076.530    20514075.641
  22137830.664   -17964586.24243 -13617131.33242  22137832.307    22137831.805
  21434291.270   -23763035.22343 -18495821.01442  21434293.345    21434291.435
  23458091.564    -3958696.90943  -3076274.80642  23458094.166    23458095.450
 03  4  6  0 41 30.0000000  0  8G14G 3G17G31G15G23G18G 9
  20763674.520   -22632325.70944 -17574467.36642  20763676.883    20763675.583
  21695823.577   -13374981.01243 -10379737.30042  21695825.482    21695825.640
  22732029.707   -11168865.05443  -8518738.83342  22732031.005    22732033.678
  22585431.057    -8646457.22443  -6463193.91842  22585433.075    22585433.526
  20520636.417   -23817591.83644 -18547532.94242  20520638.009    20520637.128
  22147656.738   -17912950.16343 -13576895.42142  22147658.401    22147657.785
  21443960.339   -23712223.95343 -18456227.82042  21443962.398    21443960.487
  23457246.595    -3963135.65443  -3079733.47842  23457249.220    23457250.647
 03  4  6  0 42  0.0000000  0  8G14G 3G17G31G15G23G18G 9
  20753168.337   -22687535.76844 -17617488.09442  20753170.694    20753169.326
  21698654.285   -13360105.71743 -10368146.14642  21698656.184    21698656.345
  22746911.285   -11090662.87343  -8457802.14742  22746912.580    22746915.185
  22578628.303    -8682207.05243  -6491050.84842  22578630.271    22578630.647
  20527278.198   -23782688.54344 -18520335.57042  20527279.833    20527278.913
  22157497.943   -17861234.47043 -13536597.49442  22157499.586    22157498.986
  21453660.267   -23661250.72743 -18416508.43142  21453662.298    21453660.410
  23456513.283    -3966988.46943  -3082735.56242  23456515.882    23456517.234
 03  4  6  0 42 30.0000000  0  8G14G 3G17G31G15G23G18G 9
  20742755.695   -22742254.04044 -17660125.61742  20742758.064    20742756.680
  21701588.101   -13344688.58643 -10356132.79042  21701589.987    21701590.130
  22761846.924   -11012176.67043  -8396644.17342  22761848.242    22761850.556
  22571929.247    -8717410.36943  -6518481.96242  22571931.246    22571931.669
  20533996.801   -23747382.40244 -18492824.29242  20533998.362    20533997.382
  22167350.238   -17809459.81643 -13496253.60742  22167351.932    22167351.340
  21463387.107   -23610136.49143 -18376679.16942  21463389.143    21463387.146
  23455887.925    -3970274.61143  -3085296.13242  23455890.345    23455891.703
 03  4  6  0 43  0.0000000  0  8G14G 3G17G31G15G23G18G 9
  20732433.008   -22796500.04444 -17702395.13842  20732435.415    20732433.926
  21704620.885   -13328751.30543 -10343714.12342  21704622.783    21704622.867
  22776832.212   -10933427.73043  -8335281.43742  22776833.638    22776836.148
  22565330.656    -8752086.88443  -6545502.59142  22565332.604    22565332.940
  20540788.128   -23711693.99144 -18465015.13442  20540789.667    20540788.742
  22177209.779   -17757647.51843 -13455880.38442  22177211.458    22177210.906
  21473136.501   -23558902.64043 -18336756.69442  21473138.577    21473136.635
  23455366.551    -3973013.67743  -3087430.41442  23455368.845    23455370.468
 03  4  6  0 43 30.0000000  0  8G14G 3G17G31G15G23G18G 9
  20722207.857   -22850233.16344 -17744265.01242  20722210.297    20722208.812
  21707759.853   -13312255.15943 -10330859.97442  21707761.837    21707762.051
  22791874.756   -10854377.31243  -8273683.78442  22791876.257    22791879.196
  22558839.873    -8786196.13543  -6572081.20642  22558841.823    22558842.072
  20547659.613   -23675583.61644 -18436877.17542  20547661.175    20547660.326
  22187083.893   -17705758.65643 -13415447.50042  22187085.566    22187085.047
  21482915.984   -23507510.59143 -18296710.93942  21482918.049    21482916.241
  23454957.415    -3975165.53943  -3089107.11042  23454959.631    23454960.861
 03  4  6  0 44  0.0000000  0  8G14G 3G17G31G15G23G18G 9
  20712079.632   -22903456.89044 -17785737.94742  20712082.060    20712080.553
  21711004.318   -13295206.06143 -10317574.95342  21711006.276    21711006.502
  22806974.235   -10775030.27943  -8211855.01442  22806975.466    22806978.678
  22552456.187    -8819741.79143  -6598220.63742  22552458.106    22552458.395
  20554610.694   -23639055.75844 -18408413.89342  20554612.251    20554611.380
  22196971.633   -17653798.45043 -13374959.03342  22196973.338    22196972.679
  21492724.605   -23455966.05244 -18256546.36342  21492726.646    21492724.834
  23454658.891    -3976733.85943  -3090329.08242  23454661.243    23454662.302
 03  4  6  0 44 30.0000000  0  8G14G 3G17G31G15G23G18G 9
  20702044.170   -22956193.22844 -17826831.09542  20702046.573    20702045.018
  21714349.362   -13277627.96043 -10303877.72142  21714351.359    21714351.496
  22822125.756   -10695410.55243  -8149813.74642  22822126.823    22822129.949
  22546175.540    -8852746.08543  -6623938.21942  22546177.491    22546177.875
  20561636.749   -23602133.42244 -18379643.23042  20561638.321    20561637.463
  22206868.372   -17601790.67443 -13334433.50242  22206870.060    22206869.304
  21502557.789   -23404292.76144 -18216281.46742  21502559.824    21502557.894
  23454467.277    -3977741.03643  -3091113.81742  23454469.489    23454470.652
 03  4  6  0 45  0.0000000  0  8G14G 3G17G31G15G23G18G 9
  20692108.079   -23008407.50544 -17867517.45442  20692110.494    20692108.913
  21717801.116   -13259488.32043 -10289742.92042  21717803.148    21717803.157
  22837334.859   -10615485.04743  -8087534.22242  22837336.082    22837339.166
  22540004.697    -8885174.32243  -6649206.92242  22540006.622    22540007.001
  20568744.359   -23564782.72344 -18350538.77642  20568745.944    20568745.087
  22216780.394   -17549702.28743 -13293845.16142  22216782.077    22216781.322
  21512421.692   -23352458.00744 -18175890.76642  21512423.721    21512421.664
  23454388.744    -3978152.46343  -3091434.38142  23454391.016    23454392.579
 03  4  6  0 45 30.0000000  0  8G14G 3G17G31G15G23G18G 9
  20682268.486   -23060114.78744 -17907808.75242  20682270.912    20682269.303
  21721356.563   -13240804.34143 -10275183.96842  21721358.584    21721358.489
  22852599.021   -10535270.57643  -8025029.52842  22852600.273    22852603.302
  22533940.618    -8917041.97243  -6674038.81042  22533942.533    22533942.963
  20575930.552   -23527019.61744 -18321112.97342  20575932.139    20575931.154
  22226704.686   -17497550.14243 -13253207.13442  22226706.332    22226705.581
  21522313.100   -23300478.77043 -18135387.46642  21522315.137    21522312.845
  23454420.791    -3977983.71943  -3091302.86242  23454422.872    23454424.770
 03  4  6  0 46  0.0000000  0  8G14G 3G17G31G15G23G18G 9
  20672527.068   -23111306.05544 -17947697.96642  20672529.484    20672527.807
  21725016.919   -13221568.99743 -10260195.39142  21725018.948    21725018.884
  22867920.082   -10454759.76843  -7962293.92342  22867921.214    22867924.037
  22527984.824    -8948340.09143  -6698426.89842  22527986.784    22527987.161
  20583196.604   -23488835.72444 -18291359.29942  20583198.194    20583197.235
  22236642.406   -17445326.65443 -13212513.49942  22236644.065    22236643.427
  21532233.347   -23248347.50743 -18094765.70742  21532235.394    21532233.113
  23454565.240    -3977226.06643  -3090712.42942  23454567.250    23454568.788
 03  4  6  0 46 30.0000000  0  8G14G 3G17G31G15G23G18G 9
  20662882.520   -23161988.23744 -17987190.48642  20662884.970    20662883.207
  21728780.435   -13201791.36343 -10244784.24142  21728782.510    21728782.507
  22883295.686   -10373961.65143  -7899334.44742  22883296.888    22883299.495
  22522135.969    -8979075.66743  -6722376.67042  22522137.889    22522138.099
  20590541.228   -23450238.96344 -18261283.89642  20590542.793    20590541.945
  22246592.215   -17393040.25243 -13171770.85142  22246593.872    22246593.255
  21542180.801   -23196073.09843 -18054032.39642  21542182.906    21542180.643
  23454820.022    -3975886.52543  -3089668.54842  23454822.150    23454823.251
 03  4  6  0 47  0.0000000  0  8G14G 3G17G31G15G23G18G 9
  20653337.654   -23212146.48144 -18026274.74142  20653340.101    20653338.366
  21732649.429   -13181458.72143 -10228940.60942  21732651.489    21732651.624
  22898728.333   -10292863.00943  -7836140.78742  22898729.689    22898732.256
  22516396.774    -9009234.35543  -6745876.90842  22516398.678    22516398.804
  20597967.218   -23411215.65444 -18230876.12742  20597968.732    20597967.892
  22256556.382   -17340677.98943 -13130969.09342  22256558.037    22256557.506
  21552158.014   -23143642.63943 -18013177.48642  21552160.118    21552157.778
  23455188.508    -3973950.83943  -3088160.18742  23455190.629    23455191.405
 03  4  6  0 47 30.0000000  0  8G14G 3G17G31G15G23G18G 9
  20643887.111   -23261808.67044 -18064972.45742  20643889.573    20643887.867
  21736618.666   -13160600.97343 -10212687.82642  21736620.560    21736620.716
  22914212.478   -10211492.90143  -7772735.60942  22914213.876    22914216.672
  22510762.257    -9038843.82243  -6768949.19242  22510764.194    22510764.323
  20605468.782   -23371794.10144 -18200158.02742  20605470.313    20605469.610
  22266529.498   -17288268.96543 -13090130.87742  22266531.115    22266530.649
  21562159.129   -23091085.98343 -17972224.23842  21562161.289    21562159.036
  23455664.727    -3971446.82743  -3086208.93442  23455666.974    23455668.083
 03  4  6  0 48  0.0000000  0  8G14G 3G17G31G15G23G18G 9
  20634532.925   -23310964.91844 -18103275.94642  20634535.323    20634533.622
  21740689.329   -13139210.59543 -10196020.00042  21740691.218    21740691.294
  22929749.929   -10129843.41443  -7709112.72542  22929751.251    22929754.106
  22505234.132    -9067894.40243  -6791585.95342  22505236.061    22505236.243
  20613047.995   -23331965.52444 -18169122.77942  20613049.477    20613048.773
  22276513.038   -17235804.77943 -13049249.69342  22276514.625    22276514.260
  21572185.917   -23038394.74543 -17931166.12242  21572188.054    21572185.921
  23456251.012    -3968364.98443  -3083807.45842  23456253.179    23456254.306
 03  4  6  0 48 30.0000000  0  8G14G 3G17G31G15G23G18G 9
  20625276.188   -23359609.29644 -18141180.57742  20625278.543    20625276.753
  21744861.725   -13117284.31143 -10178934.59042  21744863.656    21744863.754
  22945341.424   -10047910.85043  -7645269.27642  22945342.613    22945345.421
  22499813.201    -9096381.00043  -6813783.23742  22499815.104    22499815.485
  20620705.534   -23291725.13744 -18137766.64442  20620707.046    20620706.297
  22286507.684   -17183281.57743 -13008322.52542  22286509.370    22286509.035
  21582239.151   -22985564.69743 -17889999.84542  21582241.271    21582239.136
  23456948.403    -3964700.49843  -3080951.93242  23456950.496    23456951.707
 03  4  6  0 49  0.0000000  0  8G14G 3G17G31G15G23G18G 9
  20616116.128   -23407745.22844 -18178689.01342  20616118.480    20616116.744
  21749134.994   -13094827.21343 -10161435.55042  21749136.957    21749137.053
  22960985.597    -9965699.76243  -7581208.79442  22960986.871    22960989.710
  22494499.133    -9124306.91543  -6835543.61042  22494501.025    22494501.359
  20628440.561   -23251076.95844 -18106092.74342  20628442.096    20628441.484
  22296513.126   -17130703.83343 -12967352.86642  22296514.635    22296514.228
  21592317.836   -22932601.09743 -17848729.50842  21592319.949    21592317.815
  23457755.732    -3960456.82443  -3077645.10642  23457757.837    23457759.443
 03  4  6  0 49 30.0000000  0  8G14G 3G17G31G15G23G18G 9
  20607055.991   -23455356.30244 -18215788.46542  20607058.330    20607056.609
  21753512.235   -13071824.98543 -10143511.74842  21753514.159    21753514.101
  22976685.892    -9883195.34443  -7516919.74942  22976686.988    22976689.873
  22489294.842    -9151655.63343  -6856854.22542  22489296.772    22489297.100
  20636256.236   -23210005.24844 -18074088.81842  20636257.760    20636257.211
  22306531.513   -17078056.48343 -12926328.95242  22306533.142    22306532.759
  21602424.709   -22879489.00643 -17807343.46842  21602426.832    21602424.668
  23458676.582    -3955617.48943  -3073874.12242  23458678.655    23458680.557
 03  4  6  0 50  0.0000000  0  8G14G 3G17G31G15G23G18G 9
  20598095.243   -23502444.99544 -18252480.87542  20598097.581    20598095.842
  21757992.324   -13048282.24443 -10125166.76642  21757994.212    21757994.263
  22992441.030    -9800402.25143  -7452405.75442  22992442.112    22992445.083
  22484199.770    -9178430.12243  -6877717.39942  22484201.714    22484202.043
  20644151.910   -23168513.17744 -18041757.34042  20644153.408    20644152.893
  22316562.455   -17025343.43943 -12885253.84942  22316564.060    22316563.742
  21612559.012   -22826232.52043 -17765844.89642  21612561.190    21612559.011
  23459710.168    -3950185.42243  -3069641.29942  23459712.295    23459714.242
 03  4  6  0 50 30.0000000  0  8G14G 3G17G31G15G23G18G 9
  20589235.996   -23549000.02444 -18288757.43942  20589238.314    20589236.611
  21762576.926   -13024189.91343 -10106393.51942  21762578.806    21762578.927
  23008252.689    -9717310.29843  -7387658.85942  23008253.873    23008257.039
  22479216.033    -9204619.21843  -6898124.41442  22479217.983    22479218.203
  20652129.626   -23126590.49044 -18009090.31342  20652131.135    20652130.570
  22326607.701   -16972554.75543 -12844119.81442  22326609.322    22326608.938
  21622722.595   -22772822.10743 -17724226.37842  21622724.765    21622722.727
  23460858.804    -3944149.90643  -3064938.24442  23460860.977    23460862.517
 03  4  6  0 51  0.0000000  0  8G14G 3G17G31G15G23G18G 9
  20580474.023   -23595044.11344 -18324635.86742  20580476.354    20580474.572
  21767261.418   -12999572.78443 -10087211.33342  21767263.339    21767263.314
  23024116.789    -9633943.78243  -7322698.03042  23024117.910    23024121.245
  22474339.508    -9230245.90743  -6918093.18942  22474341.424    22474341.498
  20660184.725   -23084260.70344 -17976106.06942  20660186.293    20660185.752
  22336663.086   -16919714.51143 -12802945.60642  22336664.615    22336663.982
  21632911.015   -22719282.06743 -17682506.86442  21632913.127    21632911.113
  23462117.614    -3937533.86343  -3059782.80442  23462119.879    23462121.455
 03  4  6  0 51 30.0000000  0  8G14G 3G17G31G15G23G18G 9
  20571809.358   -23640577.14944 -18360116.07042  20571811.692    20571809.774
  21772045.511   -12974432.85943 -10067621.78342  21772047.457    21772047.278
  23040033.017    -9550304.27843  -7257524.48042  23040034.070    23040037.327
  22469569.771    -9255310.30743  -6937623.82042  22469571.749    22469571.882
  20668317.066   -23041524.41444 -17942805.06842  20668318.698    20668318.143
  22346727.870   -16866823.82443 -12761732.09442  22346729.496    22346728.776
  21643123.699   -22665613.86843 -17640687.48842  21643125.771    21643123.908
  23463486.862    -3930337.55443  -3054175.24242  23463488.994    23463490.866
 03  4  6  0 52  0.0000000  0  8G14G 3G17G31G15G23G18G 9
  20563242.739   -23685594.88644 -18395194.74242  20563245.057    20563243.136
  21776929.211   -12948767.95543 -10047623.16642  21776931.137    21776931.130
  23056001.602    -9466389.33043  -7192136.29342  23056002.656    23056005.918
  22464907.880    -9279808.26143  -6956713.05342  22464909.823    22464910.185
  20676527.579   -22998378.16744 -17909184.62842  20676529.176    20676528.472
  22356802.873   -16813879.70743 -12720476.93842  22356804.576    22356803.908
  21653361.363   -22611814.67243 -17598766.03142  21653363.431    21653361.487
  23464967.542    -3922557.25243  -3048112.59942  23464969.569    23464971.113
 03  4  6  0 52 30.0000000  0  8G14G 3G17G31G15G23G18G 9
  20554771.601   -23730110.54444 -18429882.18942  20554773.970    20554772.052
  21781910.077   -12922593.59543 -10027227.56742  21781911.955    21781911.990
  23072019.857    -9382213.45143  -7126544.77342  23072021.044    23072024.103
  22460351.386    -9303753.33243  -6975371.49942  22460353.306    22460353.431
  20684813.306   -22954836.03044 -17875255.69742  20684814.876    20684814.217
  22366885.154   -16760896.77943 -12679191.53742  22366886.959    22366886.270
  21663621.063   -22557899.20643 -17556753.98142  21663623.144    21663621.143
  23466556.544    -3914206.63543  -3041605.55242  23466558.757    23466559.888
 03  4  6  0 53  0.0000000  0  8G14G 3G17G31G15G23G18G 9
  20546402.493   -23774090.72844 -18464152.38242  20546404.863    20546402.876
  21786993.821   -12895878.54043 -10006410.66442  21786995.763    21786995.671
  23088093.855    -9297745.10043  -7060725.37642  23088095.004    23088098.062
  22455906.422    -9327112.25943  -6993573.21842  22455908.373    22455908.184
  20693180.619   -22910865.28643 -17840992.78542  20693182.151    20693181.574
  22376980.887   -16707842.86743 -12637850.82442  22376982.705    22376982.057
  21673909.094   -22503835.76943 -17514626.63642  21673911.115    21673908.954
  23468260.616    -3905252.44943  -3034628.21342  23468262.458    23468263.998
 03  4  6  0 53 30.0000000  0  8G14G 3G17G31G15G23G18G 9
  20538132.650   -23817548.64544 -18498015.60842  20538135.073    20538132.973
  21792177.354   -12868638.47243  -9985184.64642  21792179.312    21792179.284
  23104220.488    -9212999.14743  -6994689.63642  23104221.668    23104224.879
  22451570.167    -9349898.73843  -7011328.87942  22451572.148    22451571.861
  20701626.803   -22866480.07844 -17806406.90642  20701628.306    20701627.820
  22387087.225   -16654732.47643 -12596466.09742  22387088.985    22387088.511
  21684222.420   -22449638.80543 -17472395.24242  21684224.483    21684222.353
  23470076.714    -3895708.49343  -3027191.34042  23470078.680    23470080.403
 03  4  6  0 54  0.0000000  0  8G14G 3G17G31G15G23G18G 9
  20529961.051   -23860490.02444 -18531476.34442  20529963.498    20529961.296
  21797459.428   -12840881.13743  -9963555.54342  21797461.356    21797461.403
  23120398.668    -9127982.91243  -6928443.29242  23120399.901    23120403.021
  22447341.561    -9372118.58343  -7028643.00442  22447343.534    22447343.326
  20710150.705   -22821686.88644 -17771503.11742  20710152.153    20710151.781
  22397203.307   -16601572.35843 -12555042.63142  22397204.905    22397204.524
  21694559.805   -22395315.39843 -17430065.31242  21694561.905    21694559.870
  23472003.972    -3885581.05243  -3019299.77442  23472006.018    23472007.528
 03  4  6  0 54 30.0000000  0  8G14G 3G17G31G15G23G18G 9
  20521893.627   -23902884.43644 -18564510.87242  20521896.077    20521893.842
  21802845.241   -12812578.08643  -9941501.21542  21802847.176    21802847.355
  23136633.501    -9042667.17043  -6861963.57242  23136634.859    23136637.945
  22443226.829    -9393741.47343  -7045491.96442  22443228.729    22443228.628
  20718757.846   -22776455.84844 -17736258.14342  20718759.270    20718759.070
  22407334.646   -16548333.16843 -12513557.57042  22407336.165    22407335.779
  21704926.717   -22340836.58143 -17387614.27342  21704928.804    21704926.964
  23474048.100    -3874839.91243  -3010930.00342  23474050.137    23474051.368
 03  4  6  0 55  0.0000000  0  8G14G 3G17G31G15G23G18G 9
  20513926.565   -23944751.20444 -18597134.25042  20513929.028    20513926.881
  21808330.839   -12783750.88443  -9919038.46242  21808332.728    21808332.950
  23152921.668    -8957072.57043  -6795266.56642  23152922.921    23152926.128
  22439221.901    -9414787.33643  -7061891.29442  22439223.762    22439223.803
  20727444.485   -22730807.42744 -17700687.93142  20727445.893    20727445.620
  22417476.948   -16495035.38943 -12472026.84942  22417478.543    22417478.141
  21715319.319   -22286223.14643 -17345058.34942  21715321.371    21715319.658
  23476204.919    -3863504.84443  -3002097.43342  23476207.122    23476208.207
 03  4  6  0 55 30.0000000  0  8G14G 3G17G31G15G23G18G 9
  20506059.697   -23986091.59544 -18629347.46042  20506062.161    20506059.983
  21813915.632   -12754402.79443  -9896169.82242  21813917.476    21813917.697
  23169262.658    -8871202.28643  -6728354.74242  23169263.733    23169266.873
  22435326.479    -9435257.49543  -7077842.02842  22435328.313    22435328.529
  20736210.300   -22684743.35144 -17664793.84642  20736211.711    20736211.195
  22427629.975   -16441681.41443 -12430452.33942  22427631.566    22427631.148
  21725737.124   -22231477.69843 -17302399.56242  21725739.150    21725737.382
  23478474.416    -3851577.54743  -2992803.36542  23478476.548    23478477.462
 03  4  6  0 56  0.0000000  0  8G14G 3G17G31G15G23G18G 9
  20498289.974   -24026921.55744 -18661162.93242  20498292.433    20498290.161
  21819596.162   -12724551.83143  -9872909.33342  21819598.031    21819598.134
  23185652.340    -8785073.89943  -6661241.81342  23185653.531    23185656.888
  22431537.649    -9455168.01343  -7093356.67542  22431539.480    22431539.715
  20745051.810   -22638280.21044 -17628588.79942  20745053.308    20745052.768
  22437790.289   -16388288.22243 -12388847.26142  22437791.985    22437791.642
  21736176.777   -22176617.37043 -17259651.26942  21736178.803    21736176.852
  23480853.530    -3839074.42043  -2983060.59842  23480855.586    23480856.328
 03  4  6  0 56 30.0000000  0  8G14G 3G17G31G15G23G18G 9
  20490616.892   -24067243.39844 -18692582.47242  20490619.354    20490617.103
  21825371.552   -12694202.54743  -9849260.56042  21825373.400    21825373.298
  23202090.062    -8698690.92543  -6593930.45242  23202091.414    23202095.106
  22427854.852    -9474521.58443  -7108437.35742  22427856.630    22427856.623
  20753968.857   -22591421.01244 -17592075.13642  20753970.348    20753969.756
  22447957.540   -16334859.20043 -12347214.26342  22447959.236    22447958.938
  21746637.432   -22121645.87343 -17216816.35942  21746639.526    21746637.480
  23483341.940    -3825998.22743  -2972871.34442  23483343.869    23483344.684
 03  4  6  0 57  0.0000000  0  8G14G 3G17G31G15G23G18G 9
  20483047.370   -24107021.09343 -18723578.00942  20483049.789    20483047.629
  21831247.989   -12663321.33343  -9825197.28042  21831249.908    21831249.833
  23218583.367    -8612018.96643  -6526393.95642  23218584.606    23218588.299
  22424284.803    -9493282.38443  -7123056.14142  22424286.617    22424286.424
  20762968.014   -22544130.44544 -17555225.35242  20762969.508    20762968.906
  22458138.258   -16281359.18543 -12305525.96642  22458139.981    22458139.697
  21757125.906   -22066528.27443 -17173867.59942  21757127.971    21757125.897
  23485945.949    -3812313.49143  -2962207.83942  23485948.072    23485948.760
 03  4  6  0 57 30.0000000  0  8G14G 3G17G31G15G23G18G 9
  20475575.395   -24146286.16744 -18754174.09542  20475577.771    20475575.671
  21837219.211   -12631941.95943  -9800745.80242  21837221.160    21837221.215
  23235125.477    -8525091.15243  -6458658.10442  23235126.527    23235130.179
  22420821.199    -9511482.33243  -7137237.89842  22420823.007    22420823.040
  20772042.996   -22496440.81544 -17518064.59542  20772044.490    20772043.928
  22468326.198   -16227820.73743 -12263807.71542  22468327.947    22468327.646
  21767635.914   -22011297.42343 -17130830.56742  21767638.042    21767636.041
  23488659.686    -3798052.33943  -2951095.21342  23488661.735    23488662.516
 03  4  6  0 58  0.0000000  0  8G14G 3G17G31G15G23G18G 9
  20468207.170   -24185006.42944 -18784345.65842  20468209.513    20468207.351
  21843291.050   -12600034.12843  -9775882.54842  21843292.992    21843293.189
  23251721.781    -8437876.26943  -6390698.53942  23251723.031    23251726.804
  22417470.753    -9529089.40143  -7150957.63642  22417472.614    22417472.543
  20781199.856   -22448320.61944 -17480568.33142  20781201.407    20781200.991
  22478527.391   -16174212.50343 -12222035.08542  22478529.105    22478528.846
  21778173.515   -21955922.47043 -17087681.26642  21778175.547    21778173.608
  23491489.303    -3783182.95843  -2939508.62442  23491491.264    23491492.014
 03  4  6  0 58 30.0000000  0  8G14G 3G17G31G15G23G18G 9
  20460939.900   -24223196.14344 -18814103.79642  20460942.268    20460940.029
  21849460.179   -12567614.45343  -9750620.45742  21849462.181    21849462.397
  23268369.724    -8350390.57243  -6322527.93642  23268371.041    23268374.693
  22414230.181    -9546118.19943  -7164226.80242  22414232.093    22414232.102
  20790436.006   -22399784.89644 -17442748.29542  20790437.471    20790437.009
  22488739.064   -16120549.78343 -12180219.99742  22488740.728    22488740.501
  21788735.527   -21900418.70743 -17044431.58642  21788737.554    21788735.571
  23494431.706    -3767720.09943  -2927459.59742  23494433.696    23494434.563
 03  4  6  0 59  0.0000000  0  8G14G 3G17G31G15G23G18G 9
  20453772.594   -24260860.39244 -18843452.49342  20453774.958    20453772.694
  21855725.591   -12534689.91343  -9724964.97442  21855727.507    21855727.727
  23285068.370    -8262640.55243  -6254151.38142  23285069.472    23285072.816
  22411098.687    -9562573.97843  -7177049.43842  22411100.560    22411100.667
  20799750.001   -22350839.50344 -17404609.03442  20799751.493    20799750.941
  22498959.967   -16066838.45943 -12138367.01742  22498961.657    22498961.385
  21799320.993   -21844792.28643 -17001086.34742  21799322.936    21799320.894
  23497486.114    -3751669.20443  -2914952.34042  23497488.214    23497488.926
 03  4  6  0 59 30.0000000  0  8G14G 3G17G31G15G23G18G 9
  20446711.693   -24297964.95043 -18872365.07242  20446714.032    20446711.834
  21862093.068   -12501228.67743  -9698891.27942  21862094.975    21862095.098
  23301823.299    -8174593.22943  -6185543.17342  23301824.490    23301827.860
  22408082.843    -9578422.98143  -7189399.28642  22408084.638    22408084.490
  20809148.523   -22301450.90644 -17366124.41442  20809150.010    20809149.296
  22509196.601   -16013045.33743 -12096450.31342  22509198.233    22509197.675
  21809935.990   -21789010.32343 -16957619.89442  21809937.973    21809935.887
  23500658.615    -3734996.59643  -2901960.66342  23500660.825    23500661.632
 03  4  6  1  0  0.0000000  0  8G14G 3G17G31G15G23G18G 9
  20439747.384   -24334562.43244 -18900882.52542  20439749.716    20439747.419
  21868552.246   -12467285.36643  -9672441.93342  21868554.169    21868554.268
  23318624.507    -8086302.76843  -6116745.52742  23318625.735    23318629.321
  22405172.254    -9593717.91243  -7201317.37342  22405174.133    22405173.931
  20818621.060   -22251672.13344 -17327335.77142  20818622.611    20818621.912
  22519438.524   -15959223.67443 -12054511.36642  22519440.236    22519439.579
  21820570.386   -21733126.19243 -16914073.83542  21820572.377    21820570.282
  23503939.451    -3717755.12943  -2888525.71342  23503941.564    23503942.621
 03  4  6  1  0 30.0000000  0  8G14G 3G17G31G15G23G18G 9
  20432884.706   -24370626.04144 -18928983.97642  20432887.069    20432884.627
  21875107.812   -12432835.32543  -9645597.74742  21875109.784    21875109.907
  23335476.554    -7997743.79543  -6047738.60242  23335477.969    23335481.781
  22402372.035    -9608432.27143  -7212783.05742  22402373.944    22402373.923
  20828172.832   -22201476.97243 -17288222.65442  20828174.379    20828173.606
  22529690.775   -15905347.33543 -12012529.82942  22529692.536    22529692.007
  21831229.001   -21677114.41043 -16870428.28842  21831231.060    21831228.961
  23507333.554    -3699918.60543  -2874627.06942  23507335.739    23507336.813
 03  4  6  1  1  0.0000000  0  8G14G 3G17G31G15G23G18G 9
  20426120.646   -24406171.38844 -18956681.58142  20426123.054    20426120.550
  21881756.490   -12397896.32543  -9618372.54642  21881758.406    21881758.629
  23352376.605    -7908933.35143  -5978535.72442  23352377.988    23352381.772
  22399679.468    -9622581.98043  -7223808.75142  22399681.271    22399681.504
  20837800.733   -22150881.84544 -17248797.87242  20837802.262    20837801.513
  22539950.439   -15851432.94443 -11970518.63442  22539952.145    22539951.652
  21841908.832   -21620991.53643 -16826696.17842  21841910.849    21841908.811
  23510837.911    -3681503.49843  -2860277.58342  23510839.995    23510841.193
 03  4  6  1  1 30.0000000  0  8G14G 3G17G31G15G23G18G 9
  20419459.512   -24441175.20844 -18983957.22242  20419461.946    20419459.572
  21888502.276   -12362447.13143  -9590749.80242  21888504.201    21888504.304
  23369328.800    -7819849.39243  -5909119.71742  23369330.201    23369333.630
  22397098.848    -9636144.07143  -7234376.58042  22397100.651    22397100.822
  20847509.238   -22099864.00244 -17209043.72242  20847510.749    20847509.938
  22550221.528   -15797457.81043 -11928460.09942  22550223.230    22550222.918
  21852614.160   -21564735.06343 -16782859.98042  21852616.190    21852614.108
  23514456.623    -3662486.90443  -2845459.41942  23514458.901    23514459.947
 03  4  6  1  2  0.0000000  0  8G14G 3G17G31G15G23G18G 9
  20412895.748   -24475667.70244 -19010834.43042  20412898.130    20412895.798
  21895339.012   -12326520.27243  -9562754.86542  21895340.892    21895340.912
  23386327.343    -7730523.15943  -5839514.96742  23386328.629    23386331.707
  22394623.994    -9649149.03643  -7244510.26542  22394625.884    22394625.927
  20857292.144   -22048454.48044 -17168984.37042  20857293.679    20857292.896
  22560498.390   -15743452.68543 -11886378.19842  22560500.104    22560499.833
  21863338.895   -21508376.53743 -16738944.26842  21863340.913    21863338.859
  23518183.952    -3642899.52443  -2830196.44042  23518186.196    23518187.097
 03  4  6  1  2 30.0000000  0  8G14G 3G17G31G15G23G18G 9
  20406435.476   -24509616.71944 -19037288.14342  20406437.864    20406435.439
  21902272.305   -12290085.61243  -9534364.21942  21902274.192    21902274.191
  23403377.731    -7640924.04643  -5769697.58042  23403379.230    23403382.083
  22392261.154    -9661565.04743  -7254185.03142  22392263.099    22392263.191
  20867155.593   -21996621.67644 -17128595.19042  20867157.088    20867156.396
  22570786.776   -15689386.25043 -11844248.50042  22570788.542    22570788.414
  21874088.918   -21451884.63343 -16694924.58542  21874090.993    21874088.988
  23522026.040    -3622709.69343  -2814464.04342  23522028.421    23522028.813
 03  4  6  1  3  0.0000000  0  8G14G 3G17G31G15G23G18G 9
  20400075.047   -24543040.78344 -19063332.80442  20400077.430    20400074.944
  21909298.173   -12253164.02543  -9505594.14542  21909300.149    21909300.233
  23420475.652    -7551072.21443  -5699683.23042  23420477.400    23420480.715
  22390006.818    -9673411.15843  -7263415.72542  22390008.795    22390008.774
  20877095.926   -21944384.80943 -17087891.15842  20877097.407    20877096.731
  22581083.194   -15635277.87043 -11802086.12442  22581084.877    22581084.943
  21884860.587   -21395279.12043 -16650816.40042  21884862.608    21884860.700
  23525978.846    -3601936.57343  -2798277.15942  23525981.265    23525981.871
 03  4  6  1  3 30.0000000  0  8G14G 3G17G31G15G23G18G 9
  20393818.040   -24575920.90644 -19088953.61842  20393820.439    20393817.913
  21916420.019   -12215738.59043  -9476431.47942  21916421.998    21916422.067
  23437625.127    -7460949.97043  -5629458.16042  23437626.786    23437630.567
  22387864.601    -9684668.42043  -7272187.60142  22387866.562    22387866.608
  20887116.681   -21891725.26044 -17046857.76842  20887118.165    20887117.494
  22591391.327   -15581108.96643 -11759876.58742  22591392.936    22591392.996
  21895657.335   -21338541.55243 -16606605.29842  21895659.388    21895657.508
  23530046.302    -3580561.47443  -2781621.17742  23530048.696    23530049.547
 03  4  6  1  4  0.0000000  0  8G14G 3G17G31G15G23G18G 9
  20387662.477   -24608268.67244 -19114159.60042  20387664.896    20387662.228
  21923635.227   -12177823.01843  -9446886.89042  21923637.212    21923637.157
  23454824.190    -7370570.40543  -5559032.57842  23454825.471    23454828.883
  22385832.102    -9695348.81943  -7280509.93942  22385834.054    22385834.237
  20897215.666   -21838655.26244 -17005504.53942  20897217.165    20897216.436
  22601708.505   -15526891.80743 -11717629.46042  22601710.183    22601710.013
  21906476.846   -21281684.15943 -16562300.83542  21906478.891    21906477.074
  23534225.903    -3558596.57443  -2764505.63242  23534228.315    23534229.313
 03  4  6  1  4 30.0000000  0  8G14G 3G17G31G15G23G18G 9
  20381609.368   -24640077.61144 -19138945.72542  20381611.813    20381609.246
  21930944.309   -12139412.81543  -9416956.87242  21930946.330    21930946.246
  23472073.058    -7279927.97043  -5488402.20442  23472074.102    23472077.210
  22383910.777    -9705446.04643  -7288377.87042  22383912.594    22383912.789
  20907393.696   -21785169.08243 -16963827.01142  20907395.207    20907394.539
  22612036.087   -15472620.36443 -11675340.03742  22612037.823    22612037.385
  21917320.368   -21224701.82043 -16517899.03042  21917322.348    21917320.334
  23538518.982    -3536035.97443  -2746925.89842  23538521.375    23538522.145
 03  4  6  1  5  0.0000000  0  8G14G 3G17G31G15G23G18G 9
  20375654.970   -24671367.92244 -19163327.72742  20375657.363    20375654.916
  21938343.374   -12100530.41043  -9386658.88942  21938345.348    21938345.371
  23489367.505    -7189044.08543  -5417583.66442  23489368.729    23489371.953
  22382096.384    -9714980.83543  -7295807.53042  22382098.203    22382098.406
  20917646.929   -21731287.43943 -16921841.32942  20917648.464    20917647.801
  22622370.113   -15418315.39543 -11633024.49942  22622371.834    22622371.282
  21928183.446   -21167615.41543 -16473416.12042  21928185.466    21928183.462
  23542921.624    -3512900.43143  -2728898.15542  23542923.800    23542924.601
 03  4  6  1  5 30.0000000  0  8G14G 3G17G31G15G23G18G 9
  20369803.907   -24702115.19344 -19187286.57942  20369806.302    20369803.795
  21945836.627   -12061153.82243  -9355975.85042  21945838.565    21945838.580
  23506712.462    -7097896.35043  -5346559.52442  23506713.701    23506717.240
  22380393.567    -9723929.24443  -7302780.27042  22380395.388    22380395.507
  20927980.144   -21676986.55844 -16879528.97542  20927981.652    20927980.931
  22632714.832   -15363953.28443 -11590664.40742  22632716.592    22632716.073
  21939070.908   -21110400.90343 -16428833.37442  21939072.957    21939071.067
  23547438.013    -3489166.33643  -2710404.01142  23547440.131    23547441.081
 03  4  6  1  6  0.0000000  0  8G14G 3G17G31G15G23G18G 9
  20364056.349   -24732318.85544 -19210821.83542  20364058.682    20364056.086
  21953423.622   -12021284.31143  -9324908.71842  21953425.519    21953425.637
  23524107.779    -7006484.90143  -5275329.92342  23524109.013    23524112.522
  22378802.383    -9732290.83743  -7309295.75542  22378804.191    22378804.128
  20938393.037   -21622266.28444 -16836889.81042  20938394.546    20938394.000
  22643070.306   -15309533.69343 -11548259.51942  22643072.163    22643071.901
  21949982.691   -21053058.86243 -16384151.25442  21949984.729    21949982.875
  23552068.606    -3464833.49343  -2691443.34542  23552070.665    23552071.566
 03  4  6  1  6 30.0000000  0  8G14G 3G17G31G15G23G18G 9
  20358407.179   -24762004.94543 -19233953.79042  20358409.513    20358406.950
  21961098.759   -11980950.05043  -9293479.43342  21961100.724    21961101.026
  23541547.617    -6914837.34143  -5203916.32042  23541548.960    23541552.433
  22377317.928    -9740092.00543  -7315374.54542  22377319.740    22377319.627
  20948880.638   -21567153.41043 -16793944.72042  20948882.138    20948881.788
  22653431.832   -15255083.15343 -11505830.51142  22653433.607    22653433.558
  21960913.744   -20995615.83843 -16339390.45442  21960915.727    21960913.947
  23556807.845    -3439928.66843  -2672036.93342  23556810.048    23556810.731
 03  4  6  1  7  0.0000000  0  8G14G 3G17G31G15G23G18G 9
  20352860.508   -24791152.61344 -19256666.20242  20352862.797    20352860.303
  21968866.267   -11940132.36343  -9261673.46242  21968868.124    21968868.235
  23559036.047    -6822933.68443  -5132303.14242  23559037.593    23559041.386
  22375943.953    -9747312.13243  -7321000.61542  22375945.756    22375945.574
  20959446.855   -21511627.37343 -16750677.69642  20959448.345    20959448.047
  22663803.276   -15200581.16643 -11463361.42842  22663805.042    22663804.872
  21971867.884   -20938051.81443 -16294535.37242  21971869.835    21971868.098
  23561659.490    -3414431.45043  -2652168.93342  23561661.825    23561662.536
 03  4  6  1  7 30.0000000  0  8G14G 3G17G31G15G23G18G 9
  20347413.191   -24819778.49144 -19278972.03042  20347415.503    20347412.905
  21976722.157   -11898850.02343  -9229505.43942  21976724.012    21976723.898
  23576570.158    -6730791.77243  -5060504.33542  23576571.646    23576575.702
  22374677.291    -9753968.22143  -7326187.15642  22374679.113    22374678.911
  20970088.586   -21455705.32444 -16707102.09442  20970090.071    20970089.629
  22674181.358   -15146044.67343 -11420865.46142  22674183.042    22674182.874
  21982841.793   -20880383.92343 -16249599.36742  21982843.778    21982841.930
  23566621.035    -3388358.89243  -2631852.61342  23566623.244    23566624.048
 03  4  6  1  8  0.0000000  0  8G14G 3G17G31G15G23G18G 9
  20342071.020   -24847851.78644 -19300847.26742  20342073.306    20342070.717
  21984671.699   -11857074.40943  -9196953.03142  21984673.584    21984673.584
  23594155.173    -6638382.12643  -4988496.90542  23594156.593    23594160.818
  22373523.648    -9760029.90043  -7330910.50142  22373525.515    22373525.356
  20980811.303   -21399357.23344 -16663194.50242  20980812.850    20980812.377
  22684571.730   -15091443.40943 -11378319.02442  22684573.402    22684573.300
  21993841.058   -20822582.20543 -16204559.07142  21993843.102    21993841.231
  23571697.654    -3361680.84543  -2611064.51342  23571699.960    23571700.460
 03  4  6  1  8 30.0000000  0  8G14G 3G17G31G15G23G18G 9
  20336833.863   -24875372.81544 -19322292.16842  20336836.211    20336833.613
  21992714.888   -11814807.55043  -9164017.82342  21992716.817    21992716.781
  23611790.979    -6545706.60343  -4916282.30842  23611792.343    23611796.296
  22372483.167    -9765497.63943  -7335171.05442  22372484.985    22372484.702
  20991614.903   -21342583.61243 -16618955.33042  20991616.461    20991616.102
  22694974.206   -15036777.86643 -11335722.49842  22694975.918    22694975.870
  22004865.629   -20764647.34143 -16159415.01942  22004867.665    22004865.872
  23576889.398    -3334398.13443  -2589805.22342  23576891.659    23576892.048
 03  4  6  1  9  0.0000000  0  8G14G 3G17G31G15G23G18G 9
  20331696.803   -24902367.96244 -19343327.29442  20331699.140    20331696.538
  22000845.935   -11772078.52243  -9130722.51042  22000847.915    22000847.795
  23629472.152    -6452792.96443  -4843882.16142  23629473.527    23629476.937
  22371550.473    -9770398.46643  -7338989.86842  22371552.258    22371551.975
  21002494.396   -21285411.64043 -16574405.74842  21002495.922    21002495.576
  22705383.720   -14982074.97843 -11293096.86542  22705385.485    22705385.391
  22015910.453   -20706606.75243 -16114188.59142  22015912.397    22015910.584
  23582191.028    -3306538.02143  -2568095.98842  23582193.291    23582193.524
 03  4  6  1  9 30.0000000  0  8G14G 3G17G31G15G23G18G 9
  20326660.015   -24928836.24544 -19363951.87442  20326662.348    20326659.699
  22009064.690   -11728888.09643  -9097067.69242  22009066.644    22009066.719
  23647198.259    -6359640.98243  -4771296.28942  23647199.611    23647203.087
  22370725.957    -9774731.49443  -7342366.22942  22370727.703    22370727.405
  21013449.855   -21227840.62544 -16529545.22842  21013451.377    21013450.977
  22715800.691   -14927333.80643 -11250441.43542  22715802.416    22715802.055
  22026975.445   -20648459.85543 -16068879.32642  22026977.448    22026975.542
  23587602.463    -3278099.88643  -2545936.35542  23587604.851    23587605.015
 03  4  6  1 10  0.0000000  0  8G14G 3G17G31G15G23G18G 9
  20321724.998   -24954769.57144 -19384159.60942  20321727.354    20321724.643
  22017372.478   -11685230.44343  -9063048.76742  22017374.414    22017374.541
  23664971.325    -6266243.51043  -4698519.14242  23664972.467    23664976.159
  22370011.039    -9778489.31043  -7345294.38242  22370012.807    22370012.318
  21024482.546   -21169863.42743 -16484368.20642  21024484.131    21024483.638
  22726226.344   -14872546.68443 -11207750.21742  22726228.043    22726227.442
  22038062.058   -20590199.22943 -16023481.44042  22038064.008    22038062.189
  23593125.317    -3249076.50943  -2523320.70742  23593127.678    23593128.128
 03  4  6  1 10 30.0000000  0  8G14G 3G17G31G15G23G18G 9
  20316893.420   -24980159.48044 -19403943.89442  20316895.776    20316893.005
  22025770.492   -11641098.92243  -9028660.59042  22025772.365    22025772.623
  23682792.756    -6172593.41143  -4625545.13442  23682793.744    23682797.308
  22369407.002    -9781663.43443  -7347767.70442  22369408.771    22369408.343
  21035594.030   -21111471.71043 -16438868.17242  21035595.667    21035595.130
  22736662.377   -14817705.11043 -11165016.53042  22736664.032    22736663.436
  22049171.895   -20531816.40743 -15977988.33542  22049173.843    22049172.056
  23598761.332    -3219459.77543  -2500242.70742  23598763.567    23598764.074
 03  4  6  1 11  0.0000000  0  8G14G 3G17G31G15G23G18G 9
  20312162.054   -25005022.69344 -19423317.77542  20312164.408    20312161.577
  22034255.091   -11596512.63543  -8993918.06042  22034256.914    22034257.101
  23700658.065    -6078709.23643  -4552388.73242  23700659.352    23700662.959
  22368910.592    -9784271.28043  -7349799.76642  22368912.419    22368912.232
  21046781.217   -21052682.93243 -16393058.75442  21046782.806    21046782.094
  22747105.318   -14762826.46243 -11122253.93742  22747107.007    22747106.637
  22060301.738   -20473329.02843 -15932413.77042  22060303.732    22060301.869
  23604506.765    -3189267.21543  -2476715.99442  23604508.961    23604509.416
 03  4  6  1 11 30.0000000  0  8G14G 3G17G31G15G23G18G 9
  20307533.409   -25029346.71944 -19442271.50142  20307535.737    20307532.822
  22042828.122   -11551461.18043  -8958813.06942  22042829.981    22042830.001
  23718570.586    -5984579.02743  -4479040.59642  23718571.807    23718575.325
  22368524.252    -9786300.75643  -7351381.13842  22368526.155    22368526.077
  21058046.205   -20993485.11243 -16346930.60642  21058047.706    21058047.102
  22757557.701   -14707898.19743 -11079452.68842  22757559.414    22757559.230
  22071453.921   -20414724.97643 -15886748.30442  22071455.867    22071453.914
  23610364.147    -3158487.14843  -2452731.48342  23610366.393    23610366.757
 03  4  6  1 12  0.0000000  0  8G14G 3G17G31G15G23G18G 9
  20303003.124   -25053153.24344 -19460821.98442  20303005.469    20303002.640
  22051485.247   -11505967.91943  -8923363.81742  22051487.069    22051487.064
  23736525.535    -5890225.99843  -4405518.85042  23736526.735    23736530.213
  22368243.910    -9787773.68543  -7352528.84042  22368245.733    22368245.710
  21069384.846   -20933900.09844 -16300500.74542  21069386.372    21069385.776
  22768015.714   -14652941.85143 -11036629.58042  22768017.394    22768017.020
  22082623.901   -20356026.23743 -15841009.04942  22082625.890    22082623.862
  23616329.064    -3127141.63543  -2428306.35942  23616331.354    23616331.613
 03  4  6  1 12 30.0000000  0  8G14G 3G17G31G15G23G18G 9
  20298579.459   -25076399.18744 -19478935.66242  20298581.821    20298579.118
  22060234.086   -11459992.15143  -8887538.57442  22060235.976    22060236.047
  23754530.932    -5795607.80343  -4331790.47442  23754532.096    23754535.789
  22368077.718    -9788647.50043  -7353209.75542  22368079.464    22368079.180
  21080805.244   -20873885.47843 -16253736.11642  21080806.774    21080806.119
  22778487.154   -14597914.63443 -10993751.25342  22778488.872    22778488.282
  22093820.028   -20297190.23443 -15795162.83142  22093821.992    22093819.902
  23622409.471    -3095188.36243  -2403407.65742  23622411.906    23622411.983
 03  4  6  1 13  0.0000000  0  8G14G 3G17G31G15G23G18G 9
  20294255.422   -25099121.77044 -19496641.50942  20294257.804    20294255.070
  22069067.415   -11413572.95843  -8851367.81042  22069069.292    22069069.332
  23772579.261    -5700762.83443  -4257885.41442  23772580.492    23772584.458
  22368018.343    -9788959.81743  -7353453.12642  22368020.048    22368019.493
  21092300.304   -20813478.76643 -16206665.97042  21092301.789    21092301.207
  22788964.959   -14542853.85043 -10950846.76742  22788966.698    22788966.090
  22105034.911   -20238254.52243 -15749238.89942  22105036.928    22105035.049
  23628598.475    -3062664.96743  -2378064.71942  23628600.918    23628600.781
 03  4  6  1 13 30.0000000  0  8G14G 3G17G31G15G23G18G 9
  20290034.260   -25121304.05744 -19513926.35442  20290036.675    20290033.869
  22077987.832   -11366695.71543  -8814840.12042  22077989.690    22077989.820
  23790673.909    -5605675.58143  -4183791.54942  23790675.152    23790679.084
  22368068.954    -9788693.91143  -7353245.91842  22368070.708    22368070.132
  21103873.082   -20752663.57643 -16159277.53242  21103874.583    21103873.931
  22799452.258   -14487742.56443 -10907902.90842  22799454.052    22799453.428
  22116272.157   -20179202.23743 -15703224.13742  22116274.126    22116272.445
  23634898.948    -3029555.26643  -2352264.91342  23634901.397    23634901.145
 03  4  6  1 14  0.0000000  0  8G14G 3G17G31G15G23G18G 9
  20285915.259   -25142949.45344 -19530792.84342  20285917.695    20285914.872
  22086994.369   -11319366.01343  -8777959.86742  22086996.176    22086996.513
  23808814.012    -5510350.24443  -4109512.18042  23808815.395    23808818.863
  22368228.818    -9787853.70443  -7352591.18842  22368230.609    22368230.194
  21115522.856   -20691443.81143 -16111573.83542  21115524.366    21115523.590
  22809948.526   -14432584.23643 -10864922.39142  22809950.345    22809949.822
  22127531.039   -20120037.31443 -15657121.60842  22127533.028    22127531.282
  23641310.142    -2995863.10743  -2326011.24142  23641312.734    23641312.757
 03  4  6  1 14 30.0000000  0  8G14G 3G17G31G15G23G18G 9
  20281897.236   -25164064.47244 -19547246.05142  20281899.635    20281896.711
  22096085.533   -11271592.59043  -8740733.85842  22096087.293    22096087.408
  23826997.901    -5414794.49543  -4035053.27942  23826999.499    23827002.609
  22368496.565    -9786446.38743  -7351494.55342  22368498.410    22368498.080
  21127248.315   -20629826.40943 -16063560.29542  21127249.835    21127248.972
  22820452.447   -14377385.65443 -10821910.51042  22820454.318    22820453.787
  22138809.773   -20060766.94543 -15610936.90242  22138811.825    22138810.078
  23647831.153    -2961596.01243  -2299309.57342  23647833.492    23647833.478
 03  4  6  1 15  0.0000000  0  8G14G 3G17G31G15G23G18G 9
  20277982.317   -25184637.01343 -19563276.55842  20277984.732    20277981.791
  22105262.942   -11223365.01643  -8703153.96542  22105264.727    22105264.724
  23845227.147    -5318997.41843  -3960406.30042  23845228.712    23845232.446
  22368874.593    -9784460.02543  -7349946.72442  22368876.419    22368876.088
  21139051.625   -20567799.71243 -16015227.82342  21139053.181    21139052.278
  22830966.281   -14322134.42643 -10778857.60442  22830968.097    22830967.692
  22150110.997   -20001378.92643 -15564660.52642  22150113.017    22150111.221
  23654463.401    -2926742.53643  -2272151.00042  23654465.858    23654465.649
 03  4  6  1 15 30.0000000  0  8G14G 3G17G31G15G23G18G 9
  20274166.900   -25204686.56044 -19578899.53342  20274169.304    20274166.418
  22114522.719   -11174704.71743  -8665236.89642  22114524.477    22114524.616
  23863498.539    -5222979.16843  -3885586.98042  23863499.992    23863504.105
  22369359.050    -9781914.48043  -7347963.17742  22369360.889    22369360.505
  21150928.973   -20505383.53043 -15966591.85642  21150930.573    21150929.783
  22841486.597   -14266849.87943 -10735778.73842  22841488.452    22841487.979
  22161430.909   -19941892.96343 -15518307.83242  22161432.993    22161431.034
  23661203.492    -2891322.60943  -2244551.02142  23661206.139    23661205.786
 03  4  6  1 16  0.0000000  0  8G14G 3G17G31G15G23G18G 9
  20270453.990   -25224198.20644 -19594103.36242  20270456.380    20270453.444
  22123867.169   -11125598.75943  -8626972.54542  22123868.942    22123869.207
  23881815.067    -5126725.95543  -3810584.57942  23881816.253    23881820.588
  22369952.540    -9778795.02643  -7345532.42742  22369954.426    22369954.059
  21162883.377   -20442563.15043 -15917640.93142  21162884.913    21162884.255
  22852016.289   -14211516.96143 -10692662.18142  22852018.111    22852017.509
  22172772.067   -19882294.28743 -15471867.29842  22172774.199    22172772.304
  23668054.203    -2855321.87843  -2216498.48542  23668056.594    23668056.651
 03  4  6  1 16 30.0000000  0  8G14G 3G17G31G15G23G18G 9
  20266840.121   -25243189.11044 -19608901.42042  20266842.499    20266839.539
  22133292.778   -11076066.78243  -8588376.24642  22133294.526    22133294.873
  23900172.896    -5030255.95843  -3735413.24142  23900173.857    23900178.269
  22370651.832    -9775119.66843  -7342668.51642  22370653.655    22370653.359
  21174911.197   -20379356.33043 -15868388.88942  21174912.711    21174912.215
  22862551.756   -14156153.04043 -10649521.47942  22862553.567    22862552.900
  22184131.484   -19822600.40543 -15425352.58142  22184133.610    22184131.614
  23675011.829    -2818758.61743  -2188007.64642  23675013.958    23675014.671
 03  4  6  1 17  0.0000000  0  8G14G 3G17G31G15G23G18G 9
  20263330.475   -25261632.14443 -19623272.57342  20263332.869    20263329.954
  22142804.329   -11026083.46043  -8549428.23242  22142806.081    22142806.480
  23918577.045    -4933543.20943  -3660052.76342  23918578.026    23918582.180
  22371462.100    -9770861.40543  -7339350.37042  22371463.938    22371463.816
  21187017.587   -20315736.32343 -15818814.87642  21187019.039    21187018.802
  22873098.168   -14100730.70043 -10606335.25242  22873100.029    22873099.437
  22195514.010   -19762784.13543 -15378742.52142  22195516.153    22195514.225
  23682081.287    -2781606.25143  -2159057.73342  23682083.511    23682084.393
 03  4  6  1 17 30.0000000  0  8G14G 3G17G31G15G23G18G 9
  20259924.528   -25279530.23043 -19637219.09742  20259926.904    20259924.107
  22152400.854   -10975653.68243  -8510132.33542  22152402.698    22152403.015
  23937026.401    -4836591.88643  -3584506.42442  23937027.434    23937031.489
  22372382.839    -9766023.68443  -7335580.71542  22372384.617    22372384.392
  21199202.275   -20251706.49544 -15768921.53642  21199203.654    21199203.283
  22883655.330   -14045252.62943 -10563105.58042  22883657.141    22883656.681
  22206919.161   -19702848.73543 -15332039.62242  22206921.390    22206919.500
  23689262.736    -2743868.06843  -2129651.38642  23689264.877    23689265.458
 03  4  6  1 18  0.0000000  0  8G14G 3G17G31G15G23G18G 9
  20256618.746   -25296901.77444 -19650755.33142  20256621.100    20256618.405
  22162078.511   -10924798.04643  -8470504.61442  22162080.344    22162080.511
  23955516.950    -4739421.40143  -3508789.25142  23955518.117    23955522.356
  22373410.252    -9760625.37943  -7331374.24042  22373412.008    22373411.694
  21211461.125   -20187285.78343 -15718723.60442  21211462.579    21211462.107
  22894219.542   -13989737.11543 -10519846.74042  22894221.341    22894220.913
  22218343.810   -19642812.72843 -15285258.33742  22218345.864    22218343.950
  23696552.036    -2705563.37843  -2099803.55342  23696554.164    23696554.615
 03  4  6  1 18 30.0000000  0  8G14G 3G17G31G15G23G18G 9
  20253414.679   -25313739.48744 -19663875.58042  20253416.996    20253414.168
  22171838.145   -10873511.05443  -8430540.77742  22171839.993    22171840.198
  23974051.091    -4642024.63143  -3432895.75642  23974052.037    23974056.538
  22374545.549    -9754659.46943  -7326725.47242  22374547.351    22374547.049
  21223795.511   -20122467.05643 -15668215.52042  21223797.018    21223796.725
  22904792.544   -13934176.36943 -10476552.66842  22904794.290    22904793.776
  22229788.815   -19582668.79043 -15238392.94142  22229790.992    22229789.039
  23703950.369    -2666685.33243  -2069508.98742  23703952.276    23703952.830
 03  4  6  1 19  0.0000000  0  8G14G 3G17G31G15G23G18G 9
  20250311.146   -25330048.39344 -19676583.77842  20250313.470    20250310.643
  22181678.195   -10821799.96643  -8390246.45742  22181680.111    22181680.535
  23992627.130    -4544408.04043  -3356830.99642  23992628.110    23992632.509
  22375787.662    -9748131.59943  -7321638.79942  22375789.537    22375789.212
  21236204.907   -20057255.72143 -15617401.51642  21236206.305    21236206.006
  22915373.022   -13878575.46343 -10433227.28842  22915374.782    22915374.412
  22241253.514   -19522421.96143 -15191447.37542  22241255.636    22241253.683
  23711456.637    -2627239.82243  -2038772.24542  23711458.483    23711459.168
 03  4  6  1 19 30.0000000  0  8G14G 3G17G31G15G23G18G 9
  20247309.072   -25345824.18744 -19688876.56842  20247311.407    20247308.557
  22191599.856   -10769662.17343  -8349619.64142  22191601.686    22191602.055
  24011245.451    -4446568.26943  -3280592.30742  24011246.615    24011250.952
  22377137.615    -9741037.77343  -7316111.12842  22377139.432    22377139.055
  21248689.835   -19991647.86443 -15566278.53442  21248691.177    21248690.778
  22925962.101   -13822929.69743 -10389866.95942  22925963.816    22925963.502
  22252738.520   -19462068.00643 -15144418.32642  22252740.600    22252738.710
  23719071.373    -2587223.20343  -2007590.43542  23719073.121    23719074.155
 03  4  6  1 20  0.0000000  0  8G14G 3G17G31G15G23G18G 9
  20244408.898   -25361065.11244 -19700752.57942  20244411.214    20244408.236
  22201602.560   -10717097.98943  -8308660.59142  22201604.363    22201604.773
  24029906.299    -4348504.82243  -3204179.32642  24029907.548    24029911.972
  22378595.462    -9733376.91743  -7310141.62442  22378597.290    22378596.888
  21261250.270   -19925642.22443 -15514845.59442  21261251.704    21261251.239
  22936560.124   -13767237.18543 -10346470.21142  22936561.856    22936561.430
  22264244.157   -19401605.24743 -15097304.51142  22264246.233    22264244.360
  23726795.304    -2546634.67243  -1975962.97842  23726796.995    23726797.858
 03  4  6  1 20 30.0000000  0  8G14G 3G17G31G15G23G18G 9
  20241606.715   -25375790.09843 -19712226.55542  20241609.039    20241606.108
  22211682.378   -10664128.46243  -8267385.66842  22211684.137    22211684.596
  24048605.909    -4250237.25943  -3127607.30242  24048607.474    24048611.795
  22380157.518    -9725168.27043  -7303745.27442  22380159.358    22380158.985
  21273882.709   -19859258.03843 -15463117.68042  21273884.190    21273883.628
  22947163.404   -13711516.47243 -10303051.49842  22947165.164    22947164.711
  22275766.863   -19341052.75843 -15050120.76242  22275768.947    22275767.014
  23734624.147    -2505493.76443  -1943905.10142  23734625.858    23734626.429
 03  4  6  1 21  0.0000000  0  8G14G 3G17G31G15G23G18G 9
  20238905.457   -25389985.26144 -19723287.68542  20238907.773    20238904.740
  22221841.594   -10610741.78143  -8225785.68342  22221843.394    22221843.768
  24067347.032    -4151752.35343  -3050865.92042  24067348.653    24067352.939
  22381826.338    -9716398.36943  -7296911.57142  22381828.168    22381827.851
  21286589.935   -19792481.53943 -15411084.07342  21286591.405    21286590.718
  22957774.768   -13655753.29943 -10259599.72142  22957776.551    22957776.185
  22287309.179   -19280396.27243 -15002855.97642  22287311.320    22287309.555
  23742560.677    -2463787.16043  -1911406.45842  23742562.179    23742562.686
 03  4  6  1 21 30.0000000  0  8G14G 3G17G31G15G23G18G 9
  20236306.843   -25403641.35444 -19733928.75942  20236309.191    20236306.040
  22232081.451   -10556930.51543  -8183854.86542  22232083.315    22232083.627
  24086131.199    -4053042.14543  -2973948.98642  24086132.790    24086136.987
  22383603.571    -9707058.46043  -7289633.70342  22383605.396    22383605.003
  21299373.379   -19725304.13743 -15358738.06542  21299374.899    21299374.213
  22968396.023   -13599938.03243 -10216107.32742  22968397.774    22968397.340
  22298873.450   -19219626.54943 -14955502.96142  22298875.446    22298873.714
  23750606.470    -2421506.49043  -1878460.49742  23750607.918    23750608.397
 03  4  6  1 22  0.0000000  0  8G14G 3G17G31G15G23G18G 9
  20233810.792   -25416757.99644 -19744149.48442  20233813.191    20233810.053
  22242402.012   -10502696.24143  -8141594.44642  22242403.756    22242404.061
  24104958.052    -3954107.14143  -2896856.86542  24104959.807    24104964.110
  22385489.310    -9697148.56443  -7281911.70842  22385491.127    22385490.754
  21312233.138   -19657725.53943 -15306079.44442  21312234.635    21312234.046
  22979027.239   -13544069.76843 -10172573.62442  22979028.951    22979028.761
  22310459.280   -19158743.00643 -14908061.26342  22310461.256    22310459.479
  23758761.239    -2378651.94843  -1845067.34342  23758763.041    23758763.400
 03  4  6  1 22 30.0000000  0  8G14G 3G17G31G15G23G18G 9
  20231414.889   -25429347.98743 -19753959.83242  20231417.285    20231414.222
  22252800.137   -10448053.63843  -8099015.82542  22252801.903    22252802.286
  24123824.913    -3854960.88543  -2819600.14042  24123826.781    24123830.957
  22387480.914    -9686681.97643  -7273755.90142  22387482.722    22387482.579
  21325166.897   -19589758.76043 -15253118.35642  21325168.302    21325167.761
  22989666.346   -13488160.86043 -10129008.25542  22989668.018    22989667.953
  22322064.421   -19097758.28643 -14860540.72442  22322066.357    22322064.364
  23767022.839    -2335237.01343  -1811237.55842  23767024.498    23767025.191
 03  4  6  1 23  0.0000000  0  8G14G 3G17G31G15G23G18G 9
  20229121.304   -25441400.92844 -19763351.69842  20229123.597    20229120.455
  22263277.557   -10392994.52843  -8056112.67042  22263279.395    22263279.842
  24142733.798    -3755593.81243  -2742171.37542  24142735.480    24142739.659
  22389580.627    -9675648.89943  -7265158.71242  22389582.357    22389582.097
  21338176.232   -19521393.93743 -15199847.09542  21338177.597    21338177.230
  23000315.435   -13432200.63443 -10085402.91342  23000317.069    23000316.844
  22333690.893   -19036662.04943 -14812933.29542  22333692.747    22333690.693
  23775392.916    -2291252.42343  -1776963.85242  23775394.927    23775395.173
 03  4  6  1 23 30.0000000  0  8G14G 3G17G31G15G23G18G 9
  20226925.467   -25452940.06844 -19772343.19742  20226927.744    20226924.558
  22273829.711   -10337543.82243  -8012904.38442  22273831.545    22273831.842
  24161680.223    -3656029.95143  -2664589.24942  24161681.614    24161685.841
  22391783.519    -9664072.72443  -7256138.30642  22391785.313    22391784.893
  21351256.858   -19452654.49343 -15146283.90442  21351258.215    21351258.003
  23010969.796   -13376211.55243 -10041775.09342  23010971.494    23010971.202
  22345333.907   -18975477.16543 -14765256.78142  22345335.865    22345333.838
  23783866.925    -2246721.63743  -1742264.54342  23783869.173    23783869.400
 03  4  6  1 24  0.0000000  0  9G14G 3G17G31G25G15G23G18G 9
  20224831.612   -25463943.00644 -19780916.88642  20224833.929    20224830.834
  22284459.912   -10281681.14743  -7969375.07242  22284461.853    22284462.067
  24180668.283    -3556248.10043  -2586837.27242  24180669.471    24180673.977
  22394093.726    -9651931.74343  -7246677.79242  22394095.526    22394095.097
  24528937.458    -6224255.26653  -4812321.37052  24528941.270    24528949.215
  21364413.191   -19383518.17443 -15092411.47842  21364414.516    21364414.240
  23021633.914   -13320170.86843  -9998107.05042  23021635.582    23021635.413
  22356998.070   -18914181.32243 -14717493.80442  22357000.049    22356998.129
  23792449.009    -2201623.10143  -1707122.81242  23792450.975    23792451.542
 03  4  6  1 24 30.0000000  0  9G14G 3G17G31G25G15G23G18G 9
  20222835.875   -25474430.70844 -19789089.09342  20222838.166    20222835.120
  22295164.163   -10225429.43443  -7925542.59842  22295166.043    22295166.514
  24199693.447    -3456269.58543  -2508932.01842  24199694.695    24199699.702
  22396507.396    -9639247.29943  -7236793.82142  22396509.154    22396508.766
  24510291.329    -6322239.67343  -4888672.26842  24510295.297    24510302.548
  21377640.969   -19314006.35943 -15038246.46142  21377642.369    21377641.878
  23032303.992   -13264099.03043  -9954414.71742  23032305.666    23032305.519
  22368679.453   -18852794.69043 -14669660.07742  22368681.513    22368679.728
  23801135.167    -2155978.62043  -1671555.69342  23801137.101    23801137.477
 03  4  6  1 25  0.0000000  0  9G14G 3G17G31G25G15G23G18G 9
  20220941.538   -25484385.70044 -19796846.18742  20220943.867    20220940.704
  22305945.660   -10168773.16843  -7881394.88142  22305947.518    22305947.984
  24218759.708    -3356077.71343  -2430860.54642  24218760.831    24218765.785
  22399027.832    -9626002.63643  -7226473.31642  22399029.592    22399029.287
  24491635.147    -6420274.01843  -4965062.07842  24491639.419    24491646.665
  21390943.381   -19244102.01443 -14983775.56542  21390944.845    21390944.237
  23042983.480   -13207978.11543  -9910684.15442  23042985.092    23042984.953
  22380381.573   -18791300.15343 -14621742.28042  22380383.576    22380381.811
  23809927.749    -2109771.40643  -1635550.08342  23809929.896    23809930.627
 03  4  6  1 25 30.0000000  0  9G14G 3G17G31G25G15G23G18G 9
  20219144.923   -25493826.58743 -19804202.68942  20219147.247    20219144.106
  22316800.077   -10111732.98843  -7836948.04942  22316802.004    22316802.159
  24237862.745    -3255692.17443  -2352638.17442  24237864.218    24237868.737
  22401651.200    -9612216.72243  -7215731.07042  22401652.975    22401652.715
  24472967.007    -6518373.77243  -5041502.86542  24472970.844    24472978.138
  21404316.622   -19173823.85743 -14929013.39842  21404318.092    21404317.684
  23053668.849   -13151826.12243  -9866929.36042  23053670.461    23053670.236
  22392100.707   -18729716.00443 -14573754.66342  22392102.703    22392100.844
  23818823.846    -2063021.05143  -1599121.25442  23818826.003    23818826.968
 03  4  6  1 26  0.0000000  0  9G14G 3G17G31G25G15G23G18G 9
  20217448.589   -25502740.49544 -19811148.54742  20217450.911    20217447.779
  22327729.562   -10054297.69043  -7792193.32642  22327731.432    22327731.485
  24257004.418    -3155101.15943  -2274255.65642  24257006.188    24257010.842
  22404379.865    -9597877.23243  -7204557.44842  22404381.629    22404381.520
  24454289.349    -6616522.59143  -5117981.89642  24454292.960    24454300.626
  21417763.668   -19103159.56943 -14873950.34042  21417765.030    21417764.736
  23064362.756   -13095629.36543  -9823139.72242  23064364.447    23064364.125
  22403839.239   -18668028.88643 -14525686.79642  22403841.308    22403839.335
  23827825.957    -2015715.10543  -1562259.51642  23827827.959    23827828.967
 03  4  6  1 26 30.0000000  0  9G14G 3G17G31G25G15G23G18G 9
  20215858.824   -25511094.36843 -19817658.02442  20215861.136    20215858.024
  22338740.272    -9996436.16543  -7747106.46442  22338742.075    22338742.249
  24276191.016    -3054272.08943  -2195687.64142  24276193.023    24276198.167
  22407220.177    -9582951.56543  -7192927.06042  22407221.881    22407221.827
  24435609.370    -6714684.38343  -5194471.02042  24435612.923    24435620.693
  21431290.648   -19032075.86643 -14818560.47942  21431291.961    21431291.684
  23075071.649   -13039354.22843  -9779288.98342  23075073.298    23075072.944
  22415604.009   -18606205.12043 -14477512.44342  22415605.986    22415603.990
  23836939.691    -1967821.30543  -1524939.66942  23836941.849    23836942.548
 03  4  6  1 27  0.0000000  0  8G14G 3G31G25G15G23G18G 9
  20214368.157   -25518927.81544 -19823761.97542  20214370.418    20214367.349
  22349824.125    -9938189.98943  -7701719.88442  22349825.979    22349826.416
  22410164.435    -9567479.67543  -7180871.06342  22410166.135    22410165.908
  24416920.003    -6812895.69943  -5270998.72342  24416923.655    24416931.322
  21444889.617   -18960612.94143 -14762875.11342  21444891.032    21444890.696
  23085787.933   -12983039.60243  -9735407.45842  23085789.601    23085789.271
  22427387.169   -18544284.09743 -14429262.31742  22427389.115    22427387.161
  23846157.727    -1919380.23143  -1487193.34742  23846159.886    23846160.272
 03  4  6  1 27 30.0000000  0  8G14G 3G31G25G15G23G18G 9
  20212978.035   -25526232.93944 -19829454.24442  20212980.304    20212977.185
  22360982.492    -9879553.26043  -7656028.97442  22360984.296    22360984.821
  22413214.004    -9551454.34143  -7168383.82742  22413215.694    22413215.436
  24398223.364    -6911145.55243  -5347556.48942  24398227.056    24398234.373
  21458562.088   -18888763.04843 -14706888.21742  21458563.519    21458563.135
  23096513.277   -12926677.00743  -9691488.56542  23096514.980    23096514.734
  22439190.503   -18482257.65643 -14380930.05042  22439192.423    22439190.357
  23855481.538    -1870384.58343  -1449014.89242  23855483.569    23855483.768
 03  4  6  1 28  0.0000000  0  8G14G 3G31G25G15G23G18G 9
  20211687.300   -25533015.77244 -19834739.52742  20211689.607    20211686.367
  22372213.437    -9820533.75043  -7610039.79742  22372215.327    22372215.888
  22416367.781    -9534882.03143  -7155470.37642  22416369.529    22416369.141
  24379518.677    -7009436.75443  -5424146.49442  24379522.518    24379529.632
  21472307.089   -18816532.57243 -14650604.75842  21472308.413    21472308.006
  23107246.863   -12870271.50043  -9647536.23542  23107248.560    23107248.439
  22451012.837   -18420131.39643 -14332520.00042  22451014.772    22451012.604
  23864909.595    -1820841.06143  -1410409.56542  23864911.675    23864911.342
 03  4  6  1 28 30.0000000  0  8G14G 3G31G25G15G23G18G 9
  20210493.055   -25539291.37744 -19839629.56942  20210495.392    20210492.079
  22383514.178    -9761148.54443  -7563765.66942  22383515.951    22383516.505
  22419622.274    -9517778.29443  -7142142.78442  22419624.206    22419623.974
  24360803.799    -7107780.61643  -5500777.52042  24360807.712    24360814.897
  21486121.724   -18743936.78143 -14594036.65042  21486122.996    21486122.600
  23117986.059   -12813837.47943  -9603561.69042  23117987.702    23117987.451
  22462851.312   -18357919.94043 -14284043.54842  22462853.339    22462851.114
  23874438.438    -1770765.65243  -1371389.76742  23874440.645    23874440.279
 03  4  6  1 29  0.0000000  0  8G14G 3G31G25G15G23G18G 9
  20209398.929   -25545040.77744 -19844109.59542  20209401.258    20209398.002
  22394887.770    -9701380.28743  -7517193.05842  22394889.530    22394890.066
  22422981.600    -9500124.68043  -7128386.73542  22422983.428    22422983.431
  24342083.369    -7206155.07943  -5577432.41342  24342086.967    24342094.396
  21500009.467   -18670956.69643 -14537169.08142  21500010.752    21500010.401
  23128734.306   -12757355.12643  -9559549.49042  23128735.960    23128735.731
  22474709.714   -18295603.82143 -14235485.56242  22474711.738    22474709.404
  23884072.119    -1720140.04243  -1331941.26542  23884074.003    23884074.120
 03  4  6  1 29 30.0000000  0  8G14G 3G31G25G15G23G18G 9
  20208402.370   -25550277.82544 -19848190.38342  20208404.652    20208401.412
  22406331.251    -9641244.84543  -7470334.33342  22406333.005    22406333.610
  22426442.795    -9481935.70343  -7114213.50342  22426444.608    22426444.754
  24323355.023    -7304570.89743  -5654119.52542  24323358.485    24323366.086
  21513967.492   -18597606.35243 -14480013.00442  21513968.845    21513968.691
  23139489.249   -12700837.75343  -9515509.99142  23139490.870    23139490.674
  22486585.406   -18233196.55843 -14186856.55742  22486587.477    22486585.071
  23893807.575    -1668979.11643  -1292075.63142  23893809.520    23893810.218
 03  4  6  1 30  0.0000000  0  8G14G 3G31G25G15G23G18G 9
  20207503.396   -25555001.67544 -19851871.26742  20207505.687    20207502.425
  22417844.286    -9580743.18943  -7423190.22242  22417846.107    22417846.923
  22430006.096    -9463211.01243  -7099622.85342  22430007.910    22430007.956
  24304619.591    -7403023.77843  -5730835.53642  24304623.044    24304630.678
  21527996.290   -18523885.20543 -14422567.99142  21527997.630    21527997.434
  23150251.148   -12644283.78243  -9471441.97742  23150252.825    23150252.600
  22498478.870   -18170696.75543 -14138155.43742  22498480.871    22498478.299
  23903645.225    -1617282.56143  -1251792.60542  23903647.288    23903648.223
 03  4  6  1 30 30.0000000  0  8G14G 3G31G25G15G23G18G 9
  20206701.873   -25559213.92044 -19855153.50942  20206704.147    20206700.790
  22429426.496    -9519878.52743  -7375763.26642  22429428.326    22429429.022
  22433670.811    -9443952.73443  -7084616.43142  22433672.623    22433672.558
  24285877.436    -7501512.08643  -5807579.14142  24285880.899    24285888.417
  21542094.951   -18449795.21343 -14364835.55942  21542096.401    21542096.149
  23161019.746   -12587693.73243  -9427345.86542  23161021.483    23161021.331
  22510389.435   -18108105.40443 -14089382.96942  22510391.591    22510389.085
  23913584.079    -1565052.98443  -1211094.25742  23913586.173    23913587.282
 03  4  6  1 31  0.0000000  0  8G14G 3G31G25G15G23G18G 9
  20206003.129   -25562885.53744 -19858014.48842  20206005.421    20206002.130
  22441082.869    -9458624.00443  -7328032.52142  22441084.681    22441085.268
  22437442.470    -9424132.38243  -7069172.02042  22437444.273    22437444.262
  24267134.861    -7600003.10943  -5884324.89242  24267138.339    24267145.500
  21556269.546   -18375307.79343 -14306793.45442  21556270.896    21556270.565
  23171800.870   -12531037.85043  -9383198.44742  23171802.601    23171802.539
  22522323.105   -18045393.06743 -14040516.21742  22522325.239    22522322.940
  23923629.983    -1512261.94143  -1169958.37742  23923631.934    23923633.079
 03  4  6  1 31 30.0000000  0  8G14G 3G31G25G15G23G18G 9
  20205404.232   -25566032.55143 -19860466.67942  20205406.525    20205403.288
  22452810.176    -9396997.11343  -7280011.63642  22452811.968    22452812.471
  22441318.118    -9403766.35943  -7053302.40942  22441319.865    22441319.921
  24248389.608    -7698509.15943  -5961082.33742  24248392.881    24248399.790
  21570516.863   -18300438.67843 -14248453.92742  21570518.169    21570517.736
  23182591.659   -12474330.95843  -9339011.28342  23182593.324    23182593.456
  22534276.990   -17982574.77943 -13991566.91442  22534279.123    22534276.877
  23933779.375    -1458926.13443  -1128397.97142  23933781.519    23933782.295
 03  4  6  1 32  0.0000000  0  8G14G 3G31G25G15G23G18G 9
  20204903.618   -25568663.57544 -19862516.80542  20204905.876    20204902.572
  22464606.169    -9335008.58143  -7231708.93342  22464608.016    22464608.644
  22445295.733    -9382863.98143  -7037014.84442  22445297.489    22445297.577
  24229640.174    -7797035.64843  -6037855.71742  24229643.466    24229650.408
  21584834.943   -18225196.74843 -14189823.89442  21584836.316    21584835.895
  23193391.019   -12417581.14443  -9294790.65642  23193392.600    23193392.552
  22546249.597   -17919658.69043 -13942541.42142  22546251.757    22546249.369
  23944030.707    -1405055.07943  -1086420.54342  23944032.622    23944033.349
 03  4  6  1 32 30.0000000  0  9G14G 3G31G25G11G15G23G18G 9
  20204502.496   -25570771.27444 -19864159.14542  20204504.798    20204501.484
  22476472.246    -9272652.73943  -7183120.02842  22476474.010    22476474.491
  22449376.765    -9361418.22143  -7020303.88142  22449378.520    22449378.452
  24210888.864    -7895572.01343  -6114636.80742  24210892.181    24210899.152
  24637942.040
  21599225.422   -18149574.77743 -14130897.71542  21599226.884    21599226.330
  23204199.948   -12360779.87543  -9250529.96042  23204201.580    23204201.551
  22558242.302   -17856636.97743 -13893433.62142  22558244.396    22558242.032
  23954385.059    -1350642.19243  -1044020.92242  23954386.997    23954387.751
 03  4  6  1 33  0.0000000  0  9G14G 3G31G25G11G15G23G18G 9
  20204197.892   -25572371.83644 -19865406.31042  20204200.220    20204196.928
  22488404.913    -9209947.45943  -7134258.82742  22488406.633    22488406.914
  22453558.010    -9339446.05343  -7003182.73542  22453559.777    22453559.544
  24192133.580    -7994130.95343  -6191435.48642  24192136.605    24192143.592
  24618867.530     -953842.84653   -737411.60952  24618866.284    24618864.897
  21613684.864   -18073589.30043 -14071688.29142  21613686.419    21613685.928
  23215015.952   -12303942.50543  -9206241.12542  23215017.520    23215017.307
  22570252.079   -17793525.15143 -13844255.59942  22570254.198    22570251.849
  23964839.410    -1295704.41443  -1001212.27142  23964841.546    23964842.069
 03  4  6  1 33 30.0000000  0  9G14G 3G31G25G11G15G23G18G 9
  20203990.846   -25573459.56144 -19866253.86842  20203993.155    20203989.895
  22500404.541    -9146888.97743  -7085122.41042  22500406.391    22500406.573
  22457840.287    -9316942.25343  -6985647.31242  22457842.035    22457841.849
  24173375.450    -8092702.96943  -6268244.34842  24173378.657    24173385.476
  24599807.453    -1053997.22943   -815453.83842  24599807.769    24599808.179
  21628214.694   -17997234.74343 -14012191.28042  21628216.193    21628215.695
  23225839.674   -12247062.37043  -9161918.96342  23225841.479    23225841.313
  22582280.262   -17730316.82543 -13795002.38342  22582282.370    22582280.118
  23975394.409    -1240237.16943   -957990.98342  23975396.702    23975396.869
 03  4  6  1 34  0.0000000  0  9G14G 3G31G25G11G15G23G18G 9
  20203881.123   -25574036.30444 -19866703.25542  20203883.397    20203880.042
  22512470.341    -9083481.04043  -7035713.68642  22512472.310    22512472.698
  22462223.413    -9293909.29843  -6967699.57842  22462225.109    22462224.881
  24154615.194    -8191286.35143  -6345062.10142  24154618.499    24154625.179
  24580757.359    -1154092.05643   -893449.65142  24580760.127    24580760.715
  21642814.342   -17920513.06343 -13952408.18642  21642815.863    21642815.360
  23236671.758   -12190140.17443  -9117564.05642  23236673.490    23236673.394
  22594326.507   -17667013.50243 -13745675.15842  22594328.587    22594326.463
  23986049.673    -2759662.75653  -2141958.96252  23986051.561    23986052.219
 03  4  6  1 34 30.0000000  0  9G14G 3G31G25G11G15G23G18G 9
  20203866.562   -25574112.86244 -19866762.88742  20203868.848    20203865.463
  22524600.712    -9019736.21143  -6986042.45942  22524602.547    22524602.935
  22466704.893    -9270358.56543  -6949348.35842  22466706.673    22466706.488
  24135851.530    -8289888.45143  -6421894.43042  24135854.853    24135861.360
  24561719.603    -1254135.57043   -971405.45642  24561722.451    24561723.142
  21657481.819   -17843435.35743 -13892347.69042  21657483.315    21657482.848
  23247509.711   -12133185.78343  -9073184.04442  23247511.430    23247511.488
  22606389.011   -17603624.92243 -13696281.49042  22606391.033    22606388.966
  23996803.717    -2703153.00443  -2097925.45942  23996804.578    23996806.036
 03  4  6  1 35  0.0000000  0  9G14G 3G31G25G11G15G23G18G 9
  20203950.969   -25573669.00444 -19866417.00342  20203953.308    20203949.898
  22536798.831    -8955635.74243  -6936094.12242  22536800.592    22536801.006
  22471288.708    -9246270.22043  -6930578.22742  22471290.554    22471290.491
  24117088.783    -8388485.43343  -6498722.79642  24117092.002    24117098.273
  24542695.808    -1354104.54043  -1049303.15742  24542698.622    24542699.111
  21672220.750   -17765981.31343 -13831993.91442  21672222.316    21672221.977
  23258357.913   -12076177.85743  -9028762.30742  23258359.565    23258359.769
  22618471.403   -17540130.10643 -13646805.04542  22618473.540    22618471.630
  24007659.104    -2646108.16243  -2053474.97042  24007660.533    24007661.651
 03  4  6  1 35 30.0000000  0  9G14G 3G31G25G11G15G23G18G 9
  20204132.438   -25572715.11044 -19865673.68642  20204134.787    20204131.365
  22549062.192    -8891191.95843  -6885878.25342  22549063.941    22549064.545
  22475972.819    -9221655.38343  -6911397.86742  22475974.584    22475974.662
  24098325.809    -8487084.30943  -6575552.61242  24098328.974    24098334.861
  24523685.078    -1454006.50443  -1127148.77142  24523687.833    24523688.155
  21687029.379   -17688161.77743 -13771355.35942  21687030.883    21687030.591
  23269214.815   -12019125.70543  -8984306.10042  23269216.377    23269216.485
  22630572.501   -17476538.85343 -13597253.43642  22630574.534    22630572.675
  24018614.067    -2588539.78743  -2008616.51342  24018615.980    24018616.648
 03  4  6  1 36  0.0000000  0  9G14G 3G31G25G11G15G23G18G 9
  20204415.025   -25571230.15144 -19864516.56042  20204417.373    20204413.966
  22561394.325    -8826385.54143  -6835379.83342  22561396.161    22561396.830
  22480760.872    -9196493.57643  -6891791.28842  22480762.657    22480762.646
  24079567.251    -8585660.11643  -6652364.43942  24079570.560    24079575.958
  24504691.270    -1553817.53743  -1204923.45642  24504694.035    24504694.639
  21701911.582   -17609955.90043 -13710415.75342  21701912.989    21701912.743
  23280084.292   -11962007.29443  -8939798.28742  23280085.805    23280085.789
  22642696.101   -17412829.23043 -13547609.59642  22642698.160    22642696.384
  24029672.364    -2530427.27843  -1963334.09842  24029674.358    24029674.937
 03  4  6  1 36 30.0000000  0  9G14G 3G31G25G11G15G23G18G 9
  20204793.323   -25569242.35144 -19862967.60842  20204795.687    20204792.255
  22573789.808    -8761246.29943  -6784622.05342  22573791.665    22573792.426
  22485647.617    -9170813.50143  -6871780.86842  22485649.379    22485649.408
  24060808.226    -8684237.27643  -6729177.36942  24060811.711    24060816.852
  24485710.070    -1653562.81443  -1282646.91442  24485712.486    24485713.692
  21716861.942   -17531391.71743 -13649196.95542  21716863.382    21716863.060
  23290961.049   -11904849.60743  -8895259.87042  23290962.660    23290962.557
  22654837.003   -17349028.50243 -13497894.79042  22654838.995    22654837.445
  24040829.072    -2471799.45543  -1917650.11442  24040831.144    24040831.302
 03  4  6  1 37  0.0000000  0  9G14G 3G31G25G11G15G23G18G 9
  20205266.778   -25566753.93744 -19861028.56842  20205269.120    20205265.773
  22586248.118    -8695778.50743  -6733608.25442  22586249.933    22586250.673
  22490632.594    -9144618.20343  -6851368.96742  22490634.316    22490634.226
  24042049.255    -8782814.91343  -6805990.68542  24042052.562    24042057.631
  24466741.766    -1753241.53943  -1360318.52442  24466744.222    24466745.419
  21731879.842   -17452472.03043 -13587701.14042  21731881.379    21731880.955
  23301845.197   -11847653.95643  -8850691.86942  23301846.736    23301846.547
  22666994.842   -17285138.19743 -13448110.16842  22666996.869    22666995.423
  24052082.756    -2412659.98143  -1871567.42442  24052085.026    24052084.972
 03  4  6  1 37 30.0000000  0  9G14G 3G31G25G11G15G23G18G 9
  20205839.810   -25563742.52944 -19858681.99442  20205842.212    20205838.769
  22598772.789    -8629961.34343  -6682322.22642  22598774.683    22598775.366
  22495719.608    -9117885.74743  -6830538.49442  22495721.354    22495721.331
  24023294.976    -8881366.92643  -6882784.02542  24023298.253    24023303.413
  24447791.236    -1852828.27343  -1437918.46742  24447793.480    24447794.888
  21746969.637   -17373174.36643 -13525910.80342  21746971.152    21746970.781
  23312740.949   -11790396.61443  -8806075.78442  23312742.493    23312742.292
  22679174.250   -17221135.12543 -13398237.66642  22679176.202    22679174.634
  24063438.120    -2352987.02343  -1825069.04442  24063440.309    24063440.188
 03  4  6  1 38  0.0000000  0  9G14G 3G31G25G11G15G23G18G 9
  20206506.816   -25560237.25944 -19855950.59042  20206509.238    20206505.752
  22611357.928    -8563825.64343  -6630787.98342  22611359.880    22611360.648
  22500903.295    -9090645.80443  -6809312.58642  22500904.947    22500904.957
  24004540.549    -8979918.47743  -6959576.99042  24004543.982    24004549.372
  24428852.909    -1952349.41443  -1515467.25642  24428855.324    24428856.590
  21762125.755   -17293527.97843 -13463848.72042  21762127.223    21762126.941
  23323643.002   -11733105.55743  -8761433.43742  23323644.622    23323644.525
  22691369.588   -17157047.56543 -13348299.32942  22691371.573    22691370.068
  24074889.216    -2292810.65053  -1778178.36852  24074891.500    24074891.602
 03  4  6  1 38 30.0000000  0  9G14G 3G31G25G11G15G23G18G 9
  20207270.679   -25556223.24444 -19852822.76342  20207273.076    20207269.547
  22624006.212    -8497358.23943  -6578995.25642  22624008.022    22624008.958
  22506186.227    -9062884.06443  -6787680.09242  22506187.898    22506187.876
  23985790.353    -9078450.58343  -7036354.84142  23985793.481    23985799.018
  24409930.629    -2051786.53143  -1592950.62142  24409933.183    24409934.497
  21777351.503   -17213517.75643 -13401503.14242  21777352.819    21777352.471
  23334554.484   -11675764.61743  -8716752.21342  23334556.077    23334556.048
  22703584.404   -17092859.67443 -13298282.80842  22703586.259    22703584.601
  24086438.878    -2232116.60243  -1730884.32342  24086441.357    24086441.275
 03  4  6  1 39  0.0000000  0  9G14G 3G31G25G11G15G23G18G 9
  20208129.475   -25551710.46044 -19849306.28942  20208131.840    20208128.301
  22636715.749    -8430570.58643  -6526953.00242  22636717.413    22636718.356
  22511566.220    -9034611.17543  -6765649.29642  22511567.922    22511568.008
  23967042.506    -9176970.00543  -7113122.80542  23967045.545    23967051.159
  24391022.570    -2151146.90143  -1670374.11742  24391025.349    24391026.731
  21792644.359   -17133153.97043 -13338882.05842  21792645.710    21792645.212
  23345473.818   -11618382.57343  -8672038.95242  23345475.404    23345475.447
  22715816.275   -17028580.61243 -13248195.25942  22715818.141    22715816.413
  24098084.779    -2170915.80653  -1683195.41252  24098087.270    24098087.389
 03  4  6  1 39 30.0000000  0  9G14G 3G31G25G11G15G23G18G 9
  20209081.672   -25546706.18944 -19845406.84342  20209084.039    20209080.606
  22649484.237    -8363471.91643  -6474668.38842  22649485.902    22649486.824
  22517042.215    -9005835.01843  -6743226.34142  22517043.873    22517043.806
  23948296.597    -9275479.98843  -7189883.41942  23948299.557    23948305.008
  24372128.455    -2250434.72443  -1747740.99342  24372131.282    24372132.962
  21808002.951   -17052443.97143 -13275991.20142  21808004.352    21808003.809
  23356400.200   -11560965.48343  -8627298.41042  23356401.621    23356401.630
  22728064.317   -16964216.76943 -13198041.65042  22728066.178    22728064.455
  24109825.775    -2109216.22153  -1635117.87552  24109828.026    24109828.555
 03  4  6  1 40  0.0000000  0  9G14G 3G31G25G11G15G23G18G 9
  20210129.490   -25541199.95644 -19841116.24742  20210131.798    20210128.447
  22662313.779    -8296053.04343  -6422134.29042  22662315.406    22662316.130
  22522615.856    -8976545.52643  -6720403.37842  22522617.575    22522617.405
  23929554.903    -9373966.11843  -7266625.44242  23929557.997    23929563.347
  24353250.816    -2349636.15843  -1825040.72942  24353253.840    24353254.785
  21823429.218   -16971377.40443 -13212822.48642  21823430.740    21823430.371
  23367335.195   -11503501.38943  -8582521.22242  23367336.681    23367336.565
  22740330.809   -16899756.53143 -13147812.91442  22740332.624    22740330.856
  24121663.769    -2047008.13743  -1586644.07142  24121665.853    24121666.192
 03  4  6  1 40 30.0000000  0  9G14G 3G31G25G11G15G23G18G 9
  20211273.631   -25535187.21744 -19836430.97342  20211275.975    20211272.589
  22675204.661    -8228311.56143  -6369348.79542  22675206.254    22675207.080
  22528287.879    -8946739.05643  -6697177.56642  22528289.640    22528289.374
  23910819.458    -9472420.00843  -7343342.33742  23910822.525    23910827.814
  24334391.071    -2448743.68243  -1902267.09442  24334393.994    24334395.621
  21838924.424   -16889949.99443 -13149372.60842  21838925.818    21838925.619
  23378280.355   -11445984.63343  -8537702.99242  23378281.801    23378281.706
  22752616.734   -16835194.50843 -13097504.86742  22752618.570    22752616.689
  24133598.868    -1984288.04643  -1537771.25242  24133601.371    24133601.551
 03  4  6  1 41  0.0000000  0  9G14G 3G31G25G11G15G23G18G 9
  20212514.218   -25528667.92544 -19831350.97942  20212516.530    20212513.140
  22688156.514    -8160248.98043  -6316313.07342  22688158.162    22688159.142
  22534058.238    -8916416.11243  -6673549.32942  22534059.937    22534059.714
  23892090.657    -9570838.02643  -7420031.27642  23892093.857    23892098.969
  24315549.911    -2547754.18443  -1979417.93142  24315552.595    24315553.806
  21854488.412   -16808161.72243 -13085641.54142  21854489.663    21854489.506
  23389235.663   -11388413.84143  -8492842.65642  23389237.190    23389237.178
  22764922.038   -16770529.64743 -13047116.68942  22764923.945    22764922.299
  24145631.395    -1921056.41643  -1488499.84042  24145633.698    24145633.869
 03  4  6  1 41 30.0000000  0  9G14G 3G31G25G11G15G23G18G 9
  20213849.075   -25521653.36344 -19825885.06542  20213851.356    20213847.975
  22701167.204    -8091878.06343  -6263037.11042  22701168.818    22701169.686
  22539924.523    -8885588.55843  -6649527.90542  22539926.182    22539926.034
  23873367.560    -9669227.64543  -7496698.11042  23873370.823    23873375.492
  24296725.711    -2646675.68543  -2056499.39242  24296728.348    24296729.346
  21870118.677   -16726024.26843 -13021638.38342  21870119.959    21870119.810
  23400199.399   -11330798.97943  -8447947.98242  23400201.019    23400201.146
  22777244.749   -16705772.25643 -12996656.40842  22777246.724    22777245.233
  24157759.044    -1857325.77243  -1438839.59242  24157761.319    24157761.062
 03  4  6  1 42  0.0000000  0  9G14G 3G31G25G11G15G23G18G 9
  20215277.815   -25514144.78744 -19820034.20442  20215280.096    20215276.762
  22714235.848    -8023201.65943  -6209523.10042  22714237.538    22714238.350
  22545886.418    -8854258.26243  -6625114.70642  22545888.051    22545887.952
  23854650.420    -9767586.02143  -7573340.62242  23854653.605    23854658.043
  24277918.930    -2745506.02243  -2133509.89242  24277921.256    24277922.055
  21885814.935   -16643538.76143 -12957364.01142  21885816.277    21885816.249
  23411171.716   -11273139.88343  -8403018.86242  23411173.252    23411173.347
  22789585.279   -16640922.33743 -12946124.02542  22789587.206    22789585.733
  24169981.644    -1793097.92343  -1388791.89842  24169984.006    24169983.032
 03  4  6  1 42 30.0000000  0  9G14G 3G31G25G11G15G23G18G 9
  20216799.872   -25506146.44244 -19813801.70142  20216802.197    20216798.727
  22727361.635    -7954225.63343  -6155775.62342  22727363.266    22727364.081
  22551943.195    -8822430.11443  -6600313.56742  22551944.779    22551944.700
  23835938.961    -9865913.65843  -7649959.21542  23835942.006    23835946.592
  24259129.257    -2844246.34543  -2210450.15342  24259131.736    24259132.162
  21901576.967   -16560709.20143 -12892821.55242  21901578.168    21901578.311
  23422151.454   -11215439.50043  -8358057.53842  23422153.074    23422153.350
  22801942.813   -16575983.21143 -12895522.14142  22801944.683    22801943.332
  24182297.183    -1728377.96743  -1338360.83042  24182299.277    24182299.452
 03  4  6  1 43  0.0000000  0  9G14G 3G31G25G11G15G23G18G 9
  20218418.181   -25497642.10444 -19807174.91342  20218420.530    20218417.020
  22740547.149    -7884935.59643  -6101783.45542  22740548.784    22740549.640
  22558097.714    -8790088.48543  -6575112.33142  22558099.326    22558099.070
  23817237.467    -9964190.27643  -7726538.03342  23817240.361    23817244.964
  24240360.207    -2942877.24443  -2287305.25542  24240362.791    24240362.274
  21917407.551   -16477519.51243 -12827998.46442  21917408.724    21917408.966
  23433142.891   -11157679.91043  -8313050.10842  23433144.424    23433144.619
  22814320.620   -16510937.54843 -12844837.24842  22814322.500    22814321.093
  24194709.696    -1663150.64443  -1287534.34542  24194711.738    24194711.799
 03  4  6  1 43 30.0000000  0  9G14G 3G31G25G11G15G23G18G 9
  20220129.414   -25488649.55444 -19800167.71142  20220131.750    20220128.236
  22753788.799    -7815351.18843  -6047561.92842  22753790.460    22753791.152
  22564346.333    -8757252.07443  -6549525.56242  22564348.001    22564347.542
  23798542.745   -10062429.85943  -7803087.98142  23798545.658    23798550.254
  24221609.310    -3041413.35843  -2364086.45042  24221611.936    24221611.431
  21933303.116   -16393987.96843 -12762909.00742  21933304.333    21933304.502
  23444142.424   -11099877.93443  -8268009.63742  23444143.927    23444144.056
  22826715.690   -16445802.37743 -12794082.61842  22826717.438    22826715.735
  24207215.123    -1597434.77743  -1236327.15342  24207217.198    24207216.742
 03  4  6  1 44  0.0000000  0  9G14G 3G31G25G11G15G23G18G 9
  20221935.555   -25479157.96044 -19792771.64642  20221937.934    20221934.408
  22767088.074    -7745462.66043  -5993103.40342  22767089.757    22767090.716
  22570691.033    -8723910.28343  -6523544.97242  22570692.757    22570692.374
  23779857.987   -10160617.23843  -7879597.28642  23779860.930    23779865.484
  24202879.212    -3139840.21443  -2440782.58042  24202881.776    24202881.218
  21949266.035   -16310103.34143 -12697544.42542  21949267.252    21949267.081
  23455152.187   -11042020.95843  -8222926.29842  23455153.724    23455153.905
  22839129.790   -16380565.32843 -12743248.59142  22839131.686    22839129.962
  24219815.544    -1531220.08643  -1184731.25142  24219818.037    24219816.991
 03  4  6  1 44 30.0000000  0  9G14G 3G31G25G11G15G23G18G 9
  20223835.266   -25469174.65044 -19784992.42242  20223837.631    20223834.162
  22780443.538    -7675278.88243  -5938414.83142  22780445.240    22780446.399
  22577130.357    -8690071.19843  -6497176.86442  22577132.043    22577131.782
  23761182.524   -10258756.00143  -7956068.70642  23761185.527    23761190.025
  24184169.224    -3238161.59243  -2517396.49742  24184171.818    24184170.946
  21965294.637   -16225873.02643 -12631910.48942  21965295.923    21965295.544
  23466171.393   -10984115.04843  -8177804.84542  23466172.979    23466173.065
  22851562.220   -16315232.63843 -12692340.01242  22851564.124    22851562.541
  24232509.120    -1464514.48443  -1132752.87242  24232511.780    24232511.018
 03  4  6  1 45  0.0000000  0  9G14G 3G31G25G11G15G23G18G 9
  20225827.543   -25458705.12344 -19776834.33442  20225829.860    20225826.471
  22793853.953    -7604807.14243  -5883501.84842  22793855.640    22793856.931
  22583663.356    -8655740.93443  -6470426.03142  22583665.024    22583664.818
  23742516.196   -10356847.96243  -8032503.65942  23742519.216    23742523.501
  24165478.790    -3336380.03443  -2593930.34242  24165481.378    24165480.001
  21981387.676   -16141302.61743 -12566011.53142  21981389.037    21981388.792
  23477199.205   -10926164.14143  -8132648.31942  23477200.763    23477200.814
  22864011.987   -16249808.66243 -12641360.30942  22864013.818    22864012.361
  24245294.667    -1397324.46443  -1080396.97942  24245297.404    24245296.915
 03  4  6  1 45 30.0000000  0  9G14G 3G31G25G11G15G23G18G 9
  20227909.980   -25447761.72744 -19768306.99842  20227912.261    20227908.946
  22807316.313    -7534061.43243  -5828375.41042  22807318.085    22807319.347
  22590287.110    -8620932.54843  -6443302.62342  22590288.879    22590288.745
  23723856.993   -10454900.83943  -8108908.16142  23723860.192    23723864.333
  24146806.037    -3434504.22943  -2670390.62342  24146808.761    24146807.422
  21997543.135   -16056404.82843 -12499857.44942  21997544.505    21997544.374
  23488233.311   -10868179.17143  -8087465.25042  23488234.956    23488235.127
  22876476.935   -16184304.73843 -12590318.30742  22876478.829    22876477.358
  24258170.457    -1329663.46643  -1027674.08442  24258173.146    24258172.248
 03  4  6  1 46  0.0000000  0  9G14G 3G31G25G11G15G23G18G 9
  20230088.891   -25436311.33844 -19759384.60842  20230091.164    20230087.867
  22820837.127    -7463009.99243  -5773010.74342  22820838.751    22820839.884
  22597007.981    -8585613.71243  -6415781.46942  22597009.749    22597009.755
  23705212.382   -10552877.74143  -8185253.46342  23705215.563    23705219.396
  24128158.356    -3532498.13843  -2746749.43842  24128161.263    24128159.605
  22013767.411   -15971146.33843 -12433422.31742  22013768.784    22013768.677
  23499280.661   -10810125.50843  -8042228.65042  23499282.254    23499282.404
  22888963.803   -16118686.49443 -12539187.23042  22888965.693    22888964.092
  24271141.923    -1261499.15743   -974559.01542  24271144.702    24271143.532
 03  4  6  1 46 30.0000000  0  9G14G 3G31G25G11G15G23G18G 9
  20232361.011   -25424371.30244 -19750080.66642  20232363.271    20232359.955
  22834412.651    -7391671.70543  -5717422.54142  22834414.248    22834415.237
  22603822.810    -8549802.17543  -6387876.43742  22603824.519    22603824.378
  23686579.751   -10650791.88643  -8261549.87342  23686582.855    23686586.479
  24109532.680    -3630375.26143  -2823017.21242  24109535.846    24109534.169
  22030056.918   -15885544.50743 -12366719.65842  22030058.250    22030058.250
  23510338.045   -10752018.89743  -7996950.79942  23510339.651    23510339.533
  22901469.385   -16052969.86343 -12487979.48142  22901471.284    22901469.589
  24284205.390    -1192849.55043   -921065.82942  24284208.371    24284207.301
 03  4  6  1 47  0.0000000  0  9G14G 3G31G25G11G15G23G18G 9
  20234727.302   -25411936.39244 -19740391.11242  20234729.570    20234726.190
  22848043.044    -7320042.90843  -5661607.96642  22848044.752    22848045.979
  22610732.080    -8513493.54843  -6359584.03342  22610733.779    22610733.632
  23667960.636   -10748634.03543  -8337790.17142  23667963.788    23667967.195
  24090930.773    -3728127.04843  -2899187.28342  24090933.923    24090932.812
  22046412.844   -15799594.27143 -12299745.51142  22046414.116    22046414.038
  23521406.726   -10693852.54643  -7951626.39942  23521408.313    23521408.113
  22913994.796   -15987148.65443 -12436690.25542  22913996.838    22913994.934
  24297361.926    -1123710.45143   -867191.23242  24297364.959    24297363.714
 03  4  6  1 47 30.0000000  0  9G14G 3G31G25G11G15G23G18G 9
  20237182.186   -25399035.86444 -19730338.73842  20237184.446    20237181.006
  22861723.030    -7248154.60743  -5605591.18042  22861724.721    22861726.018
  22617730.188    -8476717.70943  -6330927.55042  22617731.925    22617731.857
  23649350.516   -10846429.40643  -8413994.01342  23649353.497    23649356.897
  24072347.572    -3825779.50143  -2975279.99542  24072350.860    24072350.047
  22062829.423   -15713324.74743 -12232522.56742  22062830.768    22062830.542
  23532481.503   -10635654.11943  -7906276.99242  23532483.077    23532483.148
  22926534.800   -15921250.69243 -12385341.20442  22926536.919    22926534.801
  24310605.652    -1054111.70043   -812958.45742  24310609.146    24310607.982
 03  4  6  1 48  0.0000000  0  9G14G 3G31G25G11G15G23G18G 9
  20239727.746   -25385658.39944 -19719914.72942  20239729.997    20239726.584
  22875454.170    -7175996.79643  -5549364.38442  22875455.848    22875457.226
  22624819.455    -8439463.93843  -6301898.65342  22624821.109    22624821.078
  23630752.236   -10944162.43043  -8490149.31342  23630754.963    23630758.685
  24053786.798    -3923317.26643  -3051283.31342  24053789.784    24053789.184
  22079308.895   -15626724.75743 -12165042.13242  22079310.223    22079309.994
  23543564.956   -10577410.67643  -7860892.50242  23543566.483    23543566.603
  22939091.709   -15855263.51043 -12333922.65042  22939093.804    22939091.676
  24323939.418     -984042.91343   -758359.30942  24323943.128    24323941.927
 03  4  6  1 48 30.0000000  0  9G14G 3G31G25G11G15G23G18G 9
  20242361.945   -25371815.52444 -19709128.06742  20242364.178    20242360.832
  22889234.388    -7103582.53243  -5492937.77842  22889235.991    22889237.404
  22631997.164    -8401744.52843  -6272506.93142  22631998.832    22631998.898
  23612164.539   -11041840.54243  -8566261.79942  23612166.986    23612170.979
  24035246.321    -4020748.62843  -3127203.79342  24035249.231    24035248.646
  22095849.106   -15539805.89243 -12097313.20842  22095850.427    22095850.184
  23554654.940   -10519132.17243  -7815480.71542  23554656.569    23554656.516
  22951663.702   -15789197.43243 -12282442.59942  22951665.854    22951663.628
  24337360.125     -913516.27843   -703403.43642  24337363.806    24337362.894
 03  4  6  1 49  0.0000000  0  9G14G 3G31G25G11G15G23G18G 9
  20245089.458   -25357482.86044 -19697959.74642  20245091.685    20245088.263
  22903067.647    -7030888.83143  -5436293.40042  22903069.394    22903070.655
  22639268.063    -8363535.70043  -6242733.84442  22639269.722    22639269.715
  23593592.684   -11139435.15743  -8642309.22442  23593595.175    23593599.019
  24016731.422    -4118045.71443  -3203019.58242  24016734.283    24016733.771
  22112454.524   -15452543.67543 -12029316.73442  22112455.865    22112455.840
  23565756.659   -10460792.54243  -7770021.29142  23565758.140    23565758.029
  22964255.465   -15723026.43143 -12230880.79242  22964257.659    22964255.565
  24350872.338     -842508.59543   -648072.73842  24350875.757    24350875.108
 03  4  6  1 49 30.0000000  0  8G14G 3G31G25G11G15G23G18
  20247910.372   -25342658.84844 -19686408.55642  20247912.655    20247909.182
  22916953.859    -6957915.90443  -5379431.48942  22916955.657    22916956.865
  22646632.299    -8324836.65143  -6212578.77642  22646633.944    22646634.056
  23575037.738   -11236940.78243  -8718287.30942  23575040.463    23575043.982
  23998243.079    -4215203.60743  -3278726.91342  23998245.865    23998245.428
  22129125.619   -15364936.59743 -11961051.55042  22129126.869    22129127.060
  23576870.405   -10402388.77143  -7724511.85942  23576871.971    23576871.997
  22976868.093   -15656747.93143 -12179235.22642  22976870.207    22976867.934
 03  4  6  1 50  0.0000000  0  8G14G 3G31G25G11G15G23G18
  20250820.373   -25327366.25244 -19674492.23442  20250822.684    20250819.289
  22930888.673    -6884687.84443  -5322370.71742  22930890.473    22930891.826
  22654085.487    -8285670.77143  -6182059.92942  22654087.078    22654087.118
  23556496.235   -11334376.01243  -8794210.53942  23556499.087    23556502.316
  23979777.489    -4312241.24843  -3354340.52542  23979780.166    23979779.762
  22145858.092   -15277007.36843 -11892535.32242  22145859.307    22145859.653
  23587992.411   -10343941.78743  -7678968.74042  23587994.026    23587994.150
  22989496.981   -15590383.37243 -12127522.60742  22989499.170    22989496.683
 03  4  6  1 50 30.0000000  0  8G14G 3G31G25G11G15G23G18
  20253821.013   -25311597.77644 -19662205.10742  20253823.256    20253819.907
  22944873.191    -6811198.84943  -5265106.63242  22944875.024    22944876.500
  22661628.674    -8246031.41743  -6151172.15642  22661630.292    22661630.120
  23537970.386   -11431729.08743  -8870069.78142  23537973.317    23537976.232
  23961336.698    -4409147.52043  -3429851.75242  23961339.450    23961339.155
  22162653.236   -15188748.73443 -11823762.41742  22162654.524    22162654.796
  23599124.447   -10285442.52143  -7633384.91342  23599125.975    23599126.156
  23002143.909   -15523923.78943 -12075735.94942  23002146.061    23002143.422
 03  4  6  1 51  0.0000000  0  8G14G 3G31G25G11G15G23G18
  20256911.523   -25295356.66544 -19649549.69242  20256913.785    20256910.465
  22958906.652    -6737453.63843  -5207642.91842  22958908.374    22958909.733
  22669261.089    -8205922.61343  -6119918.59742  22669262.682    22669262.517
  23519460.157   -11528999.29543  -8945864.42042  23519463.229    23519465.850
  23942920.819    -4505922.58943  -3505260.78842  23942923.515    23942923.398
  22179510.468   -15100163.98143 -11754735.42342  22179511.734    22179511.743
  23610265.930   -10226892.80943  -7587761.78542  23610267.427    23610267.851
  23014808.375   -15457371.37543 -12023876.92942  23014810.554    23014807.962
 03  4  6  1 51 30.0000000  0  8G14G 3G31G25G11G15G23G18
  20260090.436   -25278651.43944 -19636532.61442  20260092.673    20260089.398
  22972987.005    -6663461.88543  -5149987.09742  22972988.687    22972989.995
  22676981.199    -8165353.35243  -6088306.23442  22676982.809    22676982.657
  23500965.024   -11626190.71443  -9021597.68242  23500968.039    23500970.336
  23924528.918    -4602570.80243  -3580570.94742  23924531.630    23924531.833
  22196427.991   -15011261.51443 -11685460.84942  22196429.199    22196429.138
  23621415.978   -10168298.99043  -7542104.26442  23621417.407    23621417.834
  23027489.012   -15390732.69643 -11971950.69542  23027491.240    23027489.067
 03  4  6  1 52  0.0000000  0  8G14G 3G31G25G11G15G23G18
  20263364.145   -25261448.24544 -19623127.50942  20263366.399    20263363.024
  22987120.127    -6589191.57743  -5092114.21742  22987121.887    22987123.462
  22684795.176    -8124290.67043  -6056309.37842  22684796.823    22684796.703
  23482492.032   -11723265.24543  -9097239.87842  23482494.919    23482497.238
  23906168.250    -4699055.17643  -3655753.48242  23906170.898    23906171.090
  22213412.295   -14922007.83943 -11615912.59942  22213413.518    22213413.663
  23632581.265   -10109625.83743  -7496384.92142  23632582.698    23632583.070
  23040193.117   -15323973.28343 -11919930.38942  23040195.226    23040193.001
 03  4  6  1 52 30.0000000  0  8G14G 3G31G25G11G15G23G18
  20266724.848   -25243787.08044 -19609365.54842  20266727.165    20266723.766
  23001298.507    -6514683.94543  -5034056.42242  23001300.242    23001301.693
  22692695.141    -8082775.39043  -6023959.81742  22692696.803    22692696.883
  23464034.698   -11820258.72143  -9172818.91142  23464037.399    23464039.791
  23887831.973    -4795411.99743  -3730836.56442  23887834.632    23887834.884
  22230456.043   -14832442.84343 -11546121.76442  22230457.200    22230457.365
  23643754.260   -10050911.68443  -7450633.65142  23643755.695    23643755.871
  23052912.781   -15257131.26343 -11867845.71942  23052914.964    23052912.674
 03  4  6  1 53  0.0000000  0  8G14G 3G31G25G11G15G23G18
  20270170.622   -25225679.64944 -19595255.84342  20270172.919    20270169.440
  23015519.496    -6439952.44043  -4975824.19742  23015521.240    23015522.603
  22700678.971    -8040819.90843  -5991267.24842  22700680.614    22700680.834
  23445591.203   -11917179.01543  -9248340.93042  23445593.966    23445596.378
  23869518.579    -4891649.23643  -3805826.51142  23869521.250    23869521.265
  22247556.945   -14742578.34043 -11476097.55442  22247558.114    22247558.033
  23654932.907    -9992166.47143  -7404858.15242  23654934.428    23654934.610
  23065645.959   -15190217.29443 -11815704.97142  23065648.166    23065645.988
 03  4  6  1 53 30.0000000  0  8G14G 3G31G25G11G15G23G18
  20273707.474   -25207093.37344 -19580773.01242  20273709.791    20273706.238
  23029788.815    -6364965.96343  -4917393.28042  23029790.664    23029792.141
  22708752.787    -7998392.43443  -5958206.92442  22708754.470    22708754.462
  23427168.655   -12013989.21343  -9323777.18542  23427171.670    23427173.781
  23851234.699    -4987730.82443  -3880695.16342  23851237.419    23851237.443
  22264720.812   -14652381.61543 -11405814.45842  22264722.227    22264722.016
  23666124.277    -9933355.73843  -7359031.63142  23666125.746    23666125.948
  23078399.291   -15123197.33643 -11763481.63542  23078401.450    23078399.537
 03  4  6  1 54  0.0000000  0  8G14G 3G31G25G11G15G23G18
  20277330.643   -25188053.51144 -19565936.74142  20277332.940    20277329.362
  23044101.988    -6289750.67543  -4858784.05842  23044103.724    23044105.186
  22716911.410    -7955518.60543  -5924798.79042  22716913.112    22716913.185
  23408763.121   -12110709.60643  -9399143.46942  23408766.158    23408768.145
  23832976.474    -5083677.79243  -3955458.91242  23832979.154    23832979.188
  22281943.036   -14561877.58343 -11335291.91442  22281944.455    22281944.578
  23677323.545    -9874502.75543  -7313172.17642  23677325.069    23677325.387
  23091168.583   -15056094.56343 -11711193.77542  23091170.710    23091168.811
 03  4  6  1 54 30.0000000  0  8G14G 3G31G25G11G15G23G18
  20281041.214   -25168554.17744 -19550742.44342  20281043.513    20281039.986
  23058459.582    -6214302.28243  -4799993.19842  23058461.305    23058462.676
  22725156.004    -7912193.25943  -5891038.80642  22725157.632    22725157.824
  23390376.542   -12207330.35543  -9474432.10942  23390379.354    23390381.308
  23814745.627    -5179480.56543  -4030110.29242  23814748.299    23814748.434
  22299225.038   -14471060.36643 -11264525.31542  22299226.414    22299226.571
  23688532.459    -9815599.78843  -7267273.78542  23688534.046    23688534.192
  23103954.850   -14988901.79943 -11658835.79642  23103957.004    23103955.175
 03  4  6  1 55  0.0000000  0  8G14G 3G31G25G11G15G23G18
  20284844.084   -25148569.68144 -19535170.09942  20284846.363    20284842.987
  23072866.143    -6138596.17943  -4741001.54442  23072867.979    23072869.158
  22733491.166    -7868391.60943  -5856907.66742  22733492.751    22733493.035
  23372014.698   -12303821.24343  -9549619.57742  23372017.444    23372019.382
  23796548.092    -5275109.67643  -4104626.36042  23796550.655    23796550.798
  22316571.505   -14379904.44443 -11193494.80342  22316572.817    22316572.852
  23699756.230    -9756619.42443  -7221315.08842  23699757.835    23699757.752
  23116763.585   -14921592.07443 -11606386.67742  23116765.679    23116763.906
 03  4  6  1 55 30.0000000  0  8G14G 3G31G25G11G15G23G18
  20288733.927   -25128128.69944 -19519242.05242  20288736.144    20288732.791
  23087316.016    -6062662.62043  -4681832.66442  23087317.879    23087318.893
  22741911.570    -7824142.97043  -5822428.24642  22741913.129    22741913.264
  23353672.961   -12400206.66343  -9624724.85142  23353675.713    23353677.618
  23778378.864    -5370590.23143  -4179026.69042  23778381.284    23778381.405
  22333977.071   -14288438.56143 -11122222.75342  22333978.319    22333978.217
  23710989.180    -9697588.72343  -7175317.14542  23710990.962    23710990.922
  23129589.268   -14854192.46643 -11553867.52942  23129591.512    23129589.652
 03  4  6  1 56  0.0000000  0  8G14G 3G31G25G11G15G23G18
  20292707.779   -25107245.87544 -19502969.71342  20292710.028    20292706.629
  23101805.781    -5986517.84643  -4622499.19842  23101807.723    23101808.740
  22750413.867    -7779462.94843  -5787612.67242  22750415.566    22750415.649
  23335349.293   -12496497.42443  -9699756.40042  23335352.107    23335353.923
  23760235.652    -5465933.25543  -4253319.82442  23760238.014    23760238.030
  22351438.707   -14196677.49043 -11050720.69342  22351439.997    22351439.889
  23722229.496    -9638520.48443  -7129289.93842  23722231.294    23722231.318
  23142429.598   -14786716.23343 -11501288.68742  23142431.828    23142429.785
 03  4  6  1 56 30.0000000  0  8G14G 3G31G25G11G15G23G18
  20296769.376   -25085902.05744 -19486338.15342  20296771.582    20296768.197
  23116338.984    -5910143.87043  -4562987.09842  23116340.976    23116342.359
  22759001.893    -7734332.69043  -5752446.25042  22759003.656    22759003.569
  23317048.194   -12592669.37843  -9774695.37442  23317050.997    23317052.843
  23742122.985    -5561115.39943  -4327487.61042  23742125.389    23742125.319
  22368960.129   -14104601.64143 -10978973.35142  22368961.485    22368961.530
  23733480.955    -9579393.27443  -7083216.81742  23733482.737    23733482.813
  23155288.297   -14719142.59043 -11448633.91242  23155290.541    23155288.648
 03  4  6  1 57  0.0000000  0  8G14G 3G31G25G11G15G23G18
  20300917.450   -25064103.86544 -19469352.53942  20300919.662    20300916.186
  23130915.003    -5833548.80743  -4503302.75342  23130916.776    23130918.148
  22767674.143    -7688759.86343  -5716934.99042  22767675.939    22767675.723
  23298769.209   -12688724.73043  -9849543.47542  23298771.984    23298773.904
  23724040.354    -5656139.69443  -4401532.37442  23724042.845    23724042.688
  22386540.203   -14012217.69643 -10906985.93942  22386541.610    22386541.878
  23744742.872    -9520212.22643  -7037101.70342  23744744.518    23744744.496
  23168164.665   -14651476.64443 -11395907.19042  23168166.871    23168165.194
 03  4  6  1 57 30.0000000  0  8G14G 3G31G25G11G15G23G18
  20305153.338   -25041843.93244 -19452007.12942  20305155.555    20305152.092
  23145533.815    -5756726.55043  -4443441.37442  23145535.808    23145537.206
  22776431.753    -7642737.83143  -5681073.71242  22776433.507    22776433.525
  23280514.852   -12784651.87343  -9924291.69742  23280517.530    23280519.412
  23705990.056    -5750994.91243  -4475445.40742  23705992.550    23705992.180
  22404180.109   -13919518.42243 -10834752.79242  22404181.525    22404182.146
  23756016.745    -9460967.92243  -6990937.35242  23756018.347    23756018.374
  23181060.427   -14583709.32143 -11343101.48642  23181062.533    23181060.984
 03  4  6  1 58  0.0000000  0  8G14G 3G31G25G11G15G23G18
  20309476.101   -25019126.89644 -19434305.53542  20309478.323    20309474.976
  23160194.523    -5679683.23943  -4383407.72542  23160196.449    23160198.158
  22785273.892    -7596271.96643  -5644866.57842  22785275.648    22785275.670
  23262284.724   -12880451.50643  -9998940.57242  23262287.317    23262289.066
  23687971.469    -5845682.01343  -4549227.42142  23687974.064    23687973.581
  22421879.555   -13826508.28443 -10762277.43342  22421880.836    22421881.494
  23767302.215    -9401663.14743  -6944725.83542  23767303.825    23767303.787
  23193974.835   -14515843.81743 -11290219.29342  23193977.018    23193975.234
 03  4  6  1 58 30.0000000  0  8G14G 3G31G25G11G15G23G18
  20313884.916   -24995958.28544 -19416252.07042  20313887.095    20313883.796
  23174896.183    -5602425.65143  -4323207.10542  23174897.959    23174899.787
  22794199.343    -7549368.74643  -5608318.64742  22794201.066    22794201.095
  23244078.654   -12976124.69743 -10073490.93442  23244081.232    23244082.607
  23669984.715    -5940202.54043  -4622879.65542  23669987.275    23669986.615
  22439636.998   -13733193.09243 -10689564.38442  22439638.244    22439638.856
  23778598.162    -9342301.69043  -6898470.18042  23778599.765    23778599.988
  23206907.090   -14447884.31143 -11237263.84242  23206909.306    23206907.460
 03  4  6  1 59  0.0000000  0  8G14G 3G31G25G11G15G23G18
  20318378.754   -24972343.02744 -19397850.55942  20318380.948    20318377.644
  23189637.340    -5524959.73443  -4262844.16842  23189639.075    23189641.148
  22803206.931    -7502033.43343  -5571434.02342  22803208.689    22803208.796
  23225896.603   -13071671.28843 -10147942.64442  23225899.226    23225900.281
  23652029.869    -6034556.99243  -4696402.48542  23652032.344    23652031.535
  22457451.507   -13639577.40143 -10616617.16542  22457452.891    22457453.354
  23789904.329    -9282886.15643  -6852172.31142  23789906.066    23789906.343
  23219856.720   -14379833.43643 -11184237.17842  23219859.015    23219857.191
 03  4  6  1 59 30.0000000  0  8G14G 3G31G25G11G15G23G18
  20322960.121   -24948267.88444 -19379090.69842  20322962.295    20322958.971
  23204420.628    -5447273.63743  -4202309.63942  23204422.268    23204424.424
  22812299.192    -7454253.61443  -5534203.02542  22812300.866    22812301.102
  23207741.775   -13167073.75943 -10222282.04842  23207744.463    23207745.610
  23634109.490    -6128728.69343  -4769782.90842  23634112.033    23634111.156
  22475325.656   -13545648.05243 -10543425.54242  22475327.099    22475327.499
  23801224.032    -9223401.35443  -6805820.52542  23801225.578    23801225.679
  23232826.623   -14311676.77043 -11131128.11142  23232828.853    23232826.901
 03  4  6  2  0  0.0000000  0  8G14G 3G31G25G11G15G23G18
  20327623.437   -24923762.18244 -19359995.34042  20327625.617    20327622.190
  23219240.202    -5369397.83843  -4141627.30142  23219241.645    23219243.788
  22821470.358    -7406059.45443  -5496649.16042  22821471.985    22821472.211
  23189609.933   -13262357.10843 -10296528.64342  23189612.493    23189613.762
  23616219.119    -6222743.03643  -4843040.72642  23616221.737    23616220.764
  22493253.892   -13451434.52743 -10470012.47442  22493255.265    22493255.877
  23812551.926    -9163874.62543  -6759436.08842  23812553.235    23812553.146
  23245810.996   -14243441.98543 -11077958.14242  23245813.366    23245811.451
 03  4  6  2  0 30.0000000  0  8G14G 3G31G25G11G15G23G18
  20332368.782   -24898825.31444 -19340564.00942  20332370.997    20332367.579
  23234095.472    -5291333.24843  -4080797.86442  23234096.974    23234099.096
  22830720.319    -7357451.01043  -5458772.50642  22830721.970    22830722.070
  23171501.693   -13357516.24943 -10370678.45442  23171504.306    23171505.498
  23598359.371    -6316595.31043  -4916172.24142  23598362.068    23598361.245
  22511236.703   -13356935.81343 -10396377.18542  22511237.991    22511238.390
  23823888.042    -9104303.27443  -6713016.85542  23823889.497    23823889.244
  23258810.953   -14175126.58143 -11024725.36142  23258813.138    23258811.348
 03  4  6  2  1  0.0000000  0  8G14G 3G31G25G11G15G23G18
  20337196.342   -24873456.07644 -19320795.76342  20337198.611    20337195.250
  23248986.902    -5213079.92543  -4019821.35342  23248988.347    23248990.447
  22840049.252    -7308427.94343  -5420572.77942  22840050.865    22840050.872
  23153417.977   -13452545.52243 -10444727.06642  23153420.760    23153421.808
  23580531.619    -6410280.41443  -4989173.51542  23580534.318    23580533.402
  22529273.725   -13262150.71643 -10322518.75642  22529275.072    22529275.439
  23835233.071    -9044684.26843  -6666560.49442  23835234.546    23835234.419
  23271826.985   -14106727.57343 -10971427.44542  23271829.070    23271827.220
 03  4  6  2  1 30.0000000  0  8G14G 3G31G25G11G15G23G18
  20342110.855   -24847630.15844 -19300671.66242  20342113.105    20342109.720
  23263918.494    -5134614.70743  -3958679.72442  23263920.066    23263921.983
  22849461.161    -7258966.66943  -5382031.56242  22849462.934    22849463.149
  23135364.592   -13547415.78343 -10518651.78342  23135367.376    23135368.366
  23562740.939    -6503770.12243  -5062022.51842  23562743.675    23562742.781
  22547369.862   -13167054.79943 -10248418.11542  22547371.195    22547371.767
  23846592.138    -8984991.49943  -6620046.61842  23846593.634    23846593.891
  23284863.613   -14038219.29243 -10918044.38142  23284865.748    23284864.019
 03  4  6  2  2  0.0000000  0  8G14G 3G31G25G11G15G23G18
  20347110.580   -24821356.47844 -19280198.65142  20347112.825    20347109.390
  23278888.142    -5055948.10443  -3897381.18642  23278889.858    23278891.647
  22858954.765    -7209077.20743  -5343156.70942  22858956.460    22858956.705
  23117340.514   -13642132.03543 -10592456.47842  23117343.203    23117344.319
  23544986.432    -6597069.71343  -5134723.36042  23544989.045    23544988.348
  22565523.373   -13071657.27243 -10174082.45142  22565524.822    22565525.425
  23857963.797    -8925231.93043  -6573480.69542  23857965.469    23857965.920
  23297919.781   -13969609.03043 -10864581.84442  23297921.787    23297920.160
 03  4  6  2  2 30.0000000  0  8G14G 3G31G25G11G15G23G18
  20352191.672   -24794655.21144 -19259392.45942  20352193.909    20352190.434
  23293891.977    -4977101.47043  -3835942.35242  23293893.711    23293895.520
  22868526.349    -7158780.17843  -5303964.28642  22868527.888    22868527.898
  23099342.879   -13736709.73243 -10666153.22542  23099345.405    23099346.602
  23527265.194    -6690195.09543  -5207288.46642  23527267.635    23527266.958
  22583730.788   -12975978.22043 -10099527.43142  22583732.081    22583732.533
  23869345.022    -8865423.55143  -6526876.74942  23869346.649    23869346.979
  23310991.751   -13900915.49243 -10811054.40442  23310993.726    23310992.094
 03  4  6  2  3  0.0000000  0  8G14G 3G31G25G11G15G23G18
  20357355.926   -24767516.41244 -19238245.32842  20357358.223    20357354.839
  23308932.223    -4898066.05043  -3774356.42242  23308933.819    23308935.528
  22878176.714    -7108066.50943  -5264447.17742  22878178.421    22878178.622
  23081374.355   -13831134.45743 -10739730.74642  23081376.919    23081377.921
  23509579.789    -6783132.21643  -5279706.90142  23509582.127    23509581.328
  22601993.311   -12880007.69743 -10024745.30142  22601994.687    22601995.089
  23880737.974    -8805554.30543  -6480225.41142  23880739.598    23880739.581
  23324081.879   -13832126.59043 -10757452.67742  23324083.750    23324081.978
 03  4  6  2  3 30.0000000  0  8G14G 3G31G25G11G15G23G18
  20362600.385   -24739956.71944 -19216770.23142  20362602.670    20362599.308
  23324004.915    -4818859.53343  -3712637.18242  23324006.494    23324008.248
  22887903.113    -7056953.51343  -5224618.89042  22887904.873    22887905.360
  23063432.559   -13925417.98943 -10813198.25142  23063435.154    23063436.103
  23491927.462    -6875893.68343  -5351988.40642  23491929.825    23491929.382
  22620308.357   -12783762.04143  -9949748.76442  22620309.625    22620310.182
  23892139.763    -8745638.63143  -6433537.90742  23892141.436    23892141.083
  23337187.323   -13763257.19743 -10703788.21242  23337189.247    23337187.237
 03  4  6  2  4  0.0000000  0  8G14G 3G31G25G11G15G23G18
  20367929.269   -24711953.30044 -19194949.36742  20367931.541    20367928.141
  23339114.059    -4739460.31043  -3650767.75542  23339115.760    23339117.583
  22897710.020    -7005419.27443  -5184462.39542  22897711.659    22897711.992
  23045522.834   -14019533.44043 -10886534.78542  23045525.358    23045526.444
  23474313.942    -6968452.74343  -5424112.24142  23474316.305    23474315.841
  22638680.074   -12687218.34643  -9874519.99542  22638681.275    22638682.083
  23903554.701    -8685651.82243  -6386794.90242  23903556.509    23903556.295
  23350312.745   -13694282.83543 -10650041.98542  23350314.648    23350312.441
 03  4  6  2  4 30.0000000  0  8G14G 3G31G25G11G15G23G18
  20373340.837   -24683515.37544 -19172789.93042  20373343.085    20373339.671
  23354258.088    -4659878.70643  -3588756.25442  23354259.669    23354261.597
  22907595.040    -6953473.59543  -5143985.29942  22907596.707    22907596.775
  23027644.338   -14113485.29443 -10959743.84942  23027647.007    23027647.877
  23456738.067    -7060814.53143  -5496082.34842  23456740.435    23456739.823
  22657106.673   -12590385.97743  -9799066.28842  22657107.850    22657108.944
  23914981.728    -8625600.94143  -6340001.97842  23914983.562    23914983.741
  23363456.830   -13625210.90643 -10596219.70942  23363458.607    23363456.428
 03  4  6  2  5  0.0000000  0  8G14G 3G31G25G11G15G23G18
  20378834.182   -24654647.57644 -19150295.53342  20378836.446    20378833.061
  23369435.524    -4580120.90943  -3526607.44042  23369437.072    23369438.935
  22917557.023    -6901122.17043  -5103192.02342  22917558.739    22917558.928
  23009796.763   -14207273.75743 -11032825.59542  23009799.538    23009800.493
  23439199.547    -7152979.74243  -5567899.29542  23439201.899    23439201.096
  22675587.366   -12493269.49143  -9723391.18142  22675588.506    22675589.734
  23926420.953    -8565488.58543  -6293161.18242  23926422.658    23926422.618
  23376618.878   -13556044.47943 -10542323.78442  23376620.737    23376618.615
 03  4  6  2  5 30.0000000  0  8G14G 3G31G25G11G15G23G18
  20384407.945   -24625357.06944 -19127471.74442  20384410.198    20384406.888
  23384645.028    -4500195.03343  -3464327.65142  23384646.518    23384648.285
  22927595.103    -6848372.73043  -5062088.62542  22927596.749    22927596.829
  22991979.773   -14300901.31643 -11105781.96442  22991982.501    22991983.631
  23421697.651    -7244951.09943  -5639565.14042  23421700.105    23421699.459
  22694120.682   -12395876.03343  -9647500.24842  22694121.867    22694123.009
  23937870.821    -8505319.83043  -6246276.46842  23937872.449    23937872.263
  23389797.709   -13486788.64243 -10488358.20342  23389799.664    23389797.658
 03  4  6  2  6  0.0000000  0  8G14G 3G31G25G11G15G23G18
  20390061.143   -24595649.04444 -19104322.61842  20390063.393    20390060.070
  23399885.503    -4420107.31143  -3401921.73742  23399886.999    23399888.631
  22937707.469    -6795231.38243  -5020679.81642  22937709.222    22937709.274
  22974193.582   -14394368.35643 -11178613.24342  22974196.146    22974197.276
  23404232.618    -7336729.79143  -5711080.86942  23404234.989    23404234.377
  22712705.800   -12298210.58943  -9571397.38642  22712707.076    22712707.988
  23949330.669    -8445097.59143  -6199350.02942  23949332.372    23949332.191
  23402992.727   -13417447.15643 -10434325.86842  23402994.804    23402992.946
 03  4  6  2  6 30.0000000  0  8G14G 3G31G25G11G15G23G18
  20395794.564   -24565520.22344 -19080845.59842  20395796.759    20395793.294
  23415156.931    -4339855.99243  -3339388.38042  23415158.520    23415160.207
  22947894.729    -6741695.80043  -4978963.78742  22947896.543    22947896.724
  22956439.313   -14487667.18243 -11251313.46242  22956441.843    22956442.986
  23386805.651    -7428308.59743  -5782440.84242  23386808.005    23386807.397
  22731343.557   -12200269.98943  -9495080.12942  22731344.667    22731345.306
  23960801.310    -8384816.62443  -6152377.84542  23960803.170    23960803.191
  23416205.082   -13348014.87743 -10380222.80242  23416207.183    23416205.571
 03  4  6  2  7  0.0000000  0  8G14G 3G31G25G11G15G23G18
  20401606.667   -24534977.18044 -19057045.81242  20401608.886    20401605.390
  23430457.555    -4259448.82243  -3276733.54342  23430459.265    23430461.287
  22958156.037    -6687773.06443  -4936946.11342  22958157.691    22958158.088
  22938716.686   -14580799.92343 -11323884.24342  22938719.146    22938720.212
  23369416.381    -7519689.90643  -5853646.94642  23369418.633    23369417.829
  22750032.217   -12102060.67743  -9418553.47842  22750033.339    22750034.002
  23972282.759    -8324481.31543  -6105363.32342  23972284.502    23972284.562
  23429434.164   -13278496.55643 -10326052.69342  23429436.132    23429434.492
 03  4  6  2  7 30.0000000  0  8G14G 3G31G25G11G15G23G18
  20407499.675   -24504009.21944 -19032914.91742  20407501.897    20407498.403
  23445790.535    -4178875.99243  -3213949.65042  23445792.066    23445793.817
  22968492.772    -6633453.49943  -4894619.20042  22968494.397    22968494.923
  22921028.628   -14673751.26943 -11396313.68742  22921031.141    22921031.714
  23352067.389    -7610859.13243  -5924687.75642  23352069.627    23352068.761
  22768774.111   -12003571.80643  -9341808.98242  22768775.210    22768775.988
  23983777.210    -8264078.85143  -6058296.47242  23983778.873    23983778.965
  23442682.020   -13208879.50543 -10271805.64942  23442683.962    23442682.209
 03  4  6  2  8  0.0000000  0  8G14G 3G31G25G11G15G23G18
  20413471.675   -24472625.94344 -19008460.41342  20413473.905    20413470.462
  23461152.593    -4098148.12343  -3151044.94842  23461154.324    23461156.135
  22978903.069    -6578747.18243  -4851990.92242  22978904.694    22978905.182
  22903374.068   -14766525.90643 -11468605.44742  22903376.696    22903376.867
  23334757.867    -7701821.42643  -5995567.34742  23334760.185    23334758.991
  22787567.278   -11904812.83943  -9264854.02442  22787568.643    22787569.420
  23995282.862    -8203616.50143  -6011182.92542  23995284.587    23995284.705
  23455947.077   -13139171.39643 -10217487.63642  23455949.140    23455947.232
 03  4  6  2  8 30.0000000  0  8G14G 3G31G25G11G15G23G18
  20419522.495   -24440828.63444 -18983683.27342  20419524.741    20419521.261
  23476543.550    -4017268.01443  -3088021.60442  23476545.324    23476547.532
  22989386.581    -6523656.56043  -4809063.21642  22989388.195    22989388.461
  22885753.487   -14859120.91243 -11540757.24342  22885756.134    22885756.444
  23317488.166    -7792573.83843  -6066283.39042  23317490.627    23317489.274
  22806411.922   -11805785.20943  -9187689.71942  22806413.245    22806413.902
  24006799.891    -8143093.63643  -5964022.22642  24006801.715    24006801.812
  23469229.372   -13069372.07843 -10163098.53342  23469231.524    23469229.741
 03  4  6  2  9  0.0000000  0  8G14G 3G31G25G11G15G23G18
  20425653.420   -24408610.19144 -18958577.97742  20425655.735    20425652.189
  23491964.891    -3936229.54343  -3024874.88542  23491966.615    23491968.673
  22999944.352    -6468175.24543  -4765831.06842  22999945.937    22999946.263
  22868169.507   -14951524.39943 -11612759.79542  22868171.972    22868172.672
  23300260.452    -7883105.34743  -6136827.28942  23300262.997    23300261.590
  22825308.859   -11706481.79443  -9110310.51542  22825310.266    22825310.693
  24018330.288    -8082500.80643  -5916807.04042  24018332.042    24018332.383
  23482530.694   -12999472.55943 -10108631.35342  23482532.838    23482531.269
 03  4  6  2  9 30.0000000  0  8G14G 3G31G25G11G15G23G18
  20431864.127   -24375972.63444 -18933146.10542  20431866.394    20431862.920
  23507415.641    -3855035.72443  -2961607.12542  23507417.396    23507419.127
  23010575.825    -6412306.05943  -4722296.66442  23010577.339    23010577.921
  22850622.645   -15043733.52843 -11684610.89942  22850625.102    22850625.766
  23283075.258    -7973413.59343  -6207197.22942  23283077.853    23283076.390
  22844257.712   -11606904.38943  -9032717.83042  22844259.284    22844259.630
  24029874.209    -8021837.79143  -5869537.13642  24029875.985    24029876.290
  23495850.895   -12929472.68043 -10054085.96242  23495853.044    23495851.785
 03  4  6  2 10  0.0000000  0  8G14G 3G31G25G11G15G23G18
  20438152.711   -24342925.40044 -18907395.00542  20438154.971    20438151.609
  23522893.864    -3773697.51743  -2898226.84442  23522895.622    23522897.276
  23021279.154    -6356059.28343  -4678468.04742  23021280.711    23021281.167
  22833111.803   -15135753.60443 -11756314.69542  22833114.423    22833114.824
  23265931.584    -8063503.86943  -6277397.31242  23265934.109    23265932.774
  22863257.063   -11507062.40343  -8954918.95542  22863258.555    22863259.078
  24041429.977    -7961111.93443  -5822218.27542  24041431.881    24041432.224
  23509189.353   -12859380.18343  -9999468.41742  23509191.368    23509189.953
 03  4  6  2 10 30.0000000  0  8G14G 3G31G25G11G15G23G18
  20444519.012   -24309470.24544 -18881326.04542  20444521.198    20444517.873
  23538399.189    -3692217.58543  -2834736.11442  23538401.079    23538402.639
  23032054.050    -6299437.61643  -4634347.31642  23032055.650    23032055.816
  22815637.377   -15227581.46643 -11827868.71042  22815640.124    22815640.401
  23248829.638    -8153374.16443  -6347425.98742  23248832.120    23248831.135
  22882306.637   -11406957.57443  -8876915.27542  22882307.952    22882308.573
  24052997.632    -7900323.00243  -5774850.22542  24052999.550    24052999.938
  23522545.173   -12789194.96943  -9944778.63642  23522547.368    23522545.598
 03  4  6  2 11  0.0000000  0  8G14G 3G31G25G11G15G23G18
  20450964.110   -24275601.33744 -18854934.67442  20450966.251    20450962.890
  23553932.212    -3610590.98143  -2771131.14142  23553934.122    23553935.813
  23042901.377    -6242435.93843  -4589930.46442  23042902.828    23042903.030
  22798201.462   -15319206.67843 -11899264.81842  22798204.278    22798204.535
  23231771.568    -8243014.24943  -6417275.27542  23231774.029    23231773.211
  22901407.293   -11306584.07443  -8798702.25542  22901408.629    22901409.273
  24064578.817    -7839462.73143  -5727426.60642  24064580.788    24064581.057
  23535920.233   -12718909.23443  -9890010.52942  23535922.421    23535920.398
 03  4  6  2 11 30.0000000  0  8G14G 3G31G25G11G15G23G18
  20457483.613   -24241340.98044 -18828238.28142  20457485.760    20457482.414
  23569488.650    -3528841.30043  -2707430.22142  23569490.528    23569492.444
  23053816.171    -6185077.52443  -4545235.62342  23053817.745    23053818.148
  22780800.892   -15410646.94743 -11970516.81842  22780803.617    22780803.949
  23214753.790    -8332442.00143  -6486959.12142  23214756.234    23214755.617
  22920554.594   -11205964.19943  -8720297.24542  22920555.910    22920556.783
  24076169.875    -7778551.42643  -5679963.22542  24076171.728    24076172.080
  23549310.441   -12648543.45343  -9835180.05442  23549312.442    23549310.569
 03  4  6  2 12  0.0000000  0  8G14G 3G31G25G11G15G23G18
  20464080.663   -24206673.48544 -18801224.63242  20464082.815    20464079.478
  23585071.657    -3446953.79343  -2643621.92442  23585073.512    23585075.347
  23064802.051    -6127347.33443  -4500251.11942  23064803.682    23064803.909
  22763439.305   -15501881.77643 -12041608.72642  22763441.925    22763442.416
  23197780.379    -8421637.43943  -6556461.93942  23197782.747    23197782.089
  22939751.788   -11105082.01743  -8641687.83342  22939753.082    22939754.085
  24087773.832    -7717570.93343  -5632445.91242  24087775.747    24087775.929
  23562718.940   -12578080.02643  -9780273.45742  23562720.998    23562719.385
 03  4  6  2 12 30.0000000  0  8G14G 3G31G25G11G15G23G18
  20470753.921   -24171605.11944 -18773898.62042  20470756.071    20470752.848
  23600679.326    -3364935.68543  -2579711.85442  23600681.176    23600683.106
  23075857.123    -6069252.48743  -4454982.46442  23075858.895    23075859.054
  22746116.603   -15592912.57843 -12112541.66142  22746119.162    22746119.625
  23180850.698    -8510602.71043  -6625785.39442  23180853.085    23180852.322
  22958997.949   -11003943.75043  -8562878.88242  22958999.120    22959000.081
  24099390.510    -7656525.18143  -5584877.77442  24099392.428    24099392.120
  23576145.431   -12507523.19343  -9725294.08042  23576147.417    23576145.946
 03  4  6  2 13  0.0000000  0  8G14G 3G31G25G11G15G23G18
  20477500.613   -24136150.91344 -18746271.95242  20477502.817    20477499.530
  23616308.511    -3282803.19543  -2515712.65742  23616310.281    23616312.374
  23086978.438    -6010808.90743  -4409442.05542  23086980.271    23086980.616
  22728830.576   -15683750.27443 -12183324.13142  22728833.122    22728833.609
  23163962.950    -8599348.48243  -6694937.80142  23163965.279    23163964.290
  22978289.883   -10902564.40543  -8483882.07742  22978290.967    22978292.092
  24111017.125    -7595427.07443  -5537268.85442  24111018.871    24111018.568
  23589587.356   -12436886.10743  -9670252.18242  23589589.276    23589587.701
 03  4  6  2 13 30.0000000  0  8G14G 3G31G25G11G15G23G18
  20484323.460   -24100296.97644 -18718333.80242  20484325.629    20484322.225
  23631961.848    -3200543.80643  -2451614.58942  23631963.612    23631965.744
  23098168.774    -5952003.69543  -4363619.87242  23098170.589    23098170.701
  22711584.929   -15774376.19043 -12253941.57642  22711587.425    22711587.926
  23147120.407    -8687856.96443  -6763905.32642  23147122.761    23147121.488
  22997630.011   -10800930.21443  -8404686.67842  22997631.151    22997632.605
  24122656.676    -7534260.72543  -5489606.70942  24122658.419    24122658.224
  23603047.367   -12366153.42543  -9615135.82642  23603049.407    23603047.635
 03  4  6  2 14  0.0000000  0  8G14G 3G31G25G11G15G23G18
  20491221.148   -24064049.44144 -18690088.94942  20491223.308    20491219.912
  23647638.552    -3118164.40743  -2387423.01542  23647640.116    23647642.102
  23109426.701    -5892843.56843  -4317521.14542  23109428.414    23109428.345
  22694379.366   -15864791.76843 -12324395.13442  22694381.787    22694382.207
  23130322.494    -8776129.93343  -6832689.31142  23130324.935    23130323.646
  23017017.623   -10699047.02043  -8325297.25342  23017018.745    23017020.422
  24134308.697    -7473029.69443  -5441894.19742  24134310.271    24134310.191
  23616524.904   -12295328.98643  -9559947.94242  23616527.001    23616525.031
 03  4  6  2 14 30.0000000  0  8G14G 3G31G25G11G15G23G18
  20498193.802   -24027407.79944 -18661537.00442  20498195.950    20498192.610
  23663337.729    -3035665.50943  -2323138.30042  23663339.351    23663341.565
  23120752.020    -5833329.04143  -4271146.24842  23120753.755    23120753.603
  22677214.858   -15954991.49843 -12394680.48042  22677217.308    22677217.560
  23113570.471    -8864162.45143  -6901285.95842  23113572.894    23113571.516
  23036453.153   -10596914.29043  -8245713.39842  23036454.081    23036455.630
  24145973.157    -7411731.25543  -5394129.15342  24145974.862    24145975.015
  23630020.386   -12224410.27443  -9504686.63442  23630022.520    23630020.414
 03  4  6  2 15  0.0000000  0  8G14G 3G31G25G11G15G23G18
  20505242.068   -23990368.59844 -18632675.26542  20505244.222    20505240.898
  23679060.034    -2953044.73943  -2258758.63442  23679061.577    23679064.227
  23132145.091    -5773457.53343  -4224493.18542  23132146.807    23132147.014
  22660092.778   -16044967.42443 -12464791.45642  22660095.212    22660095.471
  23096865.398    -8951946.80543  -6969689.24342  23096867.885    23096866.422
  23055936.830   -10494528.50043  -8165932.35942  23055937.753    23055939.009
  24157651.538    -7350359.75343  -5346307.18742  24157653.223    24157653.678
  23643534.635   -12153391.94543  -9449347.67442  23643536.805    23643534.787
 03  4  6  2 15 30.0000000  0  8G14G 3G31G25G11G15G23G18
  20512364.796   -23952937.89444 -18603508.47042  20512367.010    20512363.705
  23694804.290    -2870309.32443  -2194289.64242  23694805.874    23694808.316
  23143604.718    -5713235.91443  -4177567.29242  23143606.447    23143606.926
  22643013.081   -16134720.81443 -12534729.02242  22643015.481    22643015.769
  23080207.313    -9039484.91743  -7037900.65042  23080209.705    23080208.349
  23075467.258   -10391895.96843  -8085959.05842  23075468.304    23075469.337
  24169343.392    -7288918.96243  -5298431.20342  24169344.910    24169345.337
  23657066.869   -12082278.31243  -9393934.45242  23657069.087    23657067.105
 03  4  6  2 16  0.0000000  0  8G14G 3G31G25G11G15G23G18
  20519563.913   -23915106.40744 -18574029.37342  20519566.123    20519562.758
  23710571.963    -2787450.72143  -2129724.65542  23710573.648    23710575.656
  23155132.990    -5652655.65843  -4130361.97042  23155134.657    23155134.955
  22625978.516   -16224237.88343 -12604482.42842  22625980.942    22625981.148
  23063598.800    -9126763.08043  -7105909.53342  23063601.037    23063599.591
  23095046.347   -10289007.13443  -8005786.01442  23095047.449    23095048.470
  24181050.829    -7227397.10143  -5250492.07642  24181052.289    24181052.541
  23670619.926   -12011057.81643  -9338437.99942  23670622.013    23670619.787
 03  4  6  2 16 30.0000000  0  8G14G 3G31G25G11G15G23G18
  20526833.913   -23876902.29644 -18544259.91342  20526836.166    20526832.714
  23726357.393    -2704498.16643  -2065086.45742  23726359.055    23726361.312
  23166723.858    -5591746.03243  -4082900.01042  23166725.508    23166725.717
  22608984.582   -16313542.11243 -12674069.99742  22608986.969    22608987.091
  23047034.970    -9213805.29043  -7173734.53642  23047037.220    23047035.914
  23114668.526   -10185890.13843  -7925435.17142  23114669.761    23114671.091
  24192768.632    -7165820.46343  -5202510.28342  24192770.202    24192770.147
  23684188.110   -11939756.87243  -9282878.82242  23684190.317    23684188.035
 03  4  6  2 17  0.0000000  0  8G14G 3G31G25G11G15G23G18
  20534174.371   -23838327.87344 -18514201.91242  20534176.647    20534173.195
  23742159.814    -2621455.28843  -2000377.84642  23742161.449    23742164.325
  23178376.607    -5530510.16543  -4035183.81142  23178378.160    23178378.744
  22592031.261   -16402631.36943 -12743490.04642  22592033.923    22592033.999
  23030516.656    -9300609.49343  -7241374.12442  23030518.727    23030517.307
  23134334.023   -10082547.23043  -7844908.31342  23134335.150    23134336.749
  24204496.947    -7104189.03043  -5154485.80742  24204498.501    24204498.117
  23697771.284   -11868375.94443  -9227257.31442  23697773.637    23697771.543
 03  4  6  2 17 30.0000000  0  8G14G 3G31G25G11G15G23G18
  20541587.057   -23799373.78144 -18483848.05642  20541589.349    20541585.905
  23757981.488    -2538313.32743  -1935592.06842  23757983.007    23757985.700
  23190093.072    -5468939.32443  -3987206.61542  23190094.555    23190095.327
  22575121.571   -16491491.40743 -12812731.47942  22575124.252    22575124.368
  23014046.129    -9387162.03043  -7308817.57842  23014048.237    23014046.910
  23154044.500    -9978968.91843  -7764198.03642  23154045.396    23154047.229
  24216237.329    -7042490.85743  -5106409.28142  24216239.022    24216238.892
  23711371.853   -11796903.18543  -9171564.23442  23711374.278    23711372.398
 03  4  6  2 18  0.0000000  0  8G14G 3G31G25G11G15G23G18
  20549073.716   -23760030.99544 -18453191.32442  20549076.010    20549072.547
  23773823.428    -2455064.03443  -1870722.65842  23773825.013    23773827.551
  23201874.880    -5407025.47843  -3938962.12442  23201876.325    23201876.988
  22558257.996   -16580108.07543 -12881783.28442  22558260.594    22558260.909
  22997626.113    -9473449.48643  -7376054.48042  22997628.334    22997626.924
  23173801.588    -9875146.15543  -7683297.26442  23173802.392    23173804.250
  24227992.727    -6980714.59043  -5058271.89242  24227994.347    24227994.747
  23724992.194   -11725327.84743  -9115791.23042  23724994.569    23724992.796
 03  4  6  2 18 30.0000000  0  8G14G 3G31G25G11G15G23G18
  20556630.277   -23720321.08544 -18422248.53142  20556632.560    20556629.069
  23789681.426    -2371730.46843  -1805787.57142  23789683.056    23789685.635
  23213718.070    -5344791.09243  -3890467.88342  23213719.351    23213719.809
  22541437.916   -16668498.75643 -12950659.00142  22541440.280    22541440.496
  22981253.221    -9559489.27643  -7443098.39442  22981255.492    22981253.924
  23193600.857    -9771100.50743  -7602222.83142  23193601.796    23193603.612
  24239759.517    -6918879.54143  -5010088.69542  24239761.040    24239761.792
  23738628.422   -11653669.66943  -9059953.71542  23738630.607    23738628.995
 03  4  6  2 19  0.0000000  0  8G14G 3G31G25G11G15G23G18
  20564260.196   -23680225.76144 -18391005.40142  20564262.494    20564258.895
  23805558.652    -2288295.20643  -1740773.21742  23805560.427    23805563.054
  23225625.094    -5282219.00643  -3841710.47142  23225626.473    23225627.021
  22524665.093   -16756640.55743 -13019340.76442  22524667.577    22524667.525
  22964931.895    -9645258.64343  -7509931.61242  22964934.205    22964932.412
  23213445.894    -9666813.82643  -7520960.56742  23213446.953    23213448.665
  24251541.629    -6856965.15743  -4961843.73142  24251543.002    24251543.504
  23752283.965   -11581908.46543  -9004035.85842  23752286.226    23752284.706
 03  4  6  2 19 30.0000000  0  8G14G 3G31G25G11G15G23G18
  20571960.672   -23639759.14144 -18359472.94642  20571962.984    20571959.388
  23821452.499    -2204773.26343  -1675691.36042  23821454.087    23821456.998
  23237593.798    -5219323.83343  -3792701.31242  23237595.141    23237595.496
  22507937.738   -16844542.61443 -13087835.73642  22507940.294    22507940.303
  22948660.191    -9730767.32643  -7576561.68642  22948662.540    22948660.494
  23233334.272    -9562299.92543  -7439521.26742  23233335.331    23233336.935
  24263336.556    -6794983.15143  -4913546.04642  24263337.861    24263338.028
  23765956.902   -11510055.97243  -8948046.88142  23765959.158    23765957.649
 03  4  6  2 20  0.0000000  0  8G14G 3G31G25G11G15G23G18
  20579731.167   -23598924.50844 -18327653.73742  20579733.461    20579729.916
  23837362.058    -2121168.86943  -1610545.25142  23837363.559    23837366.480
  23249623.178    -5156109.98743  -3743443.89042  23249624.526    23249624.801
  22491256.265   -16932203.62943 -13156142.87542  22491258.737    22491258.918
  22932438.133    -9816014.35243  -7642987.88642  22932440.527    22932438.307
  23253265.303    -9457562.12743  -7357907.48042  23253266.422    23253267.871
  24275144.085    -6732934.60843  -4865196.53742  24275145.408    24275145.389
  23779647.233   -11438113.81143  -8891988.04442  23779649.406    23779647.819
 03  4  6  2 20 30.0000000  0  8G14G 3G31G25G11G15G23G18
  20587575.237   -23557704.00244 -18295533.85142  20587577.475    20587573.917
  23853290.361    -2037465.02543  -1545321.64442  23853291.907    23853294.533
  23261716.308    -5092560.37243  -3693924.77942  23261717.735    23261718.212
  22474624.889   -17019601.07043 -13224244.61442  22474627.416    22474627.641
  22916270.042    -9900977.17943  -7709192.61942  22916272.476    22916270.355
  23273242.384    -9352582.39043  -7276105.17442  23273243.601    23273244.986
  24286967.917    -6670799.21643  -4816779.32342  24286969.468    24286969.294
  23793358.355   -11366061.93643  -8835843.70642  23793360.548    23793359.126
 03  4  6  2 21  0.0000000  0  8G14G 3G31G25G11G15G23G18
  20595489.579   -23516113.78644 -18263125.88942  20595491.807    20595488.313
  23869234.403    -1953678.80143  -1480033.85642  23869235.942    23869238.568
  23273869.869    -5028692.17843  -3644157.41542  23273871.336    23273872.139
  22458041.627   -17106746.53243 -13292150.00042  22458044.233    22458044.259
  22900153.759    -9985668.00643  -7775185.40442  22900156.182    22900154.307
  23293262.187    -9247377.01443  -7194127.04342  23293263.561    23293265.032
  24298805.823    -6608591.06743  -4768305.40642  24298807.363    24298807.214
  23807087.614   -11293914.53743  -8779624.94642  23807089.796    23807088.639
 03  4  6  2 21 30.0000000  0  8G14G 3G31G25G11G15G23G18
  20603473.362   -23474158.14644 -18230433.17742  20603475.599    20603472.254
  23885193.028    -1869815.70943  -1414686.17042  23885194.468    23885197.637
  23286083.420    -4964510.45543  -3594145.76442  23286084.892    23286085.374
  22441506.332   -17193639.27943 -13359858.48942  22441509.033    22441508.944
  22884089.254   -10070086.64843  -7840966.04842  22884091.666    22884090.097
  23313324.113    -9141950.23743  -7111976.39842  23313325.460    23313327.343
  24310657.018    -6546311.86843  -4719776.12642  24310658.654    24310658.617
  23820834.291   -11221673.97643  -8723333.55842  23820836.449    23820835.746
 03  4  6  2 22  0.0000000  0  8G14G 3G31G25G11G15G23G18
  20611526.267   -23431840.14144 -18197458.09442  20611528.453    20611525.154
  23901165.497    -1785879.47443  -1349281.46542  23901167.001    23901170.537
  23298356.029    -4900019.14543  -3543892.89142  23298357.489    23298357.583
  22425019.630   -17280277.79343 -13427368.87342  22425022.234    22425021.916
  22868076.826   -10154232.03443  -7906533.77842  22868079.318    22868077.840
  23333427.750    -9036305.05143  -7029655.55142  23333428.915    23333431.065
  24322521.619    -6483962.27743  -4671191.98742  24322523.359    24322523.578
  23834598.643   -11149341.11643  -8666970.26342  23834600.827    23834600.105
 03  4  6  2 22 30.0000000  0  8G14G 3G31G25G11G15G23G18
  20619646.295   -23389168.96744 -18164207.82942  20619648.474    20619645.185
  23917150.386    -1701880.02543  -1283827.53042  23917151.666    23917155.241
  23310685.427    -4835228.41843  -3493406.71442  23310687.025    23310686.985
  22408580.224   -17366666.75343 -13494684.79342  22408582.901    22408582.318
  22852115.520   -10238108.86843  -7971892.23342  22852118.042    22852116.655
  23353571.578    -8930450.52643  -6947171.59442  23353572.524    23353574.466
  24334398.617    -6421549.16743  -4622558.39342  24334400.219    24334400.310
  23848379.646   -11076923.13243  -8610540.66042  23848381.694    23848380.666
 03  4  6  2 23  0.0000000  0  8G14G 3G31G25G11G15G23G18
  20627835.125   -23346136.71344 -18130676.19942  20627837.279    20627833.916
  23933148.911    -1617810.53943  -1218319.02742  23933150.032    23933153.350
  23323072.848    -4770131.34343  -3442681.79042  23323074.560    23323074.666
  22392190.719   -17452793.54843 -13561796.42642  22392193.541    22392192.743
  22836207.665   -10321704.73643  -8037031.75642  22836210.179    22836208.880
  23373756.760    -8824378.67943  -6864518.29742  23373757.719    23373759.134
  24346289.771    -6359062.35043  -4573867.36042  24346291.286    24346291.019
  23862178.509   -11004410.08643  -8554036.96042  23862180.596    23862179.493
 03  4  6  2 23 30.0000000  0  8G14G 3G31G25G11G15G23G18
  20636091.524   -23302748.70744 -18096867.34942  20636093.745    20636090.340
  23949159.054    -1533677.37843  -1152760.91242  23949160.581    23949163.524
  23335517.261    -4704734.04443  -3391722.93142  23335518.917    23335519.583
  22375851.091   -17538658.67243 -13628704.16542  22375853.833    22375853.076
  22820353.279   -10405020.50543  -8101953.04042  22820355.748    22820354.335
  23393981.891    -8718094.96343  -6781699.91142  23393983.118    23393984.125
  24358193.965    -6296504.72243  -4525121.13242  24358195.766    24358195.298
  23875994.515   -10931805.33243  -8497461.81442  23875996.807    23875995.599
 03  4  6  2 24  0.0000000  0  8G14G 3G31G25G11G15G23G18
  20644414.577   -23259010.94144 -18062785.96942  20644416.750    20644413.356
  23965179.978    -1449487.57543  -1087158.63742  23965181.716    23965184.350
  23348017.686    -4639043.52943  -3340535.59042  23348019.200    23348020.311
  22359560.984   -17624263.32143 -13695408.94242  22359563.615    22359562.930
  22804551.826   -10488058.00543  -8166657.46542  22804554.232    22804552.726
  23414246.124    -8611605.27243  -6698721.02042  23414247.622    23414248.441
  24370110.735    -6233880.05643  -4476322.68542  24370112.656    24370112.403
  23889827.355   -10859112.94943  -8440818.41342  23889829.710    23889828.155
 03  4  6  2 24 30.0000000  0  8G14G 3G31G25G11G15G23G18
  20652805.537   -23214916.32544 -18028426.51942  20652807.701    20652804.261
  23981212.753    -1365234.63043  -1021507.20642  23981214.663    23981217.254
  23360575.643    -4573053.47243  -3289114.86842  23360577.015    23360577.894
  22343322.594   -17709596.14943 -13761901.91242  22343325.188    22343324.539
  22788805.383   -10570805.81043  -8231136.16642  22788807.851    22788806.158
  23434551.008    -8504902.38243  -6615575.98942  23434552.487    23434553.531
  24382042.350    -6171178.83443  -4427464.55842  24382044.205    24382043.951
  23903678.552   -10786323.59543  -8384099.41742  23903680.826    23903679.621
 03  4  6  2 25  0.0000000  0  8G14G 3G31G25G11G15G23G18
  20661264.612   -23170463.50444 -17993787.96142  20661266.781    20661263.362
  23997257.419    -1280918.00243   -955806.11742  23997259.381    23997262.487
  23373190.309    -4506763.49743  -3237460.42942  23373191.723    23373192.397
  22327136.891   -17794651.20843 -13828178.44842  22327139.549    22327138.998
  22773115.127   -10653258.12543  -8295384.59442  22773117.634    22773115.947
  23454896.657    -8397985.10043  -6532263.90642  23454898.023    23454899.497
  24393989.423    -6108397.13243  -4378543.73542  24393991.231    24393990.982
  23917548.788   -10713434.31743  -8327302.52442  23917551.118    23917550.138
 03  4  6  2 25 30.0000000  0  8G14G 3G31G25G11G15G23G18
  20669789.172   -23125666.64744 -17958881.32442  20669791.333    20669787.954
  24013311.700    -1196553.13943   -890067.44242  24013313.427    24013316.769
  23385859.318    -4440188.95643  -3185584.25542  23385860.787    23385861.210
  22311002.239   -17879437.64143 -13894245.66042  22311004.897    22311004.499
  22757479.323   -10735424.98543  -8359410.61042  22757481.805    22757479.987
  23475280.114    -8290867.79043  -6448795.96642  23475281.507    23475283.398
  24405949.516    -6045547.16343  -4329569.73842  24405951.413    24405951.006
  23931436.342   -10640457.01443  -8270437.09842  23931438.437    23931437.155
 03  4  6  2 26  0.0000000  0  8G14G 3G31G25G11G15G23G18
  20678381.390   -23080513.65944 -17923697.17042  20678383.580    20678380.268
  24029377.348    -1112128.53443   -824282.21042  24029378.983    24029382.548
  23398584.113    -4373318.35943  -3133477.38542  23398585.843    23398586.309
  22294922.133   -17963938.68843 -13960090.47642  22294924.712    22294924.390
  22741901.045   -10817289.34143  -8423200.88542  22741903.542    22741901.614
  23495704.167    -8183537.97943  -6365162.42142  23495705.558    23495707.699
  24417925.218    -5982614.26343  -4280531.10242  24417927.178    24417926.660
  23945343.213   -10567377.32743  -8213491.91642  23945345.269    23945343.732
 03  4  6  2 26 30.0000000  0  8G14G 3G31G25G11G15G23G18
  20687035.489   -23035035.70544 -17888259.80342  20687037.724    20687034.461
  24045448.677    -1027676.07243   -758475.30442  24045450.380    24045453.645
  23411359.500    -4306183.72943  -3081164.78942  23411361.154    23411361.443
  22278891.443   -18048180.62143 -14025733.39042  22278893.956    22278893.639
  22726375.165   -10898878.40343  -8486776.65242  22726377.591    22726375.640
  23516163.294    -8076026.74743  -6281387.53842  23516164.466    23516166.532
  24429911.305    -5919627.17443  -4231450.24542  24429913.068    24429912.757
  23959263.518   -10494224.35643  -8156489.61142  23959265.520    23959264.310
 03  4  6  2 27  0.0000000  0  8G14G 3G31G25G11G15G23G18
  20695757.513   -22989201.44744 -17852544.80042  20695759.705    20695756.508
  24061530.749     -943165.36443   -692622.98942  24061532.507    24061535.600
  23424190.993    -4238754.89643  -3028622.95042  23424192.621    23424192.913
  22262916.719   -18132127.60743 -14091146.49442  22262919.299    22262918.895
  22710908.336   -10980156.39043  -8550110.02942  22710910.822    22710908.780
  23536662.575    -7968303.01943  -6197447.04842  23536663.782    23536665.738
  24441914.089    -5856552.22643  -4182300.92242  24441915.730    24441915.431
  23973203.898   -10420965.01543  -8099404.35542  23973205.893    23973205.036
 03  4  6  2 27 30.0000000  0  8G14G 3G31G25G11G15G23G18
  20704545.042   -22943022.42644 -17816561.13242  20704547.282    20704544.072
  24077621.452     -858609.00643   -626735.10942  24077623.298    24077626.199
  23437075.862    -4171044.20043  -2975861.47142  23437077.542    23437078.168
  22246996.980   -18215786.72643 -14156335.28342  22246999.446    22246998.848
  22695499.534   -11061130.25443  -8613206.43842  22695502.008    22695499.717
  23557200.100    -7860377.95843  -6113349.68142  23557201.430    23557203.137
  24453931.598    -5793398.51243  -4133090.20942  24453933.381    24453932.884
  23987163.323   -10347608.52343  -8042243.45242  23987165.219    23987164.085
 03  4  6  2 28  0.0000000  0  8G14G 3G31G25G11G15G23G18
  20713398.008   -22896499.99144 -17780309.87042  20713400.262    20713396.896
  24093720.171     -774009.12143   -560813.31342  24093722.086    24093725.216
  23450013.560    -4103054.09443  -2922882.23542  23450015.297    23450016.332
  22231132.391   -18299154.89143 -14221297.35242  22231134.930    22231134.182
  22680149.024   -11141797.26343  -8676063.74342  22680151.502    22680149.079
  23577775.722    -7752253.42943  -6029096.89842  23577777.025    23577778.406
  24465964.922    -5730165.13843  -4083817.45342  24465966.550    24465965.586
  24001141.278   -10274154.35343  -7985006.44842  24001143.200    24001141.804
 03  4  6  2 28 30.0000000  0  8G14G 3G31G25G11G15G23G18
  20722316.162   -22849635.04644 -17743791.72742  20722318.458    20722314.915
  24109826.925     -689367.44343   -494858.94642  24109828.882    24109832.291
  23463004.679    -4034786.32143  -2869686.65942  23463006.322    23463007.352
  22215324.048   -18382227.97643 -14286029.49342  22215326.505    22215325.759
  22664857.557   -11222153.89543  -8738679.22442  22664860.080    22664857.460
  23598389.004    -7643930.15243  -5944689.25142  23598390.484    23598391.663
  24478013.098    -5666850.57843  -4034481.41342  24478015.044    24478013.970
  24015138.028   -10200601.34743  -7927692.41042  24015140.120    24015138.459
 03  4  6  2 29  0.0000000  0  8G14G 3G31G25G11G15G23G18
  20731296.910   -22802440.88844 -17707017.04642  20731299.230    20731295.723
  24125939.116     -604697.78943   -428882.76142  24125941.113    24125944.451
  23476046.107    -3966254.94043  -2816285.69342  23476047.620    23476048.468
  22199570.206   -18465014.60643 -14350538.42542  22199572.624    22199572.011
  22649623.503   -11302208.98743  -8801059.70442  22649625.951    22649623.471
  23619037.671    -7535421.17043  -5860136.88842  23619039.166    23619040.447
  24490074.846    -5603465.53443  -3985090.47242  24490076.799    24490075.853
  24029151.659   -10126960.36943  -7870309.81642  24029153.739    24029151.718
 03  4  6  2 29 30.0000000  0  8G14G 3G31G25G11G15G23G18
  20740342.194   -22754907.28344 -17669977.85842  20740344.546    20740341.092
  24142058.352     -519990.93443   -362877.64142  24142060.282    24142063.673
  23489139.108    -3897450.81143  -2762672.15642  23489140.595    23489141.687
  22183873.640   -18547500.18643 -14414812.76942  22183876.198    22183875.370
  22634449.598   -11381947.84943  -8863193.77542  22634452.028    22634449.648
  23639723.520    -7426716.36243  -5775431.92842  23639725.041    23639726.372
  24502152.759    -5539997.49443  -3935634.85142  24502154.631    24502153.611
  24043183.917   -10053219.34443  -7812849.25542  24043185.889    24043184.104
 03  4  6  2 30  0.0000000  0  8G14G 3G31G25G11G15G23G18
  20749449.200   -22707049.69644 -17632686.22542  20749451.517    20749448.023
  24158181.489     -435263.21043   -296856.20142  24158183.457    24158186.952
  23502280.960    -3828390.31543  -2708858.85542  23502282.435    23502283.494
  22168232.348   -18629695.19743 -14478860.69842  22168234.980    22168233.950
  22619333.839   -11461381.58443  -8925090.08542  22619336.246    22619333.945
  23660443.805    -7317831.28343  -5690586.49542  23660445.337    23660446.781
  24514243.168    -5476459.54343  -3886124.73942  24514245.204    24514244.931
  24057232.427    -9979391.80743  -7755321.24342  24057234.757    24057233.030
 03  4  6  2 30 30.0000000  0  8G14G 3G31G25G11G15G23G18
  20758616.447   -22658875.38844 -17595147.78542  20758618.761    20758615.241
  24174307.683     -350522.59843   -230824.74042  24174309.427    24174312.689
  23515469.968    -3759081.71343  -2654852.26242  23515471.455    23515472.226
  22152645.719   -18711602.62543 -14542684.54342  22152648.364    22152647.241
  22604275.490   -11540512.99943  -8986750.82042  22604277.953    22604275.760
  23681197.161    -7208773.33043  -5605606.38542  23681198.519    23681199.959
  24526346.414    -5412856.71643  -3836564.04842  24526348.257    24526348.005
  24071297.135    -9905482.97043  -7697729.94442  24071299.448    24071297.480
 03  4  6  2 31  0.0000000  0  8G14G 3G31G25G11G15G23G18
  20767845.317   -22610376.89144 -17557356.74142  20767847.604    20767844.216
  24190437.109     -265762.59143   -164778.17742  24190438.856    24190442.399
  23528707.237    -3689518.61443  -2600647.32042  23528708.747    23528709.725
  22137116.176   -18793210.19543 -14606274.73442  22137118.680    22137117.790
  22589276.930   -11619330.47843  -9048166.94842  22589279.340    22589277.215
  23701984.402    -7099534.92143  -5520485.62942  23701985.926    23701987.453
  24538463.772    -5349179.23643  -3786945.21842  24538465.715    24538465.204
  24085378.736    -9831483.41543  -7640067.95042  24085381.144    24085379.116
 03  4  6  2 31 30.0000000  0  8G14G 3G31G25G11G15G23G18
  20777141.403   -22561525.83944 -17519290.97642  20777143.621    20777140.254
  24206575.276     -180955.31943    -98694.75942  24206577.047    24206581.209
  23541998.503    -3619673.29143  -2546222.48842  23541999.954    23542001.068
  22121649.908   -18874484.49243 -14669605.23642  22121652.381    22121651.700
  22574344.334   -11697801.17043  -9109312.84842  22574346.744    22574344.694
  23722811.297    -6990087.49243  -5435202.00042  23722812.936    23722814.690
  24550601.443    -5285396.07843  -3737244.06842  24550603.257    24550602.525
  24099483.535    -9757362.47043  -7582311.39242  24099485.703    24099483.793
 03  4  6  2 32  0.0000000  0  8G14G 3G31G25G11G15G23G18
  20786499.126   -22512350.86244 -17480972.80242  20786501.358    20786497.933
  24222717.076      -96130.55543    -32597.71342  24222718.829    24222723.122
  23555337.853    -3549575.51643  -2491600.93642  23555339.347    23555340.522
  22106242.765   -18955449.76643 -14732694.94842  22106245.120    22106244.287
  22559473.283   -11775949.08843  -9170207.23942  22559475.693    22559473.692
  23743672.745    -6880459.87843  -5349777.97342  23743674.247    23743676.271
  24562753.715    -5221533.52443  -3687481.01042  24562755.628    24562755.376
  24113606.389    -9683146.81043  -7524481.00742  24113608.366    24113606.645
 03  4  6  2 32 30.0000000  0  8G14G 3G31G25G11G15G23G18
  20795916.098   -22462864.03144 -17442411.62242  20795918.333    20795914.975
  24238859.939      -11301.07743     33502.95942  24238861.667    24238865.814
  23568722.583    -3479238.24643  -2436792.75742  23568724.182    23568725.326
  22090892.790   -19036113.92043 -14795550.00842  22090895.299    22090894.207
  22544662.068   -11853782.11143  -9230856.26742  22544664.493    22544662.615
  23764566.230    -6770664.18443  -5264222.96042  23764567.653    23764569.847
  24574919.599    -5157601.35243  -3637663.72242  24574921.380    24574921.271
  24127745.043    -9608846.35343  -7466584.53142  24127747.122    24127745.920
 03  4  6  2 33  0.0000000  0  8G14G 3G31G25G11G15G23G18
  20805394.351   -22413055.30144 -17403599.61242  20805396.575    20805393.236
  24255005.309       73542.40143     99614.56942  24255007.067    24255011.178
  23582154.633    -3408652.58343  -2381791.02942  23582156.162    23582157.379
  22075603.182   -19116462.22943 -14858158.96442  22075605.668    22075604.233
  22529913.480   -11931285.87543  -9291248.73942  22529915.861    22529914.045
  23785493.809    -6660690.54643  -5178529.31842  23785495.078    23785496.938
  24587101.182    -5093587.20743  -3587782.56142  24587102.705    24587102.736
  24141902.183    -9534449.02643  -7408612.56942  24141904.072    24141903.289
 03  4  6  2 33 30.0000000  0  8G14G 3G31G25G11G15G23G18
  20814930.405   -22362942.78744 -17364550.89742  20814932.626    20814929.370
  24271149.724      158381.19143    165722.54142  24271151.453    24271155.470
  23595630.576    -3337837.54643  -2326610.61842  23595631.963    23595633.069
  22060370.919   -19196507.83443 -14920532.05142  22060373.525    22060371.886
  22515224.807   -12008474.24943  -9351395.43842  22515227.211    22515225.475
  23806451.793    -6550556.72843  -5092710.87642  23806452.984    23806454.723
  24599294.875    -5029506.83043  -3537849.77142  24599296.626    24599296.918
  24156074.978    -9459971.01143  -7350577.74042  24156076.775    24156075.665
 03  4  6  2 34  0.0000000  0  8G14G 3G31G25G11G15G23G18
  20824530.243   -22312495.38944 -17325241.22742  20824532.444    20824529.240
  24287298.964      243245.50943    231850.36342  24287300.669    24287304.769
  23609155.691    -3266762.97443  -2271227.93242  23609157.105    23609158.338
  22045202.933   -19276215.21743 -14982641.60242  22045205.491    22045204.016
  22500603.303   -12085311.60343  -9411268.62442  22500605.609    22500603.640
  23827446.015    -6440231.92043  -5006743.60742  23827447.176    23827449.004
  24611508.016    -4965326.68043  -3487839.26342  24611509.671    24611510.046
  24170269.596    -9385379.02443  -7292454.11542  24170271.432    24170269.597
 03  4  6  2 34 30.0000000  0  8G14G 3G31G25G11G15G23G18
  20834187.117   -22261747.65044 -17285697.51642  20834189.356    20834186.157
  24303446.597      328100.20943    297970.69742  24303448.143    24303452.060
  23622723.585    -3195464.25943  -2215670.58342  23622724.986    23622726.148
  22030093.701   -19355614.14943 -15044510.78642  22030096.154    22030094.912
  22486042.671   -12161827.95343  -9470891.67842  22486045.078    22486042.866
  23848469.966    -6329750.45443  -4920654.24942  23848471.177    23848472.907
  24623734.323    -4901078.92243  -3437776.06642  24623735.715    24623735.891
  24184479.626    -9310705.53043  -7234267.01342  24184481.452    24184479.541
 03  4  6  2 35  0.0000000  0  8G14G 3G31G25G11G15G23G18
  20843903.088   -22210689.79944 -17245912.16742  20843905.292    20843902.045
  24319593.940      412953.98343    364090.31542  24319595.406    24319599.286
  23636335.758    -3123932.75643  -2159931.85642  23636337.199    23636337.992
  22015045.732   -19434690.91043 -15106128.93042  22015048.257    22015047.095
  22471545.760   -12238009.54343  -9530253.87842  22471548.228    22471545.847
  23869525.345    -6219102.77943  -4834435.37242  23869526.577    23869528.553
  24635975.505    -4836751.64643  -3387650.91342  24635977.024    24635976.745
  24198707.317    -9235939.21343  -7176007.56242  24198709.118    24198707.332
 03  4  6  2 35 30.0000000  0  8G14G 3G31G25G11G15G23G18
  20853677.458   -22159325.78344 -17205888.25742  20853679.590    20853676.195
  24335740.128      497802.19243    430205.61742  24335741.699    24335745.730
  23649991.054    -3052173.30143  -2104015.51042  23649992.625    23649993.547
  22000059.328   -19513444.58843 -15167495.32842  22000061.923    22000060.714
  22457112.667   -12313855.55943  -9589354.61342  22457115.177    22457112.743
  23890611.924    -6108292.86643  -4748090.07742  23890612.933    23890615.149
  24648231.025    -4772346.07943  -3337464.77442  24648232.706    24648232.548
  24212952.038    -9161081.29443  -7117676.70142  24212954.124    24212952.415
 03  4  6  2 36  0.0000000  0  8G14G 3G31G25G11G15G23G18
  20863511.650   -22107646.83944 -17165618.95142  20863513.795    20863510.374
  24351886.793      582653.10343    496323.03042  24351888.411    24351892.840
  23663691.197    -2980177.91243  -2047915.27342  23663692.831    23663694.086
  21985137.009   -19591861.32143 -15228599.17942  21985139.573    21985138.322
  22442745.786   -12389353.05043  -9648183.74542  22442748.282    22442745.979
  23911730.991    -5997311.86343  -4661611.46642  23911732.060    23911734.365
  24660503.915    -4707851.07143  -3287208.88642  24660505.501    24660505.660
  24227216.418    -9086121.23443  -7059266.27042  24227218.598    24227216.854
 03  4  6  2 36 30.0000000  0  8G14G 3G31G25G11G15G23G18
  20873403.132   -22055666.52444 -17125114.79642  20873405.307    20873401.903
  24368031.334      667492.28543    562431.28942  24368032.809    24368037.384
  23677433.942    -2907961.37443  -1991642.72742  23677435.373    23677436.516
  21970277.005   -19669950.87843 -15289448.07342  21970279.475    21970278.188
  22428443.603   -12464511.06743  -9706748.38542  22428445.971    22428443.665
  23932879.931    -5886173.65743  -4575010.34642  23932881.136    23932883.710
  24672791.931    -4643277.93743  -3236892.14342  24672793.587    24672793.690
  24241498.159    -9011070.55143  -7000785.22842  24241500.240    24241498.657
 03  4  6  2 37  0.0000000  0  8G14G 3G31G25G11G15G23G18
  20883353.281   -22003378.52244 -17084370.88442  20883355.459    20883351.927
  24384174.491      752325.07043    628534.58842  24384175.961    24384180.466
  23691219.441    -2835518.39143  -1935193.77042  23691221.118    23691221.802
  21955481.389   -19747702.11243 -15350033.33142  21955483.914    21955482.483
  22414207.935   -12539319.10343  -9765040.30042  22414210.266    22414208.061
  23954060.139    -5774871.85143  -4488281.75442  23954061.481    23954063.843
  24685096.682    -4578618.11943  -3186507.88342  24685098.273    24685098.103
  24255798.800    -8935920.51843  -6942226.73442  24255800.965    24255799.479
 03  4  6  2 37 30.0000000  0  8G14G 3G31G25G11G15G23G18
  20893362.057   -21950782.21344 -17043386.74242  20893364.277    20893360.656
  24400316.824      837151.87843    694633.19242  24400318.230    24400322.454
  23705047.588    -2762849.22343  -1878568.53942  23705049.491    23705050.360
  21940751.097   -19825109.86243 -15410350.96042  21940753.646    21940752.227
  22400040.036   -12613772.32943  -9823055.76342  22400042.316    22400039.959
  23975271.697    -5663405.85743  -4401425.28842  23975273.135    23975275.070
  24697418.039    -4513868.46843  -3136053.65142  24697419.781    24697419.418
  24270118.777    -8860668.70043  -6883588.98242  24270121.047    24270119.422
 03  4  6  2 38  0.0000000  0  8G14G 3G31G25G11G15G23G18
  20903426.613   -21897892.34544 -17002173.84742  20903428.885    20903425.339
  24416454.820      921956.68243    760714.63742  24416456.334    24416460.242
  23718916.043    -2689969.81443  -1821779.46842  23718917.828    23718918.908
  21926084.216   -19902184.55943 -15470409.05942  21926086.700    21926085.494
  22385937.564   -12687880.98243  -9880802.70142  22385939.928    22385937.438
  23996511.385    -5551790.64743  -4314452.46542  23996513.066    23996514.652
  24709753.728    -4449041.48943  -3085539.13142  24709755.449    24709755.522
  24284455.665    -8785327.91943  -6824881.90042  24284457.889    24284456.177
 03  4  6  2 38 30.0000000  0  8G14G 3G31G25G11G15G23G18
  20913546.433   -21844711.84244 -16960734.48642  20913548.737    20913545.308
  24432587.793     1006736.35143    826776.55142  24432589.387    24432593.404
  23732824.222    -2616883.69243  -1764829.36342  23732825.780    23732826.759
  21911481.229   -19978924.05743 -15530205.97042  21911483.722    21911482.393
  22371901.052   -12761643.34343  -9938279.82842  22371903.474    22371900.893
  24017778.768    -5440028.85443  -4227365.46442  24017780.462    24017782.136
  24722104.515    -4384137.42543  -3034964.53342  24722106.234    24722106.529
  24298809.499    -8709898.65343  -6766105.86042  24298811.645    24298809.586
 03  4  6  2 39  0.0000000  0  8G14G 3G31G25G11G15G23G18
  20923722.584   -21791235.94944 -16919064.94842  20923724.893    20923721.378
  24448717.152     1091494.63243    892821.74642  24448718.620    24448722.343
  23746772.172    -2543587.29443  -1707715.39242  23746773.716    23746775.016
  21896943.487   -20055319.22043 -15589734.55942  21896946.138    21896944.631
  22357931.999   -12835050.69943  -9995480.30442  22357934.421    22357931.867
  24039075.044    -5328115.93643  -4140160.67242  24039076.678    24039078.453
  24734471.794    -4319149.56143  -2984324.66542  24734473.348    24734473.220
  24313181.306    -8634374.44443  -6707255.84342  24313183.267    24313181.443
 03  4  6  2 39 30.0000000  0  8G14G 3G31G25G11G15G23G18
  20933955.801   -21737460.24344 -16877161.79242  20933958.088    20933954.499
  24464842.868     1176234.97843    958852.97742  24464844.444    24464847.959
  23760760.545    -2470077.48443  -1650435.08842  23760762.067    23760764.042
  21882472.965   -20131361.60243 -15648988.24242  21882475.509    21882474.021
  22344032.356   -12908094.44943 -10052397.45942  22344034.671    22344032.090
  24060401.341    -5216047.56543  -4052834.77442  24060402.731    24060404.463
  24746856.237    -4254071.09443  -2933614.21642  24746857.944    24746857.173
  24327572.256    -8558749.02243  -6648326.94342  24327574.464    24327572.654
 03  4  6  2 40  0.0000000  0  8G14G 3G31G25G11G15G23G18
  20944243.515   -21683397.59144 -16835035.04442  20944245.804    20944242.325
  24480962.609     1260944.36643   1024860.08642  24480964.211    24480967.707
  23774787.444    -2396367.71743  -1592999.01842  23774788.846    23774790.746
  21868068.375   -20207059.17343 -15707973.25342  21868070.867    21868069.325
  22330200.155   -12980782.91943 -10109037.76542  22330202.539    22330199.897
  24081754.800    -5103836.62743  -3965397.80442  24081756.184    24081757.650
  24759255.205    -4188912.29943  -2882841.14142  24759257.322    24759256.312
  24341980.455    -8483032.97743  -6589327.43742  24341982.682    24341980.991
 03  4  6  2 40 30.0000000  0  8G14G 3G31G25G11G15G23G18
  20954587.602   -21629039.20544 -16792677.85442  20954589.850    20954586.414
  24497077.686     1345630.76243   1090849.28742  24497079.380    24497083.597
  23788853.785    -2322450.20843  -1535401.10142  23788855.268    23788856.625
  21853731.649   -20282398.89543 -15766679.42842  21853734.249    21853732.688
  22316438.075   -13053102.96043 -10165390.99042  22316440.490    22316437.776
  24103136.630    -4991474.29743  -3877842.83742  24103138.073    24103139.810
  24771671.543    -4123662.05443  -2831996.75942  24771673.979    24771673.406
  24356408.188    -8407215.35443  -6530248.77242  24356410.225    24356408.618
 03  4  6  2 41  0.0000000  0  7G14G 3G31G25G11G15G18
  20964986.892   -21574390.47844 -16750094.42442  20964989.141    20964985.664
  24513187.462     1430288.07843   1156815.84342  24513189.066    24513193.486
  23802957.966    -2248331.55843  -1477646.41042  23802959.523    23802961.109
  21839462.606   -20357381.86643 -15825107.62742  21839465.143    21839463.780
  22302745.866   -13125055.76743 -10221458.05542  22302748.273    22302745.654
  24124546.087    -4878966.51743  -3790174.56842  24124547.713    24124549.710
  24370854.496    -8331299.58543  -6471093.65542  24370856.555    24370854.813
 03  4  6  2 41 30.0000000  0  7G14G 3G31G25G11G15G18
  20975441.835   -21519449.20444 -16707283.02742  20975444.092    20975440.631
  24529292.485     1514917.48943   1222760.61342  24529293.820    24529298.062
  23817100.650    -2174010.51843  -1419734.01542  23817102.293    23817103.946
  21825262.739   -20432001.27743 -15883252.52342  21825265.181    21825263.999
  22289124.938   -13196634.70743 -10277233.81942  22289127.297    22289124.649
  24145983.707    -4766311.09743  -3702391.23242  24145985.336    24145987.546
  24385320.261    -8255281.61943  -6411858.87242  24385322.418    24385320.625
 03  4  6  2 42  0.0000000  0  7G14G 3G31G25G11G15G18
  20985949.612   -21464230.56844 -16664255.51342  20985951.825    20985948.401
  24545388.459     1599503.39743   1288671.50542  24545390.023    24545394.541
  23831279.140    -2099503.32943  -1361676.59742  23831280.756    23831282.175
  21811130.300   -20506267.97043 -15941122.57242  21811132.700    21811131.426
  22275572.970   -13267850.73643 -10332726.78442  22275575.305    22275572.710
  24167446.854    -4653523.17743  -3614504.66242  24167448.350    24167450.338
  24399802.821    -8179174.50343  -6352554.62542  24399804.989    24399803.322
 03  4  6  2 42 30.0000000  0  7G14G 3G31G25G11G15G18
  20996511.176   -21408729.15444 -16621007.65142  20996513.362    20996509.893
  24561477.096     1684050.60543   1354552.22142  24561478.599    24561483.562
  23845493.888    -2024805.51643  -1303470.63342  23845495.552    23845496.648
  21797066.800   -20580171.92243 -15998709.97142  21797069.268    21797067.859
  22262092.024   -13338694.00543 -10387929.28842  22262094.356    22262091.688
  24188936.061    -4540597.15343  -3526510.44542  24188937.647    24188939.281
  24414303.651    -8102970.80143  -6293175.13142  24414305.721    24414304.416
 03  4  6  2 43  0.0000000  0  7G14G 3G31G25G11G15G18
  21007124.648   -21352955.21944 -16577547.43042  21007126.821    21007123.217
  24577557.047     1768548.09343   1420394.23242  24577558.268    24577563.102
  23859742.669    -1949928.32643  -1245124.87742  23859744.326    23859745.424
  21783071.287   -20653719.13043 -16056019.39542  21783073.753    21783072.078
  22248680.702   -13409170.80143 -10442846.22742  22248683.082    22248680.414
  24210449.795    -4427543.58543  -3438416.88842  24210451.097    24210452.543
  24428821.325    -8026678.80543  -6233726.83842  24428823.324    24428822.174
 03  4  6  2 43 30.0000000  0  7G14G 3G31G25G11G15G18
  21017788.817   -21296914.59744 -16533879.40542  21017791.013    21017787.337
  24593625.883     1852989.43343   1486192.48442  24593627.287    24593632.003
  23874024.196    -1874878.69943  -1186644.76142  23874025.832    23874027.009
  21769143.217   -20726911.08143 -16113051.98842  21769145.634    21769143.928
  22235338.794   -13479282.70643 -10497478.82442  22235341.185    22235338.518
  24231986.748    -4314368.36443  -3350228.52242  24231987.790    24231989.054
  24443355.397    -7950302.20943  -6174212.62842  24443357.384    24443356.008
 03  4  6  2 44  0.0000000  0  7G14G 3G31G25G11G15G18
  21028505.678   -21240596.86544 -16489995.45242  21028507.880    21028504.267
  24609685.826     1937384.54343   1551954.67742  24609687.224    24609692.330
  23888340.195    -1799646.98843  -1128022.75442  23888341.921    23888343.159
  21755285.552   -20799733.07943 -16169796.29742  21755287.965    21755286.316
  22222069.023   -13549014.70443 -10551815.38142  22222071.446    22222068.897
  24253548.452    -4201061.16343  -3261937.33442  24253549.660    24253551.018
  24457908.040    -7873828.39443  -6114622.62942  24457909.874    24457908.466
 03  4  6  2 44 30.0000000  0  7G14G 3G31G25G11G15G18
  21039273.271   -21184012.62544 -16445903.84142  21039275.476    21039271.938
  24625734.663     2021722.01043   1617672.00442  24625735.976    24625741.415
  23902688.690    -1724244.99943  -1069268.05442  23902690.384    23902691.641
  21741497.185   -20872191.09443 -16226256.99742  21741499.665    21741498.071
  22208870.439   -13618373.15143 -10605860.86242  22208872.818    22208870.241
  24275132.865    -4087632.64643  -3173551.59142  24275134.235    24275136.052
  24472477.566    -7797266.27343  -6054963.85842  24472479.396    24472477.767
 03  4  6  2 45  0.0000000  0  7G14G 3G31G25G11G15G18
  21050093.382   -21127152.12544 -16401596.95742  21050095.626    21050092.172
  24641774.483     2106010.80743   1683351.38042  24641775.819    24641781.268
  23917071.525    -1648664.08743  -1010373.95842  23917072.955    23917074.544
  21727780.697   -20944271.54443 -16282423.49542  21727783.144    21727781.526
  22195745.495   -13687344.29243 -10659604.55642  22195747.828    22195745.342
  24296742.011    -3974073.17343  -3085063.79642  24296743.389    24296745.847
  24487065.590    -7720603.99343  -5995226.98042  24487067.556    24487066.010
 03  4  6  2 45 30.0000000  0  7G14G 3G31G25G11G15G18
  21060964.655   -21070023.69944 -16357081.30242  21060966.870    21060963.364
  24657803.400     2190242.15043   1748985.94742  24657804.794    24657810.628
  23931486.462    -1572913.39143   -951347.55142  23931487.992    23931489.621
  21714135.383   -21015977.76343 -16338298.38842  21714137.744    21714136.109
  22182693.619   -13755931.95043 -10713049.43142  22182695.921    22182693.389
  24318374.902    -3860391.36643  -2996480.67442  24318376.155    24318379.055
  24501672.182    -7643847.59043  -5935416.83642  24501674.208    24501672.162
 03  4  6  2 46  0.0000000  0  7G14G 3G31G25G11G15G18
  21071886.167   -21012630.87544 -16312359.61442  21071888.421    21071884.854
  24673820.439     2274411.81743   1814572.50342  24673822.073    24673827.716
  23945933.000    -1496997.68543   -892192.58142  23945934.442    23945935.955
  21700561.481   -21087309.18243 -16393881.21742  21700563.824    21700561.965
  22169714.825   -13824135.69343 -10766195.16642  22169717.091    22169714.471
  24340030.505    -3746591.05343  -2907805.21142  24340031.535    24340034.759
  24516296.301    -7566999.06143  -5875534.91642  24516298.324    24516295.967
 03  4  6  2 46 30.0000000  0  7G14G 3G31G25G11G15G18
  21082859.958   -20954962.60944 -16267423.30142  21082862.251    21082858.812
  24689827.780     2358530.16543   1880119.05442  24689829.253    24689834.703
  23960412.905    -1420906.84543   -832901.13442  23960414.264    23960415.821
  21687061.551   -21158250.51843 -16449160.09442  21687063.997    21687062.044
  22156812.056   -13891940.15343 -10819029.74242  22156814.306    22156811.758
  24361710.788    -3632661.12543  -2819028.75742  24361711.675    24361714.944
  24530939.662    -7490045.30943  -5815570.95242  24530942.111    24530939.880
 03  4  6  2 47  0.0000000  0  7G14G 3G31G25G11G15G18
  21093884.126   -20897030.18144 -16222281.13742  21093886.379    21093883.001
  24705823.055     2442585.21943   1945616.28542  24705824.697    24705830.120
  23974923.391    -1344653.15643   -773482.80442  23974924.969    23974926.364
  21673634.658   -21228808.65843 -16504140.38842  21673636.951    21673635.160
  22143983.928   -13959352.47743 -10871558.76842  22143986.171    22143983.646
  24383413.465    -3518612.72443  -2730159.97042  24383414.475    24383417.734
  24545601.532    -7412995.37443  -5755532.09042  24545604.005    24545602.062
 03  4  6  2 47 30.0000000  0  7G14G 3G31G25G11G15G18
  21104961.018   -20838820.99944 -16176923.33642  21104963.250    21104959.815
  24721808.750     2526588.84943   2011073.42842  24721810.256    24721815.800
  23989466.865    -1268225.14043   -713928.60642  23989468.569    23989470.015
  21660284.033   -21298966.83544 -16558809.00242  21660286.316    21660284.445
  22131233.515   -14026355.72243 -10923769.00942  22131235.805    22131233.352
  24405141.037    -3404433.69943  -2641189.40542  24405142.140    24405145.420
  24560284.639    -7335834.82343  -5695407.00742  24560287.075    24560285.314
 03  4  6  2 48  0.0000000  0  7G14G 3G31G25G11G15G18
  21116083.908   -20780369.64144 -16131376.81242  21116086.184    21116082.689
  24737777.712     2610505.88243   2076463.10042  24737779.300    24737785.103
  24004037.199    -1191658.56743   -654266.43742  24004038.828    24004040.154
  21647003.680   -21368755.20343 -16613189.45742  21647006.089    21647004.138
  22118555.335   -14092980.54343 -10975684.42242  22118557.595    22118554.912
  24426887.028    -3290159.12343  -2552144.39942  24426888.143    24426891.316
  24574982.908    -7258596.22843  -5635221.06642  24574985.196    24574983.617
 03  4  6  2 48 30.0000000  0  7G14G 3G31G25G11G15G18
  21127253.600   -20721672.15844 -16085638.51542  21127255.835    21127252.458
  24753731.026     2694339.83543   2141788.03242  24753732.527    24753738.410
  24018634.582    -1114950.15143   -594493.78342  24018636.347    24018637.562
  21633795.274   -21438165.66244 -16667275.44742  21633797.670    21633795.711
  22105950.661   -14159218.66143 -11027298.48542  22105952.959    22105950.079
  24448652.077    -3175784.46443  -2463021.42742  24448653.076    24448656.381
  24589696.954    -7181273.78643  -5574969.84142  24589699.165    24589697.734
 03  4  6  2 49  0.0000000  0  7G14G 3G31G25G11G15G18
  21138472.687   -20662715.51744 -16039698.26642  21138474.854    21138471.571
  24769670.834     2778103.08243   2207057.87642  24769672.449    24769678.278
  24033260.933    -1038088.11743   -534601.40442  24033262.751    24033263.991
  21620662.021   -21507180.75343 -16721053.36342  21620664.468    21620662.526
  22093422.788   -14225052.78343 -11078597.74642  22093425.152    22093422.195
  24470438.703    -3061297.16843  -2373810.66542  24470439.801    24470442.658
  24604429.690    -7103852.30443  -5514641.42342  24604431.930    24604430.385
 03  4  6  2 49 30.0000000  0  6G14G 3G31G25G11G15
  21149740.583   -20603502.50544 -15993558.24442  21149742.765    21149739.405
  24785596.525     2861792.33543   2272270.09742  24785598.207    24785604.100
  24047915.972     -961076.41043   -474592.37742  24047917.741    24047918.974
  21607604.239   -21575799.13943 -16774522.15642  21607606.621    21607604.835
  22080972.028   -14290481.77843 -11129581.33442  22080974.392    22080971.428
  24492246.008    -2946700.31743  -2284514.54742  24492247.309    24492249.614
 03  4  6  2 50  0.0000000  0  5G14G31G25G11G15
  21161056.743   -20544035.77644 -15947220.52442  21161058.963    21161055.499
  24062598.965     -883918.46643   -414469.43642  24062600.777    24062601.843
  21594622.294   -21644019.42643 -16827680.74442  21594624.654    21594622.915
  22068598.709   -14355503.74343 -11180247.74642  22068601.084    22068598.247
  24514073.277    -2831996.68643  -2195135.20342  24514074.650    24514076.961
 03  4  6  2 50 30.0000000  0  5G14G31G25G11G15
  21172421.555   -20484312.43444 -15900682.85642  21172423.812    21172420.495
  24077309.489     -806612.55743   -354231.20942  24077311.391    24077312.736
  21581717.477   -21711834.51244 -16880523.58142  21581719.864    21581718.036
  22056304.276   -14420111.77543 -11230591.61242  22056306.649    22056303.966
  24535921.317    -2717183.49643  -2105670.50842  24535922.712    24535925.350
 03  4  6  2 51  0.0000000  0  5G14G31G25G11G15
  21183831.055   -20424355.10944 -15853962.85942  21183833.240    21183829.990
  24092043.726     -729182.34043   -293896.08142  24092045.742    24092047.259
  21568886.251   -21779262.75744 -16933064.98642  21568888.692    21568886.824
  22044084.983   -14484324.41043 -11280627.40642  22044087.380    22044084.683
  24557786.082    -2602283.48543  -2016138.15942  24557787.206    24557790.114
 03  4  6  2 51 30.0000000  0  5G14G31G25G11G15
  21195288.861   -20364144.23444 -15807045.29042  21195291.074    21195287.746
  24106805.789     -651609.47743   -233449.81942  24106807.609    24106809.163
  21556133.027   -21846280.58943 -16985286.59342  21556135.429    21556133.659
  22031945.262   -14548118.31443 -11330336.87442  22031947.736    22031945.007
  24579670.913    -2487277.32943  -1926523.07842  24579672.004    24579675.068
 03  4  6  2 52  0.0000000  0  5G14G31G25G11G15
  21206793.012   -20303689.66044 -15759937.81642  21206795.226    21206791.837
  24121592.921     -573904.54143   -172900.68442  24121594.687    24121596.217
  21543457.018   -21912893.51544 -17037192.68542  21543459.359    21543457.477
  22019884.295   -14611498.85843 -11379724.26042  22019886.816    22019883.894
  24601574.099    -2372175.04343  -1836833.11242  24601575.212    24601578.143
 03  4  6  2 52 30.0000000  0  5G14G31G25G11G15
  21218339.602   -20243011.76744 -15712656.33842  21218341.844    21218338.441
  24136400.483     -496089.24543   -112265.49642  24136402.240    24136404.300
  21530854.955   -21979118.00444 -17088796.10642  21530857.364    21530855.253
  22007898.848   -14674482.56643 -11428802.43142  22007901.413    22007898.257
  24623492.081    -2256997.34943  -1747084.38042  24623493.259    24623495.471
 03  4  6  2 53  0.0000000  0  5G14G31G25G11G15
  21229935.763   -20182073.54744 -15665172.01242  21229937.935    21229934.573
  24151236.167     -418127.46743    -51516.18442  24151237.958    24151239.851
  21518334.606   -22044912.87744 -17140064.76642  21518337.029    21518334.822
  21995996.736   -14737028.35843 -11477539.36642  21995999.268    21995995.997
  24645431.167    -2141707.25043  -1657248.07442  24645432.639    24645434.352
 03  4  6  2 53 30.0000000  0  5G14G31G25G11G15
  21241575.814   -20120904.74444 -15617508.00942  21241577.975    21241574.599
  24166093.992     -340050.18543      9323.11942  24166095.552    24166097.451
  21505891.031   -22110303.75544 -17191018.62342  21505893.558    21505891.350
  21984173.046   -14799161.88843 -11525955.05742  21984175.500    21984172.297
  24667386.041    -2026334.60843  -1567347.40042  24667387.449    24667389.051
 03  4  6  2 54  0.0000000  0  4G14G31G25G11
  21253259.566   -20059506.29844 -15569665.05942  21253261.776    21253258.322
  24180973.231     -261859.28143     70250.98442  24180974.746    24180976.931
  21493524.971   -22175287.50744 -17241655.23742  21493527.446    21493525.287
  21972428.528   -14860879.95043 -11574047.00842  21972430.951    21972427.762
 03  4  6  2 54 30.0000000  0  4G14G31G25G11
  21264985.001   -19997888.75944 -15521651.38742  21264987.262    21264983.726
  24195872.426     -183566.49743    131258.18742  24195873.877    24195875.726
  21481235.073   -22239870.68844 -17291979.70942  21481237.509    21481235.389
  21960761.802   -14922189.08543 -11621820.31442  21960764.240    21960761.047
 03  4  6  2 55  0.0000000  0  4G14G31G25G11
  21276756.636   -19936028.49944 -15473448.57842  21276758.883    21276755.327
  24210794.744     -105149.13243    192362.45542  24210796.538    24210798.002
  21469026.858   -22304025.39844 -17341970.31342  21469029.223    21469027.013
  21949178.172   -14983061.64843 -11669253.43442  21949180.603    21949177.310
 03  4  6  2 55 30.0000000  0  4G14G31G25G11
  21288573.671   -19873929.17844 -15425059.48642  21288575.956    21288572.362
  24225739.745      -26611.86043    253560.20042  24225741.519    24225743.315
  21456900.083   -22367751.27544 -17391626.76342  21456902.477    21456900.262
  21937677.494   -15043497.28543 -11716346.10642  21937679.989    21937676.721
 03  4  6  2 56  0.0000000  0  4G14G31G25G11
  21300432.944   -19811608.05544 -15376497.56842  21300435.258    21300431.625
  24240704.177       52026.90443    314837.01342  24240705.853    24240707.870
  21444852.441   -22431061.82844 -17440959.57842  21444854.787    21444852.573
  21926257.428   -15103509.06343 -11763108.48442  21926259.895    21926256.870
 03  4  6  2 56 30.0000000  0  4G14G31G25G11
  21312334.270   -19749066.32944 -15327763.73642  21312336.592    21312332.944
  24255687.539      130764.72343    376191.00442  24255689.060    24255691.317
  21432884.346   -22493954.39344 -17489966.69742  21432886.724    21432884.468
  21914918.770   -15163094.71543 -11809538.80142  21914921.087    21914918.156
 03  4  6  2 57  0.0000000  0  4G14G31G25G11
  21324281.709   -19686282.32344 -15278841.13442  21324284.036    21324280.396
  24270693.773      209622.48043    437638.49342  24270695.110    24270697.519
  21421000.710   -22556403.21344 -17538628.04542  21421003.078    21421000.790
  21903665.926   -15222228.17343 -11855616.76742  21903668.382    21903665.458
 03  4  6  2 57 30.0000000  0  4G14G31G25G11
  21336270.894   -19623278.83744 -15229747.49842  21336273.210    21336269.569
  24285718.068      288576.12343    499160.67042  24285719.381    24285722.350
  21409197.835   -22618427.08344 -17586958.27142  21409200.207    21409197.974
  21892495.606   -15280928.47643 -11901357.21042  21892498.026    21892495.047
 03  4  6  2 58  0.0000000  0  4G14G31G25G11
  21348304.429   -19560042.65644 -15180472.55242  21348306.704    21348302.957
  24300763.169      367637.85943    560767.07342  24300764.303    24300767.755
  21397479.048   -22680009.07344 -17634944.15542  21397481.407    21397479.285
  21881411.081   -15339178.50344 -11946746.80942  21881413.447    21881410.333
 03  4  6  2 58 30.0000000  0  4G14G31G25G11
  21360376.510   -19496603.16144 -15131039.15942  21360378.800    21360374.990
  24315823.477      446777.21343    622433.98042  24315824.403    24315827.446
  21385839.664   -22741174.41744 -17682605.39742  21385841.944    21385839.855
  21870407.336   -15397003.78143 -11991805.42642  21870409.683    21870406.397
 03  4  6  2 59  0.0000000  0  4G14G31G25G11
  21372487.455   -19432960.08644 -15081447.14342  21372489.717    21372485.898
  24330898.005      525993.49443    684160.79842  24330899.080    24330901.744
  21374280.410   -22801918.93644 -17729938.71642  21374282.757    21374280.481
  21859485.082   -15454399.73943 -12036529.51742  21859487.442    21859484.265
 03  4  6  2 59 30.0000000  0  4G14G31G25G11
  21384640.626   -19369094.64844 -15031681.84942  21384642.931    21384639.093
  24345989.849      605304.17043    745961.18142  24345991.337    24345993.988
  21362805.468   -22862220.23244 -17776926.65942  21362807.863    21362805.420
  21848648.871   -15511344.08743 -12080901.68442  21848651.159    21848648.066
 03  4  6  3  0  0.0000000  0  4G14G31G25G11
  21396833.154   -19305022.11844 -14981755.20142  21396835.479    21396831.696
  24361097.060      684692.89643    807822.38342  24361098.444    24361101.217
  21351412.592   -22922089.80344 -17823578.21842  21351414.943    21351412.596
  21837896.550   -15567848.26444 -12124930.88242  21837898.848    21837895.639
 03  4  6  3  0 30.0000000  0  4G14G31G25G11
  21409068.345   -19240725.35744 -14931653.81742  21409070.724    21409067.014
  24376222.214      764175.81643    869756.96242  24376223.446    24376226.622
  21340105.949   -22981506.39144 -17869876.80142  21340108.252    21340105.911
  21827232.070   -15623891.12644 -12168600.59442  21827234.412    21827231.067
 03  4  6  3  1  0.0000000  0  4G14G31G25G11
  21421343.973   -19176215.92143 -14881386.71942  21421346.369    21421342.749
  24391362.935      843740.31143    931755.12742  24391364.263    24391367.547
  21328883.990   -23040478.00644 -17915828.63842  21328886.274    21328883.959
  21816653.642   -15679480.44443 -12211916.89842  21816656.079    21816652.742
 03  4  6  3  1 30.0000000  0  4G14G31G25G11
  21433657.349   -19111508.34143 -14830965.21642  21433659.719    21433656.101
  24406516.404      923370.74043    993804.65442  24406517.631    24406520.806
  21317744.662   -23099015.18544 -17961441.97242  21317746.973    21317744.658
  21806159.435   -15734627.01943 -12254888.20442  21806161.902    21806158.609
 03  4  6  3  2  0.0000000  0  4G14G31G25G11
  21446006.008   -19046615.76144 -14780399.54542  21446008.365    21446004.708
  24421679.256     1003052.75543   1055894.41842  24421680.620    24421684.073
  21306686.281   -23157127.36744 -18006724.12842  21306688.525    21306686.195
  21795747.801   -15789340.23743 -12297521.83242  21795750.251    21795746.869
 03  4  6  3  2 30.0000000  0  4G14G31G25G11
  21458396.376   -18981504.29043 -14729663.33542  21458398.645    21458394.979
  24436858.739     1082819.22343   1118049.93742  24436859.836    24436863.150
  21295715.739   -23214777.08544 -18051645.92342  21295718.032    21295715.700
  21785425.910   -15843582.20944 -12339788.25142  21785428.335    21785424.941
 03  4  6  3  3  0.0000000  0  4G14G31G25G11
  21470824.612   -18916193.25643 -14678771.60842  21470826.921    21470823.301
  24452050.283     1162649.88743   1180255.50542  24452051.605    24452054.154
  21284830.469   -23271979.61844 -18096219.26442  21284832.714    21284830.383
  21775190.717   -15897368.60743 -12381699.68742  21775193.080    21775189.830
 03  4  6  3  3 30.0000000  0  4G14G31G25G11
  21483290.549   -18850684.07243 -14627725.47142  21483292.863    21483289.348
  24467253.590     1242542.07043   1242508.97242  24467254.959    24467257.203
  21274030.587   -23328733.01544 -18140442.63342  21274032.850    21274030.507
  21765042.555   -15950697.04243 -12423254.26242  21765044.914    21765041.776
 03  4  6  3  4  0.0000000  0  4G14G31G25G11
  21495792.917   -18784983.06143 -14576529.87942  21495795.275    21495791.875
  24482466.778     1322488.25143   1304804.57942  24482468.511    24482470.596
  21263315.672   -23385040.00544 -18184318.14242  21263317.929    21263315.603
  21754981.142   -16003570.28043 -12464454.13942  21754983.432    21754980.278
 03  4  6  3  4 30.0000000  0  4G14G31G25G11
  21508332.596   -18719086.66543 -14525182.01942  21508334.906    21508331.608
  24497690.465     1402490.95243   1367144.16442  24497692.342    24497694.648
  21252687.103   -23440893.00444 -18227839.88942  21252689.364    21252687.000
  21745007.645   -16055980.96844 -12505293.59942  21745009.925    21745006.697
 03  4  6  3  5  0.0000000  0  4G14G31G25G11
  21520909.933   -18652992.31843 -14473679.92542  21520912.202    21520908.892
  24512925.644     1482551.52043   1429528.88742  24512927.372    24512930.046
  21242146.080   -23496286.20144 -18271003.35342  21242148.318    21242145.951
  21735123.440   -16107923.14244 -12545767.98242  21735125.706    21735122.331
 03  4  6  3  5 30.0000000  0  4G14G31G25G11
  21533525.773   -18586695.18843 -14422019.80842  21533528.056    21533524.697
  24528172.842     1562673.93243   1491961.80042  24528174.353    24528177.264
  21231694.229   -23551210.91844 -18313801.76442  21231696.437    21231694.023
  21725329.934   -16159387.89044 -12585870.36242  21725332.259    21725328.833
 03  4  6  3  6  0.0000000  0  4G14G31G25G11
  21546176.645   -18520214.50343 -14370216.65642  21546178.908    21546175.565
  24543427.837     1642837.78243   1554426.98142  24543429.174    24543432.188
  21221328.453   -23605682.88944 -18356247.38642  21221330.714    21221328.258
  21715624.327   -16210390.91644 -12625612.94542  21715626.595    21715623.333
 03  4  6  3  6 30.0000000  0  4G14G31G25G11
  21558865.472   -18453534.79843 -14318258.44342  21558867.691    21558864.351
  24558693.271     1723057.41443   1616935.59642  24558694.568    24558697.370
  21211052.542   -23659683.28544 -18398325.54842  21211054.803    21211052.247
  21706010.258   -16260913.06044 -12664980.80542  21706012.488    21706009.364
 03  4  6  3  7  0.0000000  0  4G14G31G25G11
  21571587.425   -18386680.83143 -14266164.43342  21571589.633    21571586.246
  24573964.239     1803306.94443   1679467.54342  24573965.439    24573968.254
  21200862.241   -23713233.28644 -18440052.75642  21200864.514    21200862.000
  21696483.829   -16310975.52144 -12703990.49142  21696485.993    21696482.667
 03  4  6  3  7 30.0000000  0  4G14G31G25G11
  21584342.674   -18319651.35943 -14213933.67542  21584344.928    21584341.513
  24589240.865     1883586.67143   1742022.97442  24589242.118    24589245.352
  21190758.566   -23766327.93544 -18481425.13442  21190760.818    21190758.421
  21687045.614   -16360573.29243 -12742638.07942  21687047.803    21687044.298
 03  4  6  3  8  0.0000000  0  4G14G31G25G11
  21597133.763   -18252433.33343 -14161555.97842  21597136.041    21597132.642
  24604525.293     1963908.05743   1804610.95842  24604526.730    24604530.402
  21180744.676   -23818951.09644 -18522430.12442  21180746.899    21180744.446
  21677698.992   -16409690.15044 -12780910.91842  21677701.193    21677697.616
 03  4  6  3  8 30.0000000  0  4G14G31G25G11
  21609960.400   -18185029.01143 -14109033.14042  21609962.612    21609959.170
  24619817.773     2044268.19643   1867229.09742  24619819.134    24619822.434
  21170820.821   -23871101.10244 -18563066.42542  21170823.049    21170820.451
  21668444.154   -16458324.55844 -12818807.82042  21668446.411    21668442.844
 03  4  6  3  9  0.0000000  0  4G14G31G25G11
  21622821.497   -18117444.25643 -14056369.69342  21622823.662    21622820.055
  24635116.146     2124659.79843   1929871.78142  24635117.068    24635120.197
  21160986.419   -23922780.76944 -18603336.22942  21160988.682    21160986.067
  21659280.539   -16506479.06243 -12856330.76742  21659282.852    21659279.365
 03  4  6  3  9 30.0000000  0  4G14G31G25G11
  21635716.990   -18049677.77243 -14003564.63342  21635719.269    21635715.622
  24650420.334     2205083.23543   1992539.18842  24650421.521    24650424.482
  21151242.488   -23973985.18844 -18643235.72142  21151244.728    21151242.133
  21650209.332   -16554148.68644 -12893475.89142  21650211.618    21650208.086
 03  4  6  3 10  0.0000000  0  4G14G31G25G11
  21648642.900   -17981751.15543 -13950634.79142  21648645.264    21648641.648
  24665726.503     2285515.71343   2055213.68942  24665728.073    24665731.064
  21141585.567   -24024732.53744 -18682779.05042  21141587.736    21141585.164
  21641226.839   -16601351.55043 -12930257.30842  21641229.188    21641225.700
 03  4  6  3 10 30.0000000  0  4G14G31G25G11
  21661603.080   -17913645.43643 -13897565.39442  21661605.398    21661601.771
  24681037.690                     2117909.14942                  24681042.664
  21132019.743   -24075000.55144 -18721948.86242  21132021.957    21132019.484
  21632337.448   -16648065.27944 -12966657.58442  21632339.820    21632336.331
 03  4  6  3 11  0.0000000  0  4G14G31G25G11
  21674598.286   -17845355.58343 -13844352.52042  21674600.565    21674596.993
  24696353.969     2446465.19743   2180628.56842  24696355.746    24696358.250
  21122546.869   -24124780.83444 -18760738.63842  21122549.026    21122546.585
  21623542.853   -16694281.55544 -13002670.23842  21623545.195    21623541.598
 03  4  6  3 11 30.0000000  0  5G14G20G31G25G11
  21687625.059   -17776899.84543 -13791010.38142  21687627.372    21687623.729
  24614072.852
  24711672.961      951546.61953   1015756.81352  24711674.429    24711679.815
  21113164.061   -24174088.48744 -18799160.13142  21113166.188    21113163.610
  21614840.207   -16740014.81544 -13038306.51342  21614842.524    21614838.808
 03  4  6  3 12  0.0000000  0  5G14G20G31G25G11
  21700682.639   -17708281.62843 -13737541.64842  21700684.969    21700681.261
  24597701.945
  24726994.932     1032054.99043   1078490.47542  24726996.716    24727000.197
  21103871.087   -24222923.35744 -18837213.21842  21103873.268    21103870.556
  21606229.161   -16785265.31444 -13073566.59742  21606231.549    21606227.849
 03  4  6  3 12 30.0000000  0  4G14G31G25G11
  21713771.196   -17639500.35243 -13683945.83242  21713773.517    21713769.844
  24742316.103     1112569.72343   1141229.07742  24742317.818    24742321.951
  21094668.690   -24271281.70944 -18874894.98742  21094670.930    21094668.075
  21597710.700   -16830029.20243 -13108447.50342  21597713.054    21597709.652
 03  4  6  3 13  0.0000000  0  4G14G31G25G11
  21726890.127   -17570559.90243 -13630225.99142  21726892.400    21726888.717
  24757637.855     1193085.83443   1203968.73442  24757639.584    24757643.344
  21085556.826   -24319164.28744 -18912206.03442  21085559.026    21085556.307
  21589284.898   -16874307.01844 -13142949.65942  21589287.184    21589283.765
 03  4  6  3 13 30.0000000  0  4G14G31G25G11
  21740041.803   -17501447.65243 -13576372.31242  21740044.052    21740040.302
  24772961.946     1273614.62643   1266718.23742  24772963.692    24772966.565
  21076538.651   -24366555.32744 -18949134.06442  21076540.883    21076538.159
  21580954.658   -16918082.74044 -13177060.55742  21580956.949    21580953.517
 03  4  6  3 14  0.0000000  0  5G14G20G31G25G11
  21753228.121   -17432153.46044 -13522376.82542  21753230.378    21753226.592
  24532183.947
  24788292.745
  21067616.508   -24413441.46244 -18985668.66942  21067618.786    21067615.974
  21572722.505   -16961342.78343 -13210769.65042  21572724.815    21572721.385
 03  4  6  3 14 30.0000000  0  3G14G25G11
  21766460.786   -17362615.80943 -13468191.64742  21766463.023    21766459.136
  21058802.724   -24459757.81544 -19021759.29442  21058805.005    21058802.162
  21564600.715   -17004022.46744 -13244026.49842  21564603.072    21564599.749
 03  4  6  3 15  0.0000000  0  4G14G20G25G11
  21779724.423   -17292914.59343 -13413879.02442  21779726.699    21779722.803
  24499425.821
  21050082.630   -24505581.68544 -19057466.15442  21050084.863    21050082.161
  21556574.966   -17046198.02244 -13276890.52842  21556577.303    21556573.964
 03  4  6  3 15 30.0000000  0  4G14G20G25G11
  21792983.561   -17223237.24043 -13359584.98342  21792985.834    21792981.930
  24483006.611    -1147209.36253   -719429.45052  24483005.672    24483007.320
  21041421.294   -24551097.11344 -19092932.66942  21041423.474    21041420.809
  21548610.029   -17088054.20944 -13309505.70642  21548612.387    21548608.985
 03  4  6  3 16  0.0000000  0  4G14G20G25G11
  21806275.946   -17153385.50943 -13305155.05842  21806278.192    21806274.217
  24466586.856    -1233489.06243   -786660.18842  24466587.137    24466588.473
  21032857.013   -24596102.27044 -19128001.57242  21032859.201    21032856.453
  21540744.177   -17129389.37444 -13341714.89942  21540746.529    21540743.156
 03  4  6  3 16 30.0000000  0  4G14G20G25G11
  21819602.016   -17083356.46943 -13250586.97442  21819604.273    21819600.272
  24450165.959    -1319768.53543   -853890.76942  24450168.222    24450169.184
  21024390.904   -24640591.62544 -19162668.54542  21024393.081    21024390.343
  21532978.672   -17170197.34044 -13373513.29442  21532980.992    21532977.659
 03  4  6  3 17  0.0000000  0  4G14G20G25G11
  21832961.891   -17013149.48343 -13195880.23242  21832964.153    21832960.262
  24433747.811    -1406044.87643   -921118.95542  24433750.107    24433750.943
  21016023.752   -24684561.46544 -19196930.71042  21016025.889    21016023.152
  21525314.115   -17210474.53644 -13404898.07442  21525316.421    21525313.160
 03  4  6  3 17 30.0000000  0  4G14G20G25G11
  21846351.371   -16942786.99843 -13141052.31942  21846353.602    21846349.848
  24417326.622    -1492338.28843   -988360.40642  24417329.106    24417329.553
  21007751.688   -24728031.44144 -19230803.37042  21007753.813    21007751.073
  21517746.986   -17250240.04044 -13435884.14742  21517749.262    21517746.003
 03  4  6  3 18  0.0000000  0  4G14G20G25G11
  21859771.447   -16872264.11143 -13086099.43042  21859773.624    21859769.863
  24400903.895    -1578641.46443  -1055609.43542  24400906.245    24400906.717
  20999576.261   -24770993.47244 -19264280.23842  20999578.411    20999575.643
  21510278.746   -17289485.65844 -13466465.11042  21510281.057    21510277.712
 03  4  6  3 18 30.0000000  0  4G14G20G25G11
  21873218.800   -16801597.12443 -13031034.23342  21873221.044    21873217.397
  24384476.465    -1664968.50043  -1122877.11342  24384478.908    24384479.061
  20991494.952   -24813460.75044 -19297371.57242  20991497.199    20991494.271
  21502906.870   -17328224.99344 -13496651.57042  21502909.198    21502905.776
 03  4  6  3 19  0.0000000  0  4G14G20G25G11
  21886691.779   -16730795.99143 -12975864.51242  21886694.081    21886690.407
  24368042.961    -1751327.06043  -1190169.32342  24368045.547    24368045.210
  20983506.410   -24855440.61844 -19330083.10442  20983508.642    20983505.697
  21495630.062   -17366464.87444 -13526448.84442  21495632.372    21495628.995
 03  4  6  3 19 30.0000000  0  4G14G20G25G11
  21900192.870   -16659847.65743 -12920580.09042  21900195.135    21900191.409
  24351606.234    -1837701.61243  -1257474.03642  24351608.917    24351608.392
  20975613.639   -24896916.93544 -19362402.26142  20975615.862    20975612.995
  21488451.349   -17404189.30044 -13555844.48042  21488453.660    21488450.236
 03  4  6  3 20  0.0000000  0  4G14G20G25G11
  21913722.075   -16588750.80843 -12865179.93342  21913724.367    21913720.654
  24335167.101    -1924088.92543  -1324788.65142  24335169.848    24335169.266
  20967817.478   -24937886.00244 -19394326.15442  20967819.648    20967816.840
  21481371.528   -17441393.84744 -13584835.01042  21481373.860    21481370.336
 03  4  6  3 20 30.0000000  0  4G14G20G25G11
  21927276.549   -16517521.05043 -12809676.21142  21927278.896    21927275.200
  24318723.136    -2010502.12343  -1392123.47142  24318725.660    24318725.247
  20960115.490   -24978360.07844 -19425864.35142  20960117.619    20960114.834
  21474388.292   -17478090.79044 -13613430.01942  21474390.634    21474387.033
 03  4  6  3 21  0.0000000  0  4G14G20G25G11
  21940857.231   -16446154.27143 -12754065.74242  21940859.499    21940855.811
  24302275.262    -2096934.88943  -1459473.55842  24302277.387    24302277.374
  20952508.907   -25018332.41944 -19457011.57542  20952511.016    20952508.390
  21467502.956   -17514273.43644 -13641624.26042  21467505.293    21467501.633
 03  4  6  3 21 30.0000000  0  4G14G20G25G11
  21954464.343   -16374648.97343 -12698347.34642  21954466.525    21954462.857
  24285824.895    -2183383.11643                                  24285826.781
  20944998.732   -25057798.64944 -19487764.42442  20945000.836    20944998.159
  21460716.363   -17549937.24444 -13669414.21842  21460718.668    21460714.962
 03  4  6  3 22  0.0000000  0  4G14G20G25G11
  21968097.504   -16303006.40343 -12642521.96342  21968099.722    21968095.989
  24269371.506    -2269845.78543  -1594209.04942  24269373.708    24269373.242
  20937585.213   -25096756.99544 -19518121.52742  20937587.371    20937584.489
  21454028.838   -17585080.44044 -13696798.50642  21454031.162    21454027.439
 03  4  6  3 22 30.0000000  0  4G14G20G25G11
  21981755.508   -16231233.06543 -12586594.68342  21981757.773    21981753.964
  24252914.366    -2356327.29243  -1661597.06142  24252916.536    24252916.619
  20930267.454   -25135211.76744 -19548086.22242  20930269.665    20930266.711
  21447439.618   -17619706.51044 -13723779.83142  21447441.946    21447438.412
 03  4  6  3 23  0.0000000  0  4G14G20G25G11
  21995439.872   -16159320.93043 -12530559.24842  21995442.129    21995438.370
  24236455.721    -2442817.59543  -1728991.95942  24236457.685    24236458.006
  20923047.528   -25173152.17644 -19577650.12942  20923049.743    20923046.859
  21440950.870   -17653805.08644 -13750350.11242  21440953.160    21440949.675
 03  4  6  3 23 30.0000000  0  4G14G20G25G11
  22009148.540   -16087280.93443 -12474424.17842  22009150.789    22009147.128
  24219993.471    -2529325.15743  -1796400.24542  24219995.489    24219996.285
  20915924.055   -25210586.09544 -19606819.36242  20915926.249    20915923.427
  21434560.972   -17687384.00844 -13776515.48142  21434563.273    21434559.745
 03  4  6  3 24  0.0000000  0  4G14G20G25G11
  22022880.199   -16015120.55943 -12418195.30942  22022882.502    22022878.830
  24203527.068    -2615855.05943  -1863825.95442  24203529.114    24203530.067
  20908895.888   -25247519.21944 -19635598.36442  20908898.091    20908895.236
  21428269.042   -17720448.12744 -13802279.71742  21428271.309    21428267.654
 03  4  6  3 24 30.0000000  0  4G14G20G25G11
  22036638.319   -15942821.21443 -12361858.15742  22036640.567    22036636.953
  24187060.843    -2702386.27443  -1931252.71142  24187062.923    24187063.552
  20901967.121   -25283929.83444 -19663970.21942  20901969.334    20901966.420
  21422079.209   -17752975.86144 -13827625.97742  21422081.486    21422077.803
 03  4  6  3 25  0.0000000  0  4G14G20G25G11
  22050420.358   -15870395.46543 -12305422.50542  22050422.659    22050419.163
  24170592.366    -2788929.24643  -1998688.60142  24170594.603    24170594.876
  20895135.962   -25319827.89144 -19691942.68742  20895138.143    20895135.189
  21415989.602   -17784977.00244 -13852561.91542  21415991.916    21415988.258
 03  4  6  3 25 30.0000000  0  4G14G20G25G11
  22064225.954   -15797846.91543 -12248891.16442  22064228.165    22064224.764
  24154121.092    -2875485.32343  -2066134.68542  24154123.473    24154123.452
  20888402.075   -25355214.62744 -19719516.71542  20888404.311    20888401.273
  21410000.036   -17816452.57744 -13877088.31442  21410002.329    21409998.685
 03  4  6  3 26  0.0000000  0  4G14G20G25G11
  22078054.037   -15725180.18343 -12192267.73142  22078056.302    22078052.762
  24137646.992    -2962056.69243  -2133592.70242  24137649.324    24137649.201
  20881765.152   -25390091.80644 -19746693.68142  20881767.447    20881764.297
  21404109.986   -17847404.40844 -13901206.60142  21404112.296    21404108.683
 03  4  6  3 26 30.0000000  0  4G14G20G25G11
  22091905.466   -15652390.93843 -12135548.83542  22091907.678    22091904.161
  24121171.055    -3048636.61043  -2201057.33442  24121173.315    24121173.472
  20875226.362   -25424452.63644 -19773468.30942  20875228.629    20875225.565
  21398321.049   -17877825.37344 -13924911.23742  21398323.341    21398319.687
 03  4  6  3 27  0.0000000  0  4G14G20G25G11
  22105779.456   -15579482.82843 -12078737.32442  22105781.666    22105778.204
  24104693.553    -3135226.65343  -2268529.91642  24104695.609    24104695.751
  20868785.642   -25458298.58944 -19799841.72442  20868787.879    20868784.894
  21392632.907   -17907716.50444 -13948203.00842  21392635.208    21392631.602
 03  4  6  3 27 30.0000000  0  4G14G20G25G11
  22119675.486   -15506458.68343 -12021835.38542  22119677.661    22119674.255
  24088213.972    -3221827.47843  -2336010.94642  24088215.852    24088215.988
  20862442.834   -25491630.12344 -19825814.29742  20862445.073    20862442.044
  21387045.412   -17937078.37744 -13971082.36942  21387047.715    21387044.223
 03  4  6  3 28  0.0000000  0  4G14G20G25G11
  22133593.328   -15433319.58643 -11964843.87342  22133595.581    22133592.035
  24071732.583    -3308437.90343  -2403499.39742  24071734.456    24071734.384
  20856198.240   -25524445.54644 -19851384.71342  20856200.427    20856197.418
  21381559.241   -17965909.27844 -13993547.97742  21381561.486    21381557.935
 03  4  6  3 28 30.0000000  0  4G14G20G25G11
  22147535.660   -15360052.40943 -11907752.55942  22147537.933    22147534.276
  24055252.050    -3395042.28643  -2470983.18742  24055254.163    24055253.685
  20850054.699   -25556730.03044 -19876541.40042  20850056.884    20850053.848
  21376176.896   -17994193.54544 -14015587.65542  21376179.155    21376175.556
 03  4  6  3 29  0.0000000  0  4G14G20G25G11
  22161498.003   -15286679.81943 -11850579.12242  22161500.290    22161496.578
  24038768.893    -3481660.91843  -2538478.02742  24038771.008    24038770.604
  20844008.474   -25588503.02144 -19901299.53042  20844010.662    20844007.635
  21370894.874   -18021951.18044 -14037216.96842  21370897.094    21370893.325
 03  4  6  3 29 30.0000000  0  4G14G20G25G11
  22175481.890   -15213193.21843 -11793316.82842  22175484.271    22175480.563
  24022285.251    -3568282.96343  -2605975.53242  24022287.262    24022286.965
  20838061.625   -25619753.89344 -19925650.81342  20838063.834    20838060.776
  21365715.136   -18049171.02344 -14058427.23142  21365717.398    21365713.544
 03  4  6  3 30  0.0000000  0  4G14G20G25G11
  22189486.139   -15139600.63443 -11735971.97342  22189488.433    22189484.643
  24005799.616    -3654914.22643  -2673480.30242  24005801.630    24005801.232
  20832212.903   -25650488.73244 -19949599.99442  20832215.154    20832212.063
  21360636.679   -18075858.59444 -14079222.73242  21360638.905    21360635.176
 03  4  6  3 30 30.0000000  0  4G14G20G25G11
  22203512.431   -15065892.18943 -11678536.82042  22203514.720    22203510.785
  23989314.843    -3741542.41743  -2740982.67542  23989316.777    23989316.080
  20826464.684   -25680695.44544 -19973137.64342  20826466.925    20826463.833
  21355661.719   -18102002.01844 -14099594.19842  21355663.990    21355660.254
 03  4  6  3 31  0.0000000  0  4G14G20G25G11
  22217560.102   -14992071.68443 -11621014.36142  22217562.364    22217558.280
  23972830.230    -3828169.32143  -2808484.06942  23972832.060    23972831.476
  20820816.791   -25710375.03544 -19996264.55042  20820819.004    20820815.919
  21350790.071   -18127602.55344 -14119542.65942  21350792.323    21350788.597
 03  4  6  3 31 30.0000000  0  4G14G20G25G11
  22231625.620   -14918156.89043 -11563418.42242  22231627.893    22231623.735
  23956342.850    -3914810.31343  -2875996.45442  23956344.810    23956343.960
  20815266.256   -25739543.38744 -20018993.08842  20815268.423    20815265.324
  21346018.796   -18152675.34844 -14139079.89542  21346021.026    21346017.326
 03  4  6  3 32  0.0000000  0  4G14G20G25G11
  22245712.275   -14844130.33443 -11505735.37642  22245714.605    22245710.581
  23939856.557    -4001445.51743  -2943504.28542  23939858.527    23939857.777
  20809816.689   -25768180.99344 -20041308.05642  20809818.939    20809815.728
  21341351.621   -18177200.81644 -14158190.63342  21341353.844    21341350.263
 03  4  6  3 32 30.0000000  0  4G14G20G25G11
  22259819.515   -14769995.58243 -11447968.02742  22259821.866    22259818.029
  23923371.118    -4088076.22343  -3011008.60142  23923373.091    23923372.483
  20804467.837   -25796289.21444 -20063210.52042  20804470.079    20804466.885
  21336788.603   -18201179.82544 -14176875.56842  21336790.825    21336787.252
 03  4  6  3 33  0.0000000  0  4G14G20G25G11
  22273945.285   -14695763.73643 -11390125.03242  22273947.627    22273943.946
  23906885.036    -4174711.36843  -3078516.42042  23906886.909    23906886.236
  20799218.024   -25823876.68644 -20084707.20842  20799220.255    20799217.039
  21332327.909   -18224621.50144 -14195141.79742  21332330.181    21332326.487
 03  4  6  3 33 30.0000000  0  4G14G20G25G11
  22288089.815   -14621433.88143 -11332205.65842  22288092.117    22288088.508
  23890398.664    -4261347.64443  -3146025.10242  23890400.519    23890399.981
  20794067.986   -25850940.68244 -20105795.98942  20794070.173    20794066.834
  21327969.964   -18247522.62144 -14212986.82042  21327972.249    21327968.575
 03  4  6  3 34  0.0000000  0  4G14G20G25G11
  22302255.109   -14546994.92143 -11274201.25842  22302257.406    22302253.806
  23873914.437    -4347971.49943  -3213524.15842  23873916.177    23873915.714
  20789019.843   -25877468.20944 -20126466.75042  20789022.080    20789018.876
  21323717.397   -18269869.75644 -14230400.14842  21323719.693    21323716.020
 03  4  6  3 34 30.0000000  0  4G14G20G25G11
  22316438.508   -14472461.20843 -11216123.04542  22316440.753    22316437.122
  23857430.361    -4434595.02443  -3281022.90442  23857432.096    23857431.846
  20784071.523   -25903471.68144 -20146729.15242  20784073.747    20784070.522
  21319567.975   -18291675.30044 -14247391.47042  21319570.243    21319566.530
 03  4  6  3 35  0.0000000  0  4G14G20G25G11
  22330640.257   -14397831.32343 -11157969.90542  22330642.425    22330638.765
  23840947.108    -4521214.74343  -3348518.67942  23840948.928    23840948.686
  20779223.606   -25928947.71544 -20166580.56142  20779225.849    20779222.521
  21315522.279   -18312935.41444 -14263957.78242  21315524.541    21315520.836
 03  4  6  3 35 30.0000000  0  4G14G20G25G11
  22344858.863   -14323111.63643 -11099746.75742  22344861.084    22344857.424
  23824463.856    -4607834.53843  -3416014.52742  23824465.787    23824465.486
  20774475.230   -25953900.57044 -20186024.30142  20774477.477    20774474.127
  21311579.478   -18333654.49644 -14280102.50142  21311581.750    21311578.088
 03  4  6  3 36  0.0000000  0  4G14G20G25G11
  22359096.534   -14248292.46943 -11041446.10242  22359098.725    22359095.083
  23807982.531    -4694442.67143  -3483501.25342  23807984.485    23807984.364
  20769828.573   -25978318.39244 -20205051.14242  20769830.804    20769827.531
  21307741.964   -18353820.64444 -14295816.35942  21307744.262    21307740.612
 03  4  6  3 36 30.0000000  0  4G14G20G25G11
  22373351.465   -14173382.59743 -10983074.76842  22373353.730    22373350.092
  23791502.488    -4781045.33243  -3550983.75742  23791504.593    23791504.231
  20765282.417   -26002208.45744 -20223666.74142  20765284.633    20765281.335
  21304008.418   -18373440.56144 -14311104.59342  21304010.718    21304007.067
 03  4  6  3 37  0.0000000  0  4G14G20G25G11
  22387625.558   -14098372.08943 -10924625.02142  22387627.887    22387624.211
  23775026.157    -4867630.17443  -3618452.34442  23775028.211    23775027.602
  20760838.986   -26025558.88144 -20241861.84042  20760841.226    20760837.904
  21300381.059   -18392502.23544 -14325957.82342  21300383.350    21300379.695
 03  4  6  3 37 30.0000000  0  4G14G20G25G11
  22401914.919   -14023280.71443 -10866112.26642  22401917.285    22401913.641
  23758549.812    -4954214.86243  -3685920.79442  23758551.893    23758551.060
  20756494.838   -26048387.44144 -20259650.28942  20756497.076    20756493.797
  21296856.533   -18411023.36644 -14340389.84742  21296858.818    21296855.253
 03  4  6  3 38  0.0000000  0  5G14G20G25G11G 1
  22416219.980   -13948107.44743 -10807535.70942  22416222.309    22416218.612
  23742073.779    -5040796.05543  -3753386.57542  23742075.957    23742075.105
  20752250.453   -26070691.51944 -20277030.04742  20752252.707    20752249.400
  21293435.513   -18429000.82244 -14354398.22842  21293437.782    21293434.286
  24565760.469
 03  4  6  3 38 30.0000000  0  5G14G20G25G11G 1
  22430541.822   -13872845.50043 -10748890.02742  22430544.196    22430540.499
  23725600.068    -5127364.73943  -3820842.58642  23725602.139    23725601.571
  20748107.560   -26092462.36844 -20293994.30642  20748109.816    20748106.424
  21290119.693   -18446426.06044 -14367976.31542  21290121.937    21290118.318
  24550354.536    -1237896.80353   -940063.05952  24550353.323    24550360.406
 03  4  6  3 39  0.0000000  0  5G14G20G25G11G 1
  22444880.253   -13797497.09543 -10690177.01042  22444882.597    22444878.753
  23709128.852    -5213920.76443  -3888288.71742  23709130.695    23709130.503
  20744066.014   -26113700.74344 -20310543.65042  20744068.267    20744064.779
  21286908.762   -18463299.45144 -14381124.39342  21286911.050    21286907.311
  24534977.019    -1318695.12653  -1003022.43952  24534976.067    24534981.508
 03  4  6  3 39 30.0000000  0  5G14G20G25G11G 1
  22459236.945   -13722051.05743 -10631387.87542  22459239.388    22459235.592
  23692662.423    -5300450.77443  -3955714.52942  23692664.384    23692664.379
  20740128.247   -26134393.52944 -20326667.86642  20740130.445    20740127.020
  21283805.337   -18479607.81544 -14393832.16842  21283807.626    21283803.883
  24519630.426    -1399329.10143  -1065853.76942  24519632.607    24519637.642
 03  4  6  3 40  0.0000000  0  5G14G20G25G11G 1
  22473611.086   -13646514.89943 -10572528.53442  22473613.501    22473609.724
  23676200.685    -5386959.87543  -4023124.14242  23676202.418    23676201.920
  20736293.274   -26154546.60944 -20342371.52942  20736295.419    20736292.026
  21280808.444   -18495356.69744 -14406104.00042  21280810.717    21280806.909
  24504316.438    -1479804.41843  -1128561.34642  24504319.484    24504323.224
 03  4  6  3 40 30.0000000  0  5G14G20G25G11G 1
  22487998.885   -13570905.59643 -10513612.20242  22488001.339    22487997.579
  23659739.544    -5473462.85243  -4090528.87542  23659741.457    23659740.712
  20732557.975   -26174175.39144 -20357666.64842  20732560.175    20732556.822
  21277915.128   -18510561.32144 -14417951.73542  21277917.413    21277913.572
  24489029.363    -1560136.35243  -1191157.25642  24489032.398    24489036.158
 03  4  6  3 41  0.0000000  0  5G14G20G25G11G 1
  22502401.620   -13495219.05943 -10454635.69542  22502403.965    22502400.139
  23643281.021    -5559953.14343  -4157923.80242  23643282.848    23643281.720
  20728923.644   -26193274.11044 -20372548.73042  20728925.828    20728922.431
  21275126.397   -18525215.83744 -14429370.80942  21275128.715    21275125.000
  24473771.281    -1640319.34743  -1253637.13042  24473774.058    24473777.653
 03  4  6  3 41 30.0000000  0  4G14G20G25G11
  22516820.246   -13419448.67743 -10395593.85942  22516822.613    22516818.746
  23626826.246    -5646422.00443  -4225302.03142  23626828.144    23626826.989
  20725391.653   -26211834.44144 -20387011.28842  20725393.890    20725390.467
  21272443.884   -18539311.85444 -14440354.69042  21272446.209    21272442.615
 03  4  6  3 42  0.0000000  0  4G14G20G25G11
  22531252.298   -13343607.05743 -10336496.48842  22531254.697    22531250.931
  23610373.857    -5732879.50443  -4292671.41142  23610375.800    23610374.465
  20721959.994   -26229867.59844 -20401063.06942  20721962.201    20721958.881
  21269865.815   -18552860.08844 -14450911.73742  21269868.068    21269864.334
 03  4  6  3 42 30.0000000  0  5G14G20G25G11G 1
  22545701.385   -13267676.62443 -10277329.91342  22545703.774    22545699.995
  23593927.338    -5819306.00943  -4360016.61242  23593929.414    23593928.124
  20718632.255   -26247354.64144 -20414689.29142  20718634.450    20718631.127
  21267395.649   -18565841.26344 -14461026.92642  21267397.879    21267394.053
  24428173.169
 03  4  6  3 43  0.0000000  0  5G14G20G25G11G 1
  22560163.057   -13191680.37143 -10218112.05542  22560165.383    22560161.592
  23577482.827    -5905722.22443  -4427353.79842  23577484.934    23577483.747
  20715404.475   -26264316.85444 -20427906.56642  20715406.618    20715403.197
  21265029.167   -18578276.82544 -14470716.94942  21265031.432    21265027.612
  24413032.846    -1228719.58553   -949839.35452  24413037.443    24413037.067
 03  4  6  3 43 30.0000000  0  5G14G20G25G11G 1
  22574639.691   -13115605.57143 -10158833.00342  22574642.018    22574638.191
  23561043.270    -5992112.90543  -4494671.10742  23561045.364    23561044.286
  20712279.281   -26280740.04244 -20440703.81742  20712281.410    20712277.978
  21262769.352   -18590152.35744 -14479970.58242  21262771.623    21262767.717
  24397920.372    -1308132.48643  -1011719.06542  24397922.714    24397922.459
 03  4  6  3 44  0.0000000  0  5G14G20G25G11G 1
  22589130.891   -13039453.65043 -10099493.83442  22589133.191    22589129.468
  23544608.535    -6078477.22343  -4561967.84342  23544610.607    23544609.621
  20709256.585   -26296624.23244 -20453081.06842  20709258.729    20709255.351
  21260616.122   -18601467.62544 -14488787.65542  21260618.387    21260614.511
  24382836.153    -1387387.09843  -1073475.63142  24382839.136    24382839.641
 03  4  6  3 44 30.0000000  0  5G14G20G25G11G 1
  22603636.288   -12963227.03143 -10040096.46142  22603638.553    22603634.967
  23528178.830    -6164815.36543  -4629244.19842  23528180.871    23528179.894
  20706336.206   -26311970.49644 -20465039.15442  20706338.360    20706335.019
  21258569.373   -18612223.36444 -14497168.73542  21258571.614    21258567.746
  24367784.363    -1466484.56243  -1135109.64842  24367787.593    24367787.846
 03  4  6  3 45  0.0000000  0  5G14G20G25G11G 1
  22618155.701   -12886927.17343  -9980642.02142  22618157.927    22618154.373
  23511754.324    -6251126.42243  -4696499.46842  23511756.315    23511755.253
  20703518.292   -26326778.92044 -20476578.14842  20703520.398    20703516.998
  21256628.922   -18622419.89144 -14505114.07042  21256631.220    21256627.281
  24352762.169    -1545424.83643  -1196621.19642  24352765.759    24352766.365
 03  4  6  3 45 30.0000000  0  5G14G20G25G11G 1
  22632688.482   -12810557.23343  -9921132.98042  22632690.705    22632687.022
  23495334.687    -6337411.41243  -4763734.40742  23495336.691    23495335.437
  20700802.344   -26341051.30744 -20487699.45042  20700804.547    20700800.978
  21254794.776   -18632058.46344 -14512624.62642  21254797.031    21254793.194
  24337769.682    -1624209.47143  -1258011.52442  24337772.947    24337773.885
 03  4  6  3 46  0.0000000  0  5G14G20G25G11G 1
  22647231.803   -12734131.21243  -9861580.24942  22647234.002    22647230.270
  23478917.698    -6423682.17043  -4830958.25842  23478919.763    23478918.309
  20698185.886   -26354800.46844 -20498413.04442  20698188.137    20698184.571
  21253064.386   -18641151.76144 -14519710.30242  21253066.614    21253062.938
  24322804.507    -1702851.29143  -1319290.58042  24322807.609    24322808.651
 03  4  6  3 46 30.0000000  0  5G14G20G25G11G 1
  22661789.010   -12657632.76643  -9801971.05742  22661791.163    22661787.362
  23462507.110    -6509919.85543  -4898156.32842  23462509.167    23462507.493
  20695672.347   -26368008.88744 -20508705.28142  20695674.549    20695671.057
  21251441.157   -18649681.85444 -14526357.11542  21251443.432    21251439.654
  24307869.609    -1781332.34243  -1380444.35642  24307872.699    24307873.989
 03  4  6  3 47  0.0000000  0  5G14G20G25G11G 1
  22676359.504   -12581064.59043  -9742307.54642  22676361.731    22676357.798
  23446102.860    -6596124.55143  -4965328.65642  23446104.864    23446103.095
  20693261.525   -26380677.52544 -20518576.91142  20693263.716    20693260.262
  21249924.959   -18657649.71544 -14532565.83142  21249927.210    21249923.305
  24292965.615    -1859653.62943  -1441473.63042  24292968.752    24292970.012
 03  4  6  3 47 30.0000000  0  5G14G20G25G11G 1
  22690945.413   -12504415.40243  -9682580.91742  22690947.577    22690943.698
  23429707.544    -6682282.93843  -5032464.94142  23429709.510    23429707.851
  20690955.795   -26392794.21544 -20528018.45442  20690958.017    20690954.489
  21248518.057   -18665043.16344 -14538326.95542  21248520.299    21248516.339
  24278094.136    -1937802.71943  -1502368.78242  24278097.250    24278098.743
 03  4  6  3 48  0.0000000  0  5G14G20G25G11G 1
  22705540.876   -12427714.97143  -9622814.33842  22705543.201    22705539.400
  23413315.592    -6768422.37343  -5099586.43542  23413317.579    23413316.221
  20688749.724   -26404387.14344 -20537051.86342  20688751.943    20688748.362
  21247215.155   -18671890.25144 -14543662.34142  21247217.410    21247213.432
  24263249.848    -2015807.94843  -1563151.83242  24263252.627    24263254.852
 03  4  6  3 48 30.0000000  0  5G14G20G25G11G 1
  22720149.098   -12350948.46243  -9562996.27642  22720151.316    22720147.540
  23396930.315    -6854526.06443  -5166680.10742  23396932.352    23396930.969
  20686646.201   -26415441.13844 -20545665.33242  20686648.444    20686644.838
  21246019.155   -18678175.16044 -14548559.66042  21246021.404    21246017.502
  24248436.129    -2093653.26543  -1623810.27242  24248438.779    24248440.966
 03  4  6  3 49  0.0000000  0  5G14G20G25G11G 1
  22734768.776   -12274121.73043  -9503131.28642  22734771.054    22734767.163
  23380551.564    -6940597.09543  -5233748.34042  23380553.476    23380551.916
  20684644.369   -26425960.24544 -20553862.01142  20684646.606    20684643.119
  21244929.223   -18683902.45244 -14553022.47142  21244931.491    21244927.614
  24233652.206    -2171342.99843  -1684347.40842  24233655.072    24233656.870
 03  4  6  3 49 30.0000000  0  5G14G20G25G11G 1
  22749397.903   -12197244.61343  -9443227.03442  22749400.297    22749396.451
  23364177.382    -7026643.33343  -5300797.26342  23364179.320    23364177.669
  20682742.704   -26435953.48544 -20561648.92342  20682744.891    20682741.440
  21243943.874   -18689080.44244 -14557057.25342  21243946.129    21243942.188
  24218896.235    -2248885.57643  -1744769.94142  24218899.299    24218900.922
 03  4  6  3 50  0.0000000  0  5G14G20G25G11G 1
  22764038.217   -12120309.35743  -9383277.47442  22764040.526    22764036.753
  23347809.744    -7112654.85743  -5367819.09142  23347811.705    23347810.054
  20680942.821   -26445412.08644 -20569019.23042  20680945.006    20680941.541
  21243064.710   -18693700.16844 -14560657.03442  21243066.963    21243063.113
  24204169.812    -2326272.07943  -1805070.81942  24204172.783    24204174.534
 03  4  6  3 50 30.0000000  0  5G14G20G25G11G 1
  22778691.000   -12043309.17543  -9323277.33542  22778693.239    22778689.378
  23331450.567    -7198622.38743  -5434806.65442  23331452.557    23331450.919
  20679246.145   -26454328.18144 -20575966.81442  20679248.315    20679244.844
  21242293.372   -18697753.56444 -14563815.52142  21242295.612    21242291.759
  24189474.598    -2403494.36443  -1865243.75242  24189477.499    24189479.380
 03  4  6  3 51  0.0000000  0  5G14G20G25G11G 1
  22793354.919   -11966249.41243  -9263230.77642  22793357.284    22793353.309
  23315099.306    -7284548.85743  -5501762.22142  23315101.289    23315099.675
  20677651.783   -26462706.18344 -20582495.09942  20677653.952    20677650.525
  21241629.057   -18701244.93244 -14566536.06042  21241631.230    21241627.336
  24174809.902    -2480556.53243  -1925291.90542  24174812.834    24174814.821
 03  4  6  3 51 30.0000000  0  5G14G20G25G11G 1
  22808031.467   -11889123.84943  -9203132.94342  22808033.798    22808029.782
  23298757.510    -7370425.26943  -5568678.81942  23298759.510    23298757.895
  20676161.395   -26470538.31044 -20588598.02542  20676163.547    20676160.113
  21241072.961   -18704167.00444 -14568812.98642  21241075.178    21241071.315
  24160177.225    -2557450.62443  -1985209.14542  24160180.001    24160182.275
 03  4  6  3 52  0.0000000  0  5G14G20G25G11G 1
  22822717.122   -11811949.34943  -9142996.96942  22822719.498    22822715.638
  23282422.423    -7456266.96643  -5635568.41042  23282424.331    23282422.634
  20674771.665   -26477841.20144 -20594288.56442  20674773.849    20674770.390
  21240622.240   -18706535.20444 -14570658.32342  21240624.461    21240620.707
  24145573.542    -2634192.70343  -2045007.93342  24145576.033    24145578.631
 03  4  6  3 52 30.0000000  0  5G14G20G25G11G 1
  22837413.604   -11734719.82143  -9082818.12442  22837415.838    22837411.945
  23266095.354    -7542065.41043  -5702424.21642  23266097.276    23266095.974
  20673483.945   -26484607.81144 -20599561.22142  20673486.079    20673482.705
  21240278.354   -18708342.53644 -14572066.61642  21240280.542    21240276.715
  24131000.292    -2710775.40643  -2104682.53442  24131002.756    24131005.067
 03  4  6  3 53  0.0000000  0  5G14G20G25G11G 1
  22852119.808   -11657437.75543  -9022598.32842  22852122.170    22852118.281
  23249776.582    -7627820.61843  -5769246.39742  23249778.505    23249777.039
  20672298.067   -26490839.30944 -20604416.90442  20672300.199    20672296.836
  21240040.824   -18709590.61644 -14573039.13142  21240043.012    21240039.115
  24116457.244    -2787199.72643  -2164233.72942  24116459.713    24116461.585
 03  4  6  3 53 30.0000000  0  5G14G20G25G11G 1
  22866834.608   -11580110.16843  -8962343.05742  22866836.970    22866833.353
  23233465.100    -7713537.51443  -5836038.68542  23233467.063    23233465.649
  20671212.876   -26496542.35544 -20608860.80842  20671214.997    20671211.539
  21239908.627   -18710285.31944 -14573580.44542  21239910.781    21239906.950
  24101942.967    -2863471.45943  -2223666.00142  24101945.601    24101947.176
 03  4  6  3 54  0.0000000  0  5G14G20G25G11G 1
  22881560.239   -11502725.98743  -8902043.68942  22881562.573    22881559.051
  23217163.742    -7799202.56843  -5902790.60442  23217165.682    23217164.061
  20670230.458   -26501704.92644 -20612883.56042  20670232.605    20670229.070
  21239884.061   -18710414.66044 -14573681.21842  21239886.233    21239882.320
  24087460.074    -2939578.47643  -2282969.94042  24087462.614    24087464.242
 03  4  6  3 54 30.0000000  0  5G14G20G25G11G 1
  22896295.350   -11425292.84343  -8841706.17542  22896297.606    22896294.122
  23200870.929    -7884821.11943  -5969506.25642  23200873.030    23200871.254
  20669349.629   -26506333.73444 -20616490.39042  20669351.761    20669348.149
  21239965.719   -18709985.27344 -14573346.61842  21239967.922    21239964.093
  24073007.311    -3015527.39643  -2342150.69942  24073009.840    24073011.660
 03  4  6  3 55  0.0000000  0  5G14G20G25G11G 1
  22911039.964   -11347809.52543  -8781329.58342  22911042.179    22911038.689
  23184587.554    -7970389.60243  -6036182.87942  23184589.618    23184588.046
  20668570.719   -26510426.88144 -20619679.83042  20668572.884    20668569.249
  21240154.084   -18708995.04844 -14572574.98742  21240156.317    21240152.597
  24058585.041    -3091315.56943  -2401206.15642  24058587.560    24058589.440
 03  4  6  3 55 30.0000000  0  5G14G20G25G11G 1
  22925794.551   -11270273.38643  -8720911.81242  22925796.758    22925793.235
  23168314.897    -8055903.07943  -6102816.67442  23168316.822    23168315.166
  20667894.306   -26513980.95444 -20622449.20742  20667896.516    20667892.975
  21240449.858   -18707440.53244 -14571363.66542  21240452.102    21240448.382
  24044193.978    -3166939.28843  -2460133.47042  24044196.413    24044198.529
 03  4  6  3 56  0.0000000  0  5G14G20G25G11G 1
  22940558.070   -11192691.82543  -8660458.64042  22940560.207    22940556.576
  23152051.675    -8141366.48243  -6169411.45442  23152053.538    23152051.819
  20667319.217   -26517002.66644 -20624803.75842  20667321.448    20667317.927
  21240851.895   -18705327.98444 -14569717.51642  21240854.130    21240850.355
  24029833.196    -3242404.41143  -2518937.22142  24029835.645    24029837.749
 03  4  6  3 56 30.0000000  0  5G14G20G25G11G 1
  22955330.223   -11115063.77443  -8599969.27142  22955332.443    22955328.816
  23135798.823    -8226776.66243  -6235964.77642  23135800.580    23135798.554
  20666845.747   -26519490.42344 -20626742.24242  20666848.000    20666844.457
  21241360.320   -18702655.80744 -14567635.27942  21241362.580    21241358.819
  24015503.086    -3317708.98843  -2577615.88342  24015505.547    24015507.551
 03  4  6  3 57  0.0000000  0  5G14G20G25G11G 1
  22970111.496   -11037387.92443  -8539442.61942  22970113.735    22970110.046
  23119556.528    -8312130.07643  -6302473.80942  23119558.426    23119556.482
  20666474.369   -26521442.05944 -20628262.96742  20666476.600    20666473.072
  21241975.675   -18699421.96744 -14565115.38742  21241977.934    21241974.192
  24001204.031    -3392850.64443  -2636167.58942  24001206.414    24001208.176
 03  4  6  3 57 30.0000000  0  5G14G20G25G11G 1
  22984901.464   -10959666.10043  -8478880.17542  22984903.707    22984899.995
  23103325.132    -8397425.79943  -6368937.94642  23103327.130    23103325.150
  20666204.808   -26522858.70544 -20629366.81742  20666207.014    20666203.434
  21242697.910   -18695626.99244 -14562158.25742  21242700.125    21242696.282
  23986935.759    -3467829.97143  -2694592.79242  23986938.111    23986939.800
 03  4  6  3 58  0.0000000  0  5G14G20G25G11G 1
  22999699.448   -10881901.00243  -8418283.99942  22999701.784    22999698.192
  23087104.693    -8482664.49343  -6435357.60442  23087106.554    23087104.771
  20666036.518   -26523742.86044 -20630055.72742  20666038.742    20666035.131
  21243526.275   -18691273.47644 -14558765.90242  21243528.511    21243524.636
  23972698.043    -3542648.78743  -2752892.96142  23972700.299    23972702.074
 03  4  6  3 58 30.0000000  0  5G14G20G25G11G 1
  23014503.649   -10804104.30443  -8357663.21242  23014505.933    23014502.326
  23070893.160    -8567855.54143  -6501740.13442  23070894.953    23070893.352
  20665967.481   -26524105.42944 -20630338.22242  20665969.659    20665966.103
  21244458.851   -18686372.16444 -14554946.67942  21244461.102    21244457.312
  23958488.876    -3617317.68543  -2811076.31142  23958491.336    23958492.803
 03  4  6  3 59  0.0000000  0  5G14G20G25G11G 1
  23029314.122   -10726274.07143  -8297016.26542  23029316.453    23029312.816
  23054691.607    -8652994.77343  -6568082.29042  23054693.338    23054691.679
  20665998.268   -26523943.82444 -20630212.26442  20666000.406    20665996.824
  21245496.252   -18680920.52044 -14550698.63542  21245498.478    21245494.711
  23944308.814    -3691833.54943  -2869140.41942  23944311.490    23944312.612
 03  4  6  3 59 30.0000000  0  5G14G20G25G11G 1
  23044134.925   -10648390.63243  -8236327.89342  23044137.184    23044133.568
  23038504.258    -8738060.07343  -6634366.85342  23038505.851    23038504.290
  20666132.540   -26523237.78944 -20629662.08842  20666134.693    20666131.120
  21246642.353   -18674898.02744 -14546005.77542  21246644.586    21246640.827
  23930161.774    -3766175.56343  -2927069.05342  23930164.553    23930165.421
 03  4  6  4  0  0.0000000  0  5G14G20G25G11G 1
  23058964.726   -10570459.32643  -8175602.21442  23058966.958    23058963.390
  23022330.313    -8823054.37743  -6700596.10142  23022332.016    23022330.309
  20666369.523   -26521992.64844 -20628691.81742  20666371.664    20666368.045
  21247896.072   -18668309.88844 -14540872.14742  21247898.341    21247894.632
  23916047.237    -3840347.90443  -2984865.46542  23916049.885    23916050.708
 03  4  6  4  0 30.0000000  0  5G14G20G25G11G 1
  23073800.510   -10492497.56143  -8114852.79442  23073802.694    23073798.977
  23006166.996    -8907992.78043  -6766781.78142  23006168.796    23006166.959
  20666705.834   -26520225.33744 -20627314.66142  20666707.961    20666704.377
  21249254.228   -18661172.44844 -14535310.50642  21249256.522    21249252.815
  23901961.653    -3914367.12143  -3042542.57742  23901964.254    23901965.242
 03  4  6  4  1  0.0000000  0  5G14G20G25G11G 1
  23088644.383   -10414492.42143  -8054069.56742  23088646.691    23088642.803
  22990017.160    -8992860.29543  -6832912.19342  22990019.045    22990017.190
  20667144.004   -26517922.54044 -20625520.24442  20667146.130    20667142.583
  21250719.470   -18653472.54244 -14529310.58442  21250721.735    21250717.908
  23887907.972    -3988219.31743  -3100089.56342  23887910.497    23887911.487
 03  4  6  4  1 30.0000000  0  5G14G20G25G11G 1
  23103495.266   -10336450.30743  -7993257.54042  23103497.581    23103493.903
  22973880.017    -9077661.25643  -6898990.77342  22973881.908    22973879.885
  20667683.028   -26515090.03144 -20623313.06342  20667685.144    20667681.506
  21252290.622   -18645216.22844 -14522877.08742  21252292.894    21252288.958
  23873885.036    -4061910.01543  -3157510.66142  23873887.607    23873888.462
 03  4  6  4  2  0.0000000  0  5G14G20G25G11G 1
  23118353.316   -10258369.41943  -7932415.27042  23118355.746    23118352.321
  22957756.435    -9162391.05843  -6965013.90342  22957758.410    22957756.073
  20668323.195   -26511725.58944 -20620691.40142  20668325.354    20668321.667
  21253968.059   -18636401.13244 -14516008.17042  21253970.337    21253966.473
  23859893.280    -4135436.29743  -3214803.66142  23859895.959    23859896.715
 03  4  6  4  2 30.0000000  0  5G14G20G25G11G 1
  23133215.110   -10180270.36143  -7871558.85242  23133217.430    23133214.061
  22941642.780    -9247067.95443  -7030995.80442  22941644.831    22941642.362
  20669060.708   -26507849.80644 -20617671.28342  20669062.850    20669059.129
  21255748.023   -18627047.35344 -14508719.52142  21255750.291    21255746.540
  23845929.130    -4208817.63643  -3271983.76742  23845931.715    23845932.257
 03  4  6  4  3  0.0000000  0  5G14G20G25G11G 1
  23148085.004   -10102128.77843  -7810669.31142  23148087.245    23148083.899
  22925544.383    -9331665.52343  -7096915.89542  22925546.356    22925543.816
  20669900.274   -26503438.00744 -20614233.49242  20669902.412    20669898.685
  21257635.183   -18617129.97644 -14500991.69342  21257637.424    21257633.721
  23831997.231    -4282028.86743  -3329031.30542  23831999.655    23832000.497
 03  4  6  4  3 30.0000000  0  5G14G20G25G11G 1
  23162963.149   -10023944.33543  -7749746.36842  23162965.393    23162961.993
  22909461.588    -9416181.18243  -7162772.17742  22909463.525    22909461.094
  20670841.849   -26498489.70644 -20610377.64942  20670844.010    20670840.361
  21259629.708   -18606648.48344 -14492824.27642  21259631.940    21259628.230
  23818097.843    -4355068.57543  -3385945.17542  23818100.309    23818101.426
 03  4  6  4  4  0.0000000  0  5G14G20G25G11G 1
  23177847.512    -9945726.79443  -7688797.62942  23177849.798    23177846.249
  22893392.870    -9500622.34443  -7228570.43342  22893394.806    22893392.454
  20671883.767   -26493014.53044 -20606111.26142  20671885.862    20671882.230
  21261729.810   -18595612.61444 -14484224.88742  21261732.026    21261728.274
  23804229.788    -4427945.86943  -3442732.49142  23804232.125    23804232.997
 03  4  6  4  4 30.0000000  0  5G14G20G25G11G 1
  23192736.321    -9867486.38343  -7627831.09842  23192738.483    23192734.907
  22877336.908    -9584996.74643  -7294316.63742  22877338.837    22877336.560
  20673024.054   -26487022.25844 -20601441.93042  20673026.210    20673022.482
  21263933.543   -18584031.97444 -14475201.01242  21263935.766    21263931.890
  23790390.832    -4500669.94643  -3499400.42942  23790393.142    23790393.558
 03  4  6  4  5  0.0000000  0  5G14G20G25G11G 1
  23207632.106    -9789207.92443  -7566834.91842  23207634.374    23207630.737
  22861297.010    -9669286.75943  -7359997.12742  22861298.893    22861296.644
  20674265.660   -26480497.22844 -20596357.46442  20674267.823    20674264.108
  21266243.930   -18571890.67344 -14465740.26042  21266246.126    21266242.259
  23776584.064    -4573224.42643  -3555936.20742  23776586.454    23776586.717
 03  4  6  4  5 30.0000000  0  5G14G20G25G11G 1
  23222532.121    -9710907.71343  -7505821.74242  23222534.431    23222530.755
  22845270.396    -9753506.53743  -7425622.88442  22845272.253    22845270.167
  20675605.620   -26473455.71444 -20590870.54742  20675607.766    20675604.073
  21268657.898   -18559205.18944 -14455855.46042  21268660.055    21268656.363
  23762806.267    -4645624.91943  -3612351.99542  23762808.762    23762809.266
 03  4  6  4  6  0.0000000  0  5G14G20G25G11G 1
  23237437.369    -9632579.31943  -7444786.64542  23237439.783    23237436.185
  22829258.901    -9837647.37143  -7491187.11142  22829260.704    22829258.634
  20677045.003   -26465891.68644 -20584976.48942  20677047.108    20677043.478
  21271176.672   -18545969.06644 -14445541.58442  21271178.845    21271175.133
  23749059.380    -4717864.22543  -3668642.14342  23749061.881    23749062.340
